[[{"header":{"parameterUnit":"m.s-1","parameterCategory":1,"la1":31.0,"la2":29.5877,"lo1":-88.7671,"lo2":-86.6584,"dy":0.0162,"dx":0.0185,"nx":115,"ny":88,"refTime":"2023-09-25T12:00:00:Z","depth":0,"parameterNumber":2,"parameterNumberName":"U-component_of_WINDS"},"data":[0.0,0.0,0.0,0.0,0.0,0.0,0.0,0.0,0.0,0.0,0.0,0.0,0.0,0.0,0.0,0.0,0.0,0.0,0.0,0.0,0.0,0.0,0.0,0.0,0.0,0.0,0.0,0.0,0.0,0.0,0.0,0.0,0.0,0.0,0.0,0.0,0.0,0.0,0.0,0.0,0.0,0.0,0.0,0.0,0.0,0.0,0.0,0.0,0.0,0.0,0.0,0.0,0.0,0.0,0.0,0.0,0.0,0.0,0.0,0.0,0.0,0.0,0.0,0.0,0.0,0.0,0.0,0.0,0.0,0.0,0.0,0.0,0.0,0.0,0.0,0.0,0.0,0.0,0.0,0.0,0.0,0.0,0.0,0.0,0.0,0.0,0.0,0.0,0.0,0.0,0.0,0.0,0.0,0.0,0.0,0.0,0.0,0.0,0.0,0.0,0.0,0.0,0.0,0.0,0.0,0.0,0.0,0.0,0.0,0.0,0.0,0.0,0.0,0.0,0.0,0.0,0.0,0.0,0.0,0.0,0.0,0.0,0.0,0.0,0.0,0.0,0.0,0.0,0.0,0.0,0.0,0.0,0.0,0.0,0.0,0.0,0.0,0.0,0.0,0.0,0.0,0.0,0.0,0.0,0.0,0.0,0.0,0.0,0.0,0.0,0.0,0.0,0.0,0.0,0.0,0.0,0.0,0.0,0.0,0.0,0.0,0.0,0.0,0.0,0.0,0.0,0.0,0.0,0.0,0.0,0.0,0.0,0.0,0.0,0.0,0.0,0.0,0.0,0.0,0.0,0.0,0.0,0.0,0.0,0.0,0.0,0.0,0.0,0.0,0.0,0.0,0.0,0.0,0.0,0.0,0.0,0.0,0.0,0.0,0.0,0.0,0.0,0.0,0.0,0.0,0.0,0.0,0.0,0.0,0.0,0.0,0.0,0.0,0.0,0.0,0.0,0.0,0.0,0.0,0.0,0.0,0.0,0.0,0.0,0.0,0.0,0.0,0.0,0.0,0.0,0.0,0.0,0.0,0.0,0.0,0.0,0.0,0.0,0.0,0.0,0.0,0.0,0.0,0.0,0.0,0.0,0.0,0.0,0.0,0.0,0.0,0.0,0.0,0.0,0.0,0.0,0.0,0.0,0.0,0.0,0.0,0.0,0.0,0.0,0.0,0.0,0.0,0.0,0.0,0.0,0.0,0.0,0.0,0.0,0.0,0.0,0.0,0.0,0.0,0.0,0.0,0.0,0.0,0.0,0.0,0.0,0.0,0.0,0.0,0.0,0.0,0.0,0.0,0.0,0.0,0.0,0.0,0.0,0.0,0.0,0.0,0.0,0.0,0.0,0.0,0.0,0.0,0.0,0.0,0.0,0.0,0.0,0.0,0.0,0.0,0.0,0.0,0.0,0.0,0.0,0.0,0.0,0.0,0.0,0.0,0.0,0.0,0.0,0.0,0.0,0.0,0.0,0.0,0.0,0.0,0.0,0.0,0.0,0.0,0.0,0.0,0.0,0.0,0.0,0.0,0.0,0.0,0.0,0.0,0.0,0.0,0.0,0.0,0.0,0.0,0.0,0.0,0.0,0.0,0.0,0.0,0.0,0.0,0.0,0.0,0.0,0.0,0.0,0.0,0.0,0.0,0.0,0.0,0.0,0.0,0.0,0.0,0.0,0.0,0.0,0.0,0.0,0.0,0.0,0.0,0.0,0.0,0.0,0.0,0.0,0.0,0.0,0.0,0.0,0.0,0.0,0.0,0.0,0.0,0.0,0.0,0.0,0.0,0.0,0.0,0.0,0.0,0.0,0.0,0.0,0.0,0.0,0.0,0.0,0.0,0.0,0.0,0.0,0.0,0.0,0.0,0.0,0.0,0.0,0.0,0.0,0.0,0.0,0.0,0.0,0.0,0.0,0.0,0.0,0.0,0.0,0.0,0.0,0.0,0.0,0.0,0.0,0.0,0.0,0.0,0.0,0.0,0.0,0.0,0.0,0.0,0.0,0.0,0.0,0.0,0.0,0.0,0.0,0.0,0.0,0.0,0.0,0.0,0.0,0.0,0.0,0.0,0.0,0.0,0.0,0.0,0.0,0.0,0.0,0.0,0.0,0.0,0.0,0.0,0.0,0.0,0.0,0.0,0.0,0.0,0.0,0.0,0.0,0.0,0.0,0.0,0.0,0.0,0.0,0.0,0.0,0.0,0.0,0.0,0.0,0.0,0.0,0.0,0.0,0.0,0.0,0.0,0.0,0.0,0.0,0.0,0.0,0.0,0.0,0.0,0.0,0.0,0.0,0.0,0.0,0.0,0.0,0.0,0.0,0.0,0.0,0.0,0.0,0.0,0.0,0.0,0.0,0.0,0.0,0.0,0.0,0.0,0.0,0.0,0.0,0.0,0.0,0.0,0.0,0.0,0.0,0.0,0.0,0.0,0.0,0.0,0.0,0.0,0.0,0.0,0.0,0.0,0.0,0.0,0.0,0.0,0.0,0.0,0.0,0.0,0.0,0.0,0.0,0.0,0.0,0.0,0.0,0.0,0.0,0.0,0.0,0.0,0.0,0.0,0.0,0.0,0.0,0.0,0.0,0.0,0.0,0.0,0.0,0.0,0.0,0.0,0.0,0.0,0.0,0.0,0.0,0.0,0.0,0.0,0.0,0.0,0.0,0.0,0.0,0.0,0.0,0.0,0.0,0.0,0.0,0.0,0.0,0.0,0.0,0.0,0.0,0.0,0.0,0.0,0.0,0.0,0.0,0.0,0.0,0.0,0.0,0.0,0.0,0.0,0.0,0.0,0.0,0.0,0.0,0.0,0.0,0.0,0.0,0.0,0.0,0.0,0.0,0.0,0.0,0.0,0.0,0.0,0.0,0.0,0.0,0.0,0.0,0.0,0.0,0.0,0.0,0.0,0.0,0.0,0.0,0.0,0.0,0.0,0.0,0.0,0.0,0.0,0.0,0.0,0.0,0.0,0.0,0.0,0.0,0.0,0.0,0.0,0.0,0.0,0.0,0.0,0.0,0.0,0.0,0.0,0.0,0.0,0.0,0.0,0.0,0.0,0.0,0.0,0.0,0.0,0.0,0.0,0.0,0.0,0.0,0.0,0.0,0.0,0.0,0.0,0.0,0.0,0.0,0.0,0.0,0.0,0.0,0.0,0.0,0.0,0.0,0.0,0.0,0.0,0.0,0.0,0.0,0.0,0.0,0.0,0.0,0.0,0.0,0.0,0.0,0.0,0.0,0.0,0.0,0.0,0.0,0.0,0.0,0.0,0.0,0.0,0.0,0.0,0.0,0.0,0.0,0.0,0.0,0.0,0.0,0.0,0.0,0.0,0.0,0.0,0.0,0.0,0.0,0.0,0.0,0.0,0.0,0.0,0.0,0.0,0.0,0.0,0.0,0.0,0.0,0.0,0.0,0.0,0.0,0.0,0.0,0.0,0.0,0.0,0.0,0.0,0.0,0.0,0.0,0.0,0.0,0.0,0.0,0.0,0.0,0.0,0.0,0.0,0.0,0.0,0.0,0.0,0.0,0.0,0.0,0.0,0.0,0.0,0.0,0.0,0.0,0.0,0.0,0.0,0.0,0.0,0.0,0.0,0.0,0.0,0.0,0.0,0.0,0.0,0.0,0.0,0.0,0.0,0.0,0.0,0.0,0.0,0.0,0.0,0.0,0.0,0.0,0.0,0.0,0.0,0.0,0.0,0.0,0.0,0.0,0.0,0.0,0.0,0.0,0.0,0.0,0.0,0.0,0.0,0.0,0.0,0.0,0.0,0.0,0.0,0.0,0.0,0.0,0.0,0.0,0.0,0.0,0.0,0.0,0.0,0.0,0.0,0.0,0.0,0.0,0.0,0.0,0.0,0.0,0.0,0.0,0.0,0.0,0.0,0.0,0.0,0.0,0.0,0.0,0.0,0.0,0.0,0.0,0.0,0.0,0.0,0.0,0.0,0.0,0.0,0.0,0.0,0.0,0.0,0.0,0.0,0.0,0.0,0.0,0.0,0.0,0.0,0.0,0.0,0.0,0.0,0.0,0.0,0.0,0.0,0.0,0.0,0.0,0.0,0.0,0.0,0.0,0.0,0.0,0.0,0.0,0.0,0.0,0.0,0.0,0.0,0.0,0.0,0.0,0.0,0.0,0.0,0.0,0.0,0.0,0.0,0.0,0.0,0.0,0.0,0.0,0.0,0.0,0.0,0.0,0.0,0.0,0.0,0.0,0.0,0.0,0.0,0.0,0.0,0.0,0.0,0.0,0.0,0.0,0.0,0.0,0.4349,0.0,0.0,0.0,0.0,0.0,0.0,0.0,0.0,0.0,0.0,0.0,0.0,0.0,0.0,0.0,0.0,0.0,0.0,0.0,0.0,0.0,0.0,0.0,0.0,0.0,0.0,0.0,0.0,0.0,0.0,0.0,0.0,0.0,0.0,0.0,0.0,0.0,0.0,0.0,0.0,0.0,0.0,0.0,0.0,0.0,0.0,0.0,0.0,0.0,0.0,0.0,0.0,0.0,0.0,0.0,0.0,0.0,0.0,0.0,0.0,0.0,0.0,0.0,0.0,0.0,0.0,0.0,0.0,0.0,0.0,0.0,0.0,0.0,0.0,0.0,0.0,0.0,0.0,0.0,0.0,0.0,0.0,0.0,0.0,0.0,0.0,0.0,0.0,0.0,0.0,0.0,0.0,0.0,0.0,0.0,0.0,0.0,0.0,0.0,0.0,0.0,0.0,0.0,0.0,0.0,0.0,0.0,0.0,0.0,0.0,0.5003,0.4876,0.4722,0.4608,0.4609,0.0,0.0,0.0,0.0,0.0,0.0,0.0,0.0,0.0,0.0,0.0,0.0,0.0,0.0,0.0,0.0,0.0,0.0,0.0,0.0,0.0,0.0,0.0,0.0,0.0,0.0,0.0,0.0,0.0,0.0,0.0,0.0,0.0,0.0,0.0,0.0,0.0,0.0,0.0,0.0,0.0,0.0,0.0,0.0,0.0,0.0,0.0,0.0,0.0,0.0,0.0,0.0,0.0,0.0,0.0,0.0,0.0,0.0,0.0,0.0,0.0,0.0,0.0,0.0,0.0,0.0,0.0,0.0,0.0,0.0,0.0,0.0,0.0,0.0,0.0,0.0,0.0,0.0,0.0,0.0,0.0,0.0,0.0,0.0,0.0,0.0,0.0,0.0,0.0,0.0,0.0,0.0,0.0,0.0,0.0,0.0,0.0,0.0,0.0,0.0,0.0,0.0,0.0,0.0,0.0,0.0,0.0,0.0,0.0,0.0,0.0,0.0,0.5134,0.4948,0.48,0.0,0.0,0.0,0.0,0.0,0.0,0.0,0.0,0.0,0.0,0.0,0.0,0.0,0.0,0.0,0.0,0.0,0.0,0.0,0.0,0.0,0.0,0.0,0.0,0.0,0.0,0.0,0.0,0.0,0.0,0.0,0.0,0.0,0.0,0.0,0.0,0.0,0.0,0.0,0.0,0.0,0.0,0.0,0.0,0.0,0.0,0.0,0.0,0.0,0.0,0.0,0.0,0.0,0.0,0.0,0.0,0.0,0.0,0.0,0.0,0.0,0.0,0.0,0.0,0.0,0.0,0.0,0.0,0.0,0.0,0.0,0.0,0.0,0.0,0.0,0.0,0.0,0.0,0.0,0.0,0.0,0.0,0.0,0.0,0.0,0.0,0.0,0.0,0.0,0.0,0.0,0.0,0.0,0.0,0.0,0.0,0.0,0.0,0.0,0.0,0.0,0.0,0.0,0.0,0.0,0.0,0.0,0.0,0.0,0.0,0.567,0.5661,0.5621,0.0,0.4834,0.0,0.0,0.0,0.0,0.0,0.0,0.0,0.0,0.0,0.0,0.0,0.0,0.0,0.0,0.0,0.0,0.0,0.0,0.0,0.0,0.0,0.0,0.0,0.0,0.0,0.0,0.0,0.0,0.0,0.0,0.0,0.0,0.0,0.0,0.0,0.0,0.0,0.0,0.0,0.0,0.0,0.0,0.0,0.0,0.0,0.0,0.0,0.0,0.0,0.0,0.0,0.0,0.0,0.0,0.0,0.0,0.0,0.0,0.0,0.0,0.0,0.0,0.0,0.0,0.0,0.0,0.0,0.0,0.0,0.0,0.0,0.0,0.0,0.0,0.0,0.0,0.0,0.0,0.0,0.0,0.0,0.0,0.0,0.0,0.0,0.0,0.0,0.0,0.0,0.0,0.0,0.0,0.0,0.0,0.0,0.0,0.0,0.0,0.0,0.0,0.0,0.0,0.0,0.0,0.0,0.0,0.0,0.0,0.0,0.0,0.5798,0.599,0.5812,0.5573,0.0,0.0,0.0,0.0,0.0,0.0,0.0,0.0,0.0,0.0,0.0,0.0,0.0,0.0,0.0,0.0,0.0,0.0,0.0,0.0,0.0,0.0,0.0,0.0,0.0,0.0,0.0,0.0,0.0,0.0,0.0,0.0,0.0,0.0,0.0,0.0,0.0,0.0,0.0,0.0,0.0,0.0,0.0,0.0,0.0,0.0,0.0,0.0,0.0,0.0,0.0,0.0,0.0,0.0,0.0,0.0,0.0,0.0,0.0,0.0,0.0,0.0,0.0,0.0,0.0,0.0,0.0,0.0,0.0,0.0,0.0,0.0,0.0,0.0,0.0,0.0,0.0,0.0,0.0,0.0,0.0,0.0,0.0,0.0,0.0,0.0,0.0,0.0,0.0,0.0,0.0,0.0,0.0,0.0,0.0,0.0,0.0,0.0,0.0,0.0,0.0,0.0,0.0,0.0,0.0,0.0,0.0,0.0,0.0,0.0,0.5856,0.6061,0.6281,0.5985,0.579,0.571,0.0,0.0,0.0,0.0,0.0,0.0,0.0,0.0,0.0,0.0,0.0,0.0,0.0,0.0,0.0,0.0,0.0,0.0,0.0,0.0,0.0,0.0,0.0,0.0,0.0,0.0,0.0,0.0,0.0,0.0,0.0,0.0,0.0,0.0,0.0,0.0,0.0,0.0,0.0,0.0,0.0,0.0,0.0,0.0,0.0,0.0,0.0,0.0,0.0,0.0,0.0,0.0,0.0,0.0,0.0,0.0,0.0,0.0,0.0,0.0,0.0,0.0,0.0,0.0,0.0,0.0,0.0,0.0,0.0,0.0,0.0,0.0,0.0,0.0,0.0,0.0,0.0,0.0,0.0,0.0,0.0,0.0,0.0,0.0,0.0,0.0,0.0,0.0,0.0,0.0,0.0,0.0,0.0,0.0,0.0,0.0,0.0,0.0,0.0,0.0,0.0,0.0,0.0,0.0,0.0,0.0,0.0,0.0,0.5723,0.6253,0.656,0.6579,0.633,0.6039,0.0,0.0,0.0,0.0,0.0,0.0,0.0,0.0,0.0,0.0,0.0,0.0,0.0,0.0,0.0,0.0,0.0,0.0,0.0,0.0,0.0,0.0,0.0,0.0,0.0,0.0,0.0,0.0,0.0,0.0,0.0,0.0,0.0,0.0,0.0,0.0,0.0,0.0,0.0,0.0,0.0,0.0,0.0,0.0,0.0,0.0,0.0,0.0,0.0,0.0,0.0,0.0,0.0,0.0,0.0,0.0,0.0,0.0,0.0,0.0,0.0,0.0,0.0,0.0,0.0,0.0,0.0,0.0,0.0,0.0,0.0,0.0,0.0,0.0,0.0,0.0,0.0,0.0,0.0,0.0,0.0,0.0,0.0,0.0,0.0,0.0,0.0,0.0,0.0,0.0,0.0,0.0,0.0,0.0,0.0,0.0,0.0,0.0,0.0,0.0,0.0,0.0,0.0,0.0,0.0,0.0,0.0,0.0,0.0,0.6039,0.6573,0.6857,0.6854,0.6596,0.6311,0.0,0.0,0.0,0.0,0.0,0.0,0.0,0.0,0.0,0.0,0.0,0.0,0.0,0.0,0.0,0.0,0.0,0.0,0.0,0.0,0.0,0.0,0.0,0.0,0.0,0.0,0.0,0.0,0.0,0.0,0.0,0.0,0.0,0.0,0.0,0.0,0.0,0.0,0.0,0.0,0.0,0.0,0.0,0.0,0.0,0.0,0.0,0.0,0.0,0.0,0.0,0.0,0.0,0.0,0.0,0.0,0.0,0.0,0.0,0.0,0.0,0.0,0.0,0.0,0.0,0.0,0.0,0.0,0.0,0.0,0.0,0.0,0.0,0.0,0.0,0.0,0.0,0.0,0.0,0.0,0.0,0.0,0.0,0.0,0.0,0.0,0.0,0.0,0.0,0.0,0.0,0.0,0.0,0.0,0.0,0.0,0.0,0.0,0.0,0.0,0.0,0.0,0.0,0.0,0.0,0.0,0.0,0.0,0.0,0.6603,0.0,0.715,0.715,0.688,0.657,0.0,0.0,0.0,0.0,0.0,0.0,0.0,0.0,0.0,0.0,0.0,0.0,0.0,0.0,0.0,0.0,0.0,0.0,0.0,0.0,0.0,0.0,0.0,0.0,0.0,0.0,0.0,0.0,0.0,0.0,0.0,0.0,0.0,0.0,0.0,0.0,0.0,0.0,0.0,0.0,0.0,0.0,0.0,0.0,0.0,0.0,0.0,0.0,0.0,0.0,0.0,0.0,0.0,0.0,0.0,0.0,0.0,0.0,0.0,0.0,0.0,0.0,0.0,0.0,0.0,0.0,0.0,0.0,0.0,0.0,0.0,0.0,0.0,0.0,0.0,0.0,0.0,0.0,0.0,0.0,0.0,0.0,0.0,0.0,0.0,0.0,0.0,0.0,0.0,0.0,0.0,0.0,0.0,0.0,0.0,0.0,0.0,0.0,0.0,0.0,0.0,0.0,0.0,0.0,0.0,0.0,0.0,0.0,0.6626,0.7448,0.7477,0.7491,0.7491,0.7174,0.677,0.0,0.0,0.0,0.0,0.0,0.0,0.0,0.0,0.0,0.0,0.0,0.0,0.0,0.0,0.0,0.0,0.0,0.0,0.0,0.0,0.0,0.0,0.0,0.0,0.0,0.0,0.0,0.0,0.0,0.0,0.0,0.0,0.0,0.0,0.0,0.0,0.0,0.0,0.0,0.0,0.0,0.0,0.0,0.0,0.0,0.0,0.0,0.0,0.0,0.0,0.0,0.0,0.0,0.0,0.0,0.0,0.0,0.0,0.0,0.0,0.0,0.0,0.0,0.0,0.0,0.0,0.0,0.0,0.0,0.0,0.0,0.0,0.0,0.0,0.0,0.0,0.0,0.0,0.0,0.0,0.0,0.0,0.0,0.0,0.0,0.0,0.0,0.0,0.0,0.0,0.0,0.0,0.0,0.0,0.0,0.0,0.0,0.0,0.0,0.0,0.0,0.0,0.0,0.0,0.0,0.0,0.0,0.0,0.0,0.7488,0.7669,0.7789,0.7764,0.7506,0.7075,0.0,0.0,0.0,0.0,0.0,0.0,0.0,0.0,0.0,0.0,0.0,0.0,0.0,0.0,0.0,0.0,0.0,0.0,0.0,0.0,0.0,0.0,0.0,0.0,0.0,0.0,0.0,0.0,0.0,0.0,0.0,0.0,0.0,0.0,0.0,0.0,0.0,0.0,0.0,0.0,0.0,0.0,0.0,0.0,0.0,0.0,0.0,0.0,0.0,0.0,0.0,0.0,0.0,0.0,0.0,0.0,0.0,0.0,0.0,0.0,0.0,0.0,0.0,0.0,0.0,0.0,0.0,0.0,0.0,0.0,0.0,0.0,0.0,0.0,0.0,0.0,0.0,0.0,0.0,0.0,0.0,0.0,0.0,0.0,0.0,0.0,0.0,0.0,0.0,0.0,0.0,0.0,0.0,0.0,0.0,0.0,0.0,0.0,0.0,0.0,0.0,0.0,0.0,0.0,0.0,0.0,0.0,0.0,0.0,0.7975,0.8056,0.8096,0.8084,0.7921,0.7491,0.6787,0.0,0.0,0.0,0.0,0.0,0.0,0.0,0.0,0.0,0.0,0.0,0.0,0.0,0.0,0.0,0.0,0.0,0.0,0.0,0.0,0.0,0.0,0.0,0.0,0.0,0.0,0.0,0.0,0.0,0.0,0.0,0.0,0.0,0.0,0.0,0.0,0.0,0.0,0.0,0.0,0.0,0.0,0.0,0.0,0.0,0.0,0.0,0.0,0.0,0.0,0.0,0.0,0.0,0.0,0.0,0.0,0.0,0.0,0.0,0.0,0.0,0.0,0.0,0.0,0.0,0.0,0.0,0.0,0.0,0.0,0.0,0.0,0.0,0.0,0.0,0.0,0.0,0.0,0.0,0.0,0.0,0.0,0.0,0.0,0.0,0.0,0.0,0.0,0.0,0.0,0.0,0.0,0.0,0.0,0.0,0.0,0.0,0.0,0.0,0.0,0.0,0.0,0.0,0.0,0.0,0.0,0.0,0.0,0.8831,0.859,0.8482,0.8495,0.8429,0.7976,0.0,0.0,0.0,0.0,0.0,0.0,0.0,0.0,0.0,0.0,0.0,0.0,0.0,0.0,0.0,0.0,0.0,0.0,0.0,0.0,0.0,0.0,0.0,0.0,0.0,0.0,0.0,0.0,0.0,0.0,0.0,0.0,0.0,0.0,0.0,0.0,0.0,0.0,0.0,0.0,0.0,0.0,0.0,0.0,0.0,0.0,0.0,0.0,0.0,0.0,0.0,0.0,0.0,0.0,0.0,0.0,0.0,0.0,0.0,0.0,0.0,0.0,0.0,0.0,0.0,0.0,0.0,0.0,0.0,0.0,0.0,0.0,0.0,0.0,0.0,0.0,0.0,0.0,0.0,0.0,0.0,0.0,0.0,0.0,0.0,0.0,0.0,0.0,0.0,0.0,0.0,0.0,0.0,0.0,0.0,0.0,0.0,0.0,0.0,0.0,0.0,0.0,0.0,0.0,0.0,0.0,0.0,0.0,0.0,0.9084,0.9259,0.9367,0.9339,0.8938,0.8364,0.0,0.0,0.0,0.0,0.0,0.0,0.0,0.0,0.0,0.0,0.0,0.0,0.0,0.0,0.0,0.0,0.0,0.0,0.0,0.0,0.0,0.0,0.0,0.0,0.0,0.0,0.0,0.0,0.0,0.0,0.0,0.0,0.0,0.0,0.0,0.0,0.0,0.0,0.0,0.0,0.0,0.0,0.0,0.0,0.0,0.0,0.0,0.0,0.0,0.0,0.0,0.0,0.0,0.0,0.0,0.0,0.0,0.0,0.0,0.0,0.0,0.0,0.0,0.0,0.0,0.0,0.0,0.0,0.0,0.0,0.0,0.0,0.0,0.0,0.0,0.0,0.0,0.0,0.0,0.0,0.0,0.0,0.0,0.0,0.0,0.0,0.0,0.0,0.0,0.0,0.0,0.0,0.0,0.0,0.0,0.0,0.0,0.0,0.0,0.0,0.0,0.0,0.0,0.0,0.0,0.0,0.0,0.0,0.9231,0.978,1.0102,1.0234,1.0249,0.9418,0.8711,0.0,0.0,0.0,0.0,0.0,0.0,0.0,0.0,0.0,0.0,0.0,0.0,0.0,0.0,0.0,0.0,0.0,0.0,0.0,0.0,0.0,0.0,0.0,0.0,0.0,0.0,0.0,0.0,0.0,0.0,0.0,0.0,0.0,0.0,0.0,0.0,0.0,0.0,0.0,0.0,0.0,0.0,0.0,0.0,0.0,0.0,0.0,0.0,0.0,0.0,0.0,0.0,0.0,0.0,0.0,0.0,0.0,0.0,0.0,0.0,0.0,0.0,0.0,0.0,0.0,0.0,0.0,0.0,0.0,0.0,0.0,0.0,0.0,0.0,0.0,0.0,0.0,0.0,0.0,0.0,0.0,0.0,0.0,0.0,0.0,0.0,0.0,0.0,0.0,0.0,0.0,0.0,0.0,0.0,0.0,0.0,0.0,0.0,0.0,0.0,0.0,0.0,0.0,0.0,0.0,0.0,0.0,0.0,0.9712,1.0573,1.0891,1.1035,1.1025,0.9952,0.9071,0.0,0.0,0.0,0.0,0.0,0.0,0.0,0.0,0.0,0.0,0.0,0.0,0.0,0.0,0.0,0.0,0.0,0.0,0.0,0.0,0.0,0.0,0.0,0.0,0.0,0.0,0.0,0.0,0.0,0.0,0.0,0.0,0.0,0.0,0.0,0.0,0.0,0.0,0.0,0.0,0.0,0.0,0.0,0.0,0.0,0.0,0.0,0.0,0.0,0.0,0.0,0.0,0.0,0.0,0.0,0.0,0.0,0.0,0.0,0.0,0.0,0.0,0.0,0.0,0.0,0.0,0.0,0.0,0.0,0.0,0.0,0.0,0.0,0.0,0.0,0.0,0.0,0.0,0.0,0.0,0.0,0.0,0.0,0.0,0.0,0.0,0.0,0.0,0.0,0.0,0.0,0.0,0.0,0.0,0.0,0.0,0.0,0.0,0.0,0.0,0.0,0.0,0.0,0.0,0.0,0.0,0.0,0.0,1.014,1.0602,1.1062,1.1329,1.1312,1.0664,0.9886,0.0,0.0,0.0,0.0,0.0,0.0,0.0,0.0,0.0,0.0,0.0,0.0,0.0,0.0,0.0,0.0,0.0,0.0,0.0,0.0,0.0,0.0,0.0,0.0,0.0,0.0,0.0,0.0,0.0,0.0,0.0,0.0,0.0,0.0,0.0,0.0,0.0,0.0,0.0,0.0,0.0,0.0,0.0,0.0,0.0,0.0,0.0,0.0,1.0137,0.0,0.0,0.0,0.0,0.0,0.0,0.0,0.0,0.0,0.0,0.0,0.0,0.0,0.0,0.0,0.0,0.0,0.0,0.0,0.0,0.0,0.0,0.0,0.0,0.0,0.0,0.0,0.0,0.0,0.0,0.0,0.0,0.0,0.0,0.0,0.0,0.0,0.0,0.0,0.0,0.0,0.0,0.0,0.0,0.0,0.0,0.0,0.0,0.0,0.0,0.0,0.0,0.0,0.0,0.0,0.0,0.0,0.0,0.0,1.0528,1.0972,1.1396,1.1637,1.1623,1.1213,1.0488,0.0,0.0,0.0,0.0,0.0,0.0,0.0,0.0,0.0,0.0,0.0,0.0,0.0,0.0,0.0,0.0,0.0,0.0,0.0,0.0,0.0,0.0,0.0,0.0,0.0,0.0,0.0,0.0,0.0,0.0,0.0,0.0,0.0,0.0,0.0,0.0,0.0,0.0,0.0,0.0,0.0,0.0,0.0,0.0,0.0,0.0,0.0,0.0,0.0,0.0,0.0,0.0,0.0,0.0,0.0,0.0,0.0,0.0,0.0,0.0,0.0,0.0,0.0,0.0,0.0,0.0,0.0,0.0,0.0,0.0,0.0,0.0,0.0,0.0,0.0,0.0,0.0,0.0,0.0,0.0,0.0,0.0,0.0,0.0,0.0,0.0,0.0,0.0,0.0,0.0,0.0,0.0,0.0,0.0,0.0,0.0,0.0,0.0,0.0,0.0,0.0,0.0,0.0,0.0,0.0,0.0,0.0,1.0154,1.0905,1.1392,1.1757,1.1966,1.1948,1.161,1.0915,0.9875,0.0,0.0,0.0,0.0,0.0,0.0,0.0,0.0,0.0,0.0,0.0,0.0,0.0,0.0,0.0,0.0,0.0,0.0,0.0,0.0,0.0,0.0,0.0,0.0,0.0,0.0,0.0,0.0,0.0,0.0,0.0,0.0,0.0,0.0,0.0,0.0,0.0,0.0,0.8532,0.9432,0.0,0.0,0.0,0.0,0.0,0.0,0.0,0.0,1.1909,0.0,0.0,0.0,0.0,0.0,0.0,0.0,0.0,0.0,0.0,0.0,0.0,0.0,0.0,0.0,0.0,0.0,0.0,0.0,0.0,0.0,0.0,0.0,0.0,0.0,0.0,0.0,0.0,0.0,0.0,0.0,0.0,0.0,0.0,0.0,0.0,0.0,0.0,0.0,0.0,0.0,0.0,0.0,0.0,0.0,0.0,0.0,0.0,0.0,0.0,0.0,0.0,0.0,0.0,0.0,0.0,0.9217,1.0354,1.1072,1.1406,1.1957,1.2238,1.2229,1.1686,1.1102,1.0452,0.0,0.0,0.0,0.0,0.0,0.0,0.0,0.0,0.0,0.0,0.0,0.0,0.0,0.0,0.0,0.0,0.0,0.0,0.0,0.0,0.0,0.0,0.0,0.0,0.0,0.0,0.0,0.0,0.0,0.0,0.0,0.0,0.0,0.0,0.0,0.0,0.0,0.0,0.0,1.0139,1.0538,0.0,0.0,0.0,0.0,0.0,0.0,0.0,0.0,1.1875,0.0,0.0,0.0,0.0,0.0,0.0,0.0,0.0,0.0,0.0,0.0,0.0,0.0,0.0,0.0,0.0,0.0,0.0,0.0,0.0,0.0,0.0,0.0,0.0,0.0,0.0,0.0,0.0,0.0,0.0,0.0,0.0,0.0,0.0,0.0,0.0,0.0,0.0,0.0,0.0,0.0,0.0,0.0,0.0,0.0,0.0,0.0,0.0,0.0,0.0,0.0,0.0,0.0,0.0,0.0,0.9698,1.0669,1.1356,1.165,1.2078,1.2305,1.2291,1.1713,1.1156,0.0,0.0,0.0,0.0,0.0,0.0,0.0,0.0,0.0,0.0,0.0,0.0,0.0,0.0,0.0,0.0,0.0,0.0,0.0,0.0,0.0,0.0,0.0,0.0,0.0,0.0,0.0,0.0,0.0,0.0,0.0,0.0,0.0,0.0,0.0,0.0,0.0,0.0,0.0,0.0,1.0583,1.1122,1.1286,0.0,0.0,0.0,0.0,0.0,0.0,1.2146,1.2117,0.0,0.0,0.0,0.0,0.0,0.0,0.0,0.0,0.0,0.0,0.0,0.0,0.0,0.0,0.0,0.0,0.0,0.0,0.0,0.0,0.0,0.0,0.0,0.0,0.0,0.0,0.0,0.0,0.0,0.0,0.0,0.0,0.0,0.0,0.0,0.0,0.0,0.0,0.0,0.0,0.0,0.0,0.0,0.0,0.0,0.0,0.0,0.0,0.0,0.0,0.0,0.0,0.0,0.0,0.0,1.0007,1.0867,1.1492,1.1908,1.213,1.2294,1.2371,1.1735,1.1156,0.0,0.0,0.0,0.0,0.0,0.0,0.0,0.0,0.0,0.0,0.0,0.0,0.0,0.0,0.0,0.0,0.0,0.0,0.0,0.0,0.0,0.0,0.0,0.0,0.0,0.0,0.0,0.0,0.0,0.0,0.0,0.0,0.0,0.0,0.0,0.0,0.0,0.0,0.0,0.0,0.0,1.1573,1.1704,1.2222,0.0,0.0,0.0,0.0,1.2815,1.2495,0.0,0.0,0.0,0.0,0.0,0.0,0.0,0.0,0.0,0.0,0.0,0.0,0.0,0.0,0.0,0.0,0.0,0.0,0.0,0.0,0.0,0.0,0.0,0.0,0.0,0.0,0.0,0.0,0.0,0.0,0.0,0.0,0.0,0.0,0.0,0.0,0.0,0.0,0.0,0.0,0.0,0.0,0.0,0.0,0.0,0.0,0.0,0.0,0.0,0.0,0.0,0.0,0.0,0.0,0.0,0.0,0.9658,1.052,1.1286,1.1936,1.202,1.2239,1.2717,1.1877,1.1139,0.0,0.0,0.0,0.0,0.0,0.0,0.0,0.0,0.0,0.0,0.0,0.0,0.0,0.0,0.0,0.0,0.0,0.0,0.0,0.0,0.0,0.0,0.0,0.0,0.0,0.0,0.0,0.0,0.0,0.0,0.0,0.0,0.0,0.0,0.0,0.0,0.0,0.0,0.0,0.0,0.0,1.1526,1.2054,1.2062,1.2003,0.0,0.0,1.2088,1.2257,1.2385,0.0,0.0,0.0,0.0,0.0,0.0,0.0,0.0,0.0,0.0,0.0,0.0,0.0,0.0,0.0,0.0,0.0,0.0,0.0,0.0,0.0,0.0,0.0,0.0,0.0,0.0,0.0,0.0,0.0,0.0,0.0,0.0,0.0,0.0,0.0,0.0,0.0,0.0,0.0,0.0,0.0,0.0,0.0,0.0,0.0,0.0,0.0,0.0,0.0,0.0,0.0,0.0,0.0,0.0,0.0,0.8864,0.9809,1.0695,1.1431,1.2055,1.2203,1.2325,1.2395,1.1689,1.1057,0.0,0.0,0.0,0.0,0.0,0.0,0.0,0.0,0.0,0.0,0.0,0.0,0.0,0.0,0.0,0.0,0.0,0.0,0.0,0.0,0.0,0.0,0.0,0.0,0.0,0.0,0.0,0.0,0.0,0.0,0.0,0.0,0.0,0.0,0.0,0.0,0.0,0.0,0.0,0.0,0.0,0.0,1.2565,1.2813,0.0,0.0,0.0,1.3,1.3093,0.0,0.0,0.0,0.0,0.0,0.0,0.0,0.0,0.0,0.0,0.0,0.0,0.0,0.0,0.0,0.0,0.0,0.0,0.0,0.0,0.0,0.0,0.0,0.0,0.0,0.0,0.0,0.0,0.0,0.0,0.0,0.0,0.0,0.0,0.0,0.0,0.0,0.0,0.0,0.0,0.0,0.0,0.0,0.0,0.0,0.0,0.0,0.0,0.0,0.0,0.0,0.0,0.0,0.0,0.0,0.0,0.0,0.9975,1.0761,1.1482,1.2137,1.2312,1.2364,1.224,1.17,0.0,0.0,0.0,0.0,0.0,0.0,0.0,0.0,0.0,0.0,0.0,0.0,0.0,0.0,0.0,0.0,0.0,0.0,0.0,0.0,0.0,0.0,0.0,0.0,0.0,0.0,0.0,0.6374,0.0,0.0,0.0,0.0,0.0,0.0,0.0,0.0,0.0,0.0,0.0,0.0,0.0,0.0,1.2917,1.3121,1.3493,1.3778,0.0,0.0,1.3847,1.3744,1.3416,1.3112,0.0,0.0,0.0,0.0,0.0,0.0,0.0,0.0,0.0,0.0,0.0,0.0,0.0,0.0,0.0,0.0,0.0,0.0,0.0,0.0,0.0,0.0,0.0,0.0,0.0,0.0,0.0,0.0,0.0,0.0,0.0,0.0,0.0,0.0,0.0,0.0,0.0,0.0,0.0,0.0,0.0,0.0,0.0,0.0,0.0,0.0,0.0,0.0,0.0,0.0,0.0,0.0,0.0,0.0,0.8848,0.9886,1.0459,1.1236,1.2224,1.2234,1.2313,1.2559,1.1986,1.127,0.0,0.0,0.0,0.0,0.0,0.0,0.0,0.0,0.0,0.0,0.0,0.0,0.0,0.0,0.0,0.0,0.0,0.0,0.0,0.0,0.0,0.0,0.0,0.0,0.0,0.0,0.0,0.0,0.0,0.0,0.0,0.0,0.0,0.0,0.0,0.0,0.0,0.0,0.0,0.0,0.0,1.2933,1.3722,1.3709,1.3728,0.0,1.4091,1.3976,1.3675,1.3736,1.3654,1.3094,0.0,0.0,0.0,0.0,0.0,0.0,0.0,0.0,0.0,0.0,0.0,0.0,0.0,0.0,0.0,0.0,0.0,0.0,0.0,0.0,0.0,0.0,0.0,0.0,0.0,0.0,0.0,0.0,0.0,0.0,0.0,0.0,0.0,0.0,0.0,0.0,0.0,0.0,0.0,0.0,0.0,0.0,0.0,0.0,0.0,0.0,0.0,0.0,0.0,0.0,0.0,0.0,0.0,0.9083,1.013,1.0827,1.1547,1.2266,1.2448,1.249,1.2412,1.1876,1.1218,0.0,0.0,0.0,0.0,0.0,0.0,0.0,0.0,0.0,0.0,0.0,0.0,0.0,0.0,0.0,0.0,0.0,0.0,0.0,0.0,0.0,0.0,0.0,0.0,0.0,0.0,0.0,0.0,0.7923,0.815,0.8581,0.0,0.0,0.0,0.0,0.0,0.0,0.0,0.0,0.0,0.0,1.3723,1.4193,1.4378,0.0,0.0,1.4651,1.4611,1.4469,1.4352,1.4193,1.3964,1.3838,0.0,0.0,0.0,0.0,0.0,0.0,0.0,0.0,0.0,0.0,0.0,0.0,0.0,0.0,0.0,0.0,0.0,0.0,0.0,0.0,0.0,0.0,0.0,0.0,0.0,0.0,0.0,0.0,0.0,0.0,0.0,0.0,0.0,0.0,0.0,0.0,0.0,0.0,0.0,0.0,0.0,0.0,0.0,0.0,0.0,0.0,0.0,0.0,0.0,0.0,0.0,0.0,0.9448,1.0406,1.1128,1.1798,1.2421,1.2614,1.2614,1.2421,1.1978,1.1421,0.0,0.0,0.0,0.0,0.0,0.0,0.0,0.0,0.0,0.0,0.0,0.0,0.0,0.0,0.0,0.0,0.0,0.0,0.0,0.0,0.0,0.0,0.0,0.0,0.0,0.0,0.0,0.0,0.8488,0.8708,0.9045,0.0,0.0,0.0,0.0,0.0,0.0,0.0,0.0,0.0,0.0,1.4482,1.4834,1.5164,1.5401,1.5494,1.5508,1.5481,1.5387,1.52,1.5017,1.4901,0.0,0.0,0.0,0.0,0.0,0.0,0.0,0.0,0.0,0.0,0.0,0.0,0.0,0.0,0.0,0.0,0.0,0.0,0.0,0.0,0.0,0.0,0.0,0.0,0.0,0.0,0.0,0.7384,0.0,0.0,0.6971,0.0,0.0,0.0,0.0,0.0,0.0,0.0,0.0,0.0,0.0,0.0,0.0,0.0,0.0,0.0,0.0,0.0,0.0,0.0,0.0,0.0,0.0,0.9872,1.0671,1.1217,1.1906,1.2653,1.2711,1.2689,1.2665,1.2412,1.1914,1.1105,0.0,0.0,0.0,0.0,0.0,0.0,0.0,0.0,0.0,0.0,0.0,0.0,0.0,0.0,0.0,0.0,0.0,0.0,0.0,0.0,0.0,0.0,0.0,0.0,0.0,0.0,0.8804,0.934,0.966,0.0,0.0,0.0,0.0,0.0,0.0,0.0,0.0,0.0,0.0,1.4598,1.5186,1.5701,1.6059,1.6351,1.6607,1.666,1.6567,1.631,1.627,1.6139,0.0,0.0,0.0,0.0,0.0,0.0,0.0,0.0,0.0,0.0,0.0,0.0,0.0,0.0,0.0,0.0,0.0,0.0,0.0,0.0,0.0,0.0,0.0,0.0,0.0,0.0,0.0,0.9344,0.9051,0.0,0.0,0.0,0.0,0.0,0.0,0.0,0.0,0.0,0.0,0.0,1.045,1.0462,0.0,0.0,0.0,0.0,0.0,0.0,0.0,0.0,0.0,0.0,0.0,0.0,1.0205,1.0827,1.15,1.2057,1.2485,1.2637,1.2703,1.2705,1.2423,1.1916,1.1123,0.0,0.0,0.0,0.0,0.0,0.0,0.0,0.0,0.0,0.0,0.0,0.0,0.0,0.0,0.0,0.0,0.0,0.0,0.0,0.0,0.0,0.0,0.0,0.0,0.0,0.9487,0.0,0.0,0.0,0.0,0.0,0.0,0.0,0.0,0.0,0.0,0.0,1.4175,1.487,1.5494,1.6003,1.6366,1.6698,1.6938,0.0,0.0,0.0,0.0,0.0,0.0,0.0,0.0,0.0,0.0,0.0,0.0,0.0,0.0,1.6143,1.517,1.4772,1.4569,1.4548,0.0,0.0,0.0,0.0,0.0,0.0,0.0,0.0,0.0,0.0,0.0,0.0,0.0,0.0,1.0623,0.0,0.998,0.0,0.0,0.0,0.0,0.0,0.0,0.0,0.0,1.0213,1.0506,1.0941,1.0952,1.0932,0.0,1.0871,1.0275,0.0,0.0,0.0,0.0,0.0,0.0,0.0,0.0,1.0538,1.1138,1.1699,1.2221,1.2598,1.2689,1.2746,1.2835,1.2407,1.1857,1.115,1.0551,0.9968,0.0,0.0,0.0,0.0,0.0,0.0,0.0,0.0,0.0,0.0,0.0,0.0,0.0,0.0,0.0,0.0,0.0,0.0,0.0,0.0,0.0,0.0,0.0,1.0071,0.0,0.0,0.0,0.0,0.0,0.0,0.0,0.0,0.0,1.382,1.4567,1.5311,1.5792,1.6446,1.6954,1.7141,0.0,0.0,0.0,0.0,0.0,0.0,0.0,1.7903,1.7929,1.7983,1.809,1.821,1.8224,1.8237,1.8224,0.0,0.0,1.6406,1.6029,1.5896,1.5896,1.5991,1.6092,1.6319,1.6467,1.6755,0.0,0.0,0.0,0.0,0.0,0.0,0.0,0.0,1.1672,1.1443,0.0,1.0713,0.0,0.0,0.0,0.0,0.0,1.0283,0.0,0.0,1.0804,1.0963,1.1196,1.1196,1.1207,1.1185,1.1022,1.0769,1.046,0.9956,0.0,0.0,0.0,0.0,0.0,0.0,1.0852,1.1534,1.1839,1.2315,1.3006,1.2802,1.279,1.3041,1.2382,1.1769,1.1257,1.0993,1.0594,1.002,0.9439,0.0,0.0,0.0,0.0,0.0,0.0,0.0,0.0,0.0,0.0,0.0,0.0,0.0,0.0,0.0,0.0,0.0,0.0,0.0,0.0,1.0151,0.0,0.0,0.0,0.0,0.0,0.0,0.0,0.0,0.0,0.0,1.502,1.5792,1.6406,1.6688,0.0,0.0,0.0,0.0,1.8517,1.8531,1.8544,1.8544,1.8557,1.8585,1.8557,1.8557,0.0,0.0,1.9361,1.9415,1.9401,1.9415,1.9388,1.9053,1.7916,1.7662,1.7635,1.7635,1.7622,1.7648,1.7635,1.7661,1.7809,1.4004,0.0,0.0,0.0,0.0,1.3054,1.3069,1.3025,1.2755,1.2586,1.2494,1.178,0.0,0.0,0.0,0.0,0.0,0.0,1.0923,1.0825,1.1139,1.1309,1.1356,1.1332,1.1332,1.1356,1.1284,1.1067,1.0702,1.036,0.9945,0.946,0.0,0.0,0.0,0.0,1.0679,1.0919,1.1429,1.1827,1.2026,1.2143,1.2334,1.2603,1.2335,1.2059,1.178,1.1521,1.1069,1.0391,0.9979,0.0,0.0,0.0,0.0,0.0,0.0,0.0,0.0,0.0,0.0,0.0,0.0,0.0,0.0,0.0,0.0,0.0,0.0,0.0,1.0682,1.1436,1.1974,0.0,0.0,0.0,0.0,0.0,0.0,0.0,0.0,0.0,1.6676,1.6665,1.678,0.0,0.0,1.8437,1.8623,1.8918,1.9214,1.9399,1.9599,0.0,1.9703,1.9703,1.9703,1.9733,1.977,1.985,1.9943,1.9987,1.9987,1.9987,1.9957,1.9823,1.9546,1.9132,1.8906,1.8893,1.8879,1.8879,1.8879,1.8893,1.8986,1.5444,1.4897,1.4356,1.4096,1.4084,1.4102,1.4097,1.4048,1.3662,1.3388,1.3178,1.2474,1.2005,1.171,1.1187,0.0,0.0,0.0,1.1024,1.0899,1.1135,1.1258,1.1225,1.12,1.12,1.12,1.1225,1.1022,1.0688,1.0442,1.0133,0.9779,0.0,0.0,0.9807,1.0197,1.0502,1.0677,1.1095,1.134,1.1442,1.1716,1.1879,1.1918,1.1984,1.1914,1.1728,1.1563,1.1281,1.0837,1.0431,0.9944,0.0,0.0,0.0,0.0,0.0,0.0,0.0,0.0,0.0,0.0,0.0,0.8476,0.8711,0.0,0.0,0.0,1.0353,1.0918,1.1429,1.2047,0.0,0.0,0.0,0.0,0.0,0.0,0.0,1.5416,1.5818,1.6354,1.7159,1.7079,1.7227,1.7976,1.85,1.8834,1.9004,0.0,1.9374,1.9528,1.9685,1.9802,1.9802,1.9802,1.9842,1.9972,2.0016,2.0038,2.0129,2.0155,2.0195,2.0286,2.0406,2.0539,2.0658,2.0518,2.0258,1.98,1.9706,1.9706,1.9706,1.9736,1.98,1.6631,1.6338,1.5406,1.5054,1.5101,1.5074,1.5036,1.497,1.4375,1.3821,1.3381,1.2858,1.2181,1.149,1.116,0.0,1.0996,1.1031,1.0978,1.0952,1.0915,1.0862,1.0862,1.0845,1.0845,1.0836,1.0828,1.068,1.0454,1.0228,1.0136,1.012,0.9888,0.9866,1.0053,1.0084,1.0269,1.0663,1.0691,1.0817,1.1091,1.137,1.1395,1.1187,1.1392,1.1448,1.1287,1.1262,1.1283,1.1241,1.0786,1.0409,1.0119,0.0,0.0,0.0,0.0,0.0,0.0,0.0,0.0,0.0,0.0,0.0,0.0,0.0,0.0,1.0119,1.0815,0.0,1.1878,1.2203,0.0,0.0,0.0,1.3432,1.4154,1.4259,1.4631,1.5603,0.0,0.0,1.6782,1.7104,1.7648,1.8564,1.8963,1.9163,1.9175,1.9236,1.9262,1.9318,1.9287,1.9287,1.9399,1.9425,1.954,1.9813,1.9776,1.9934,2.0151,2.0202,2.0284,2.0462,2.0799,2.1046,2.1299,2.1542,2.1611,2.0482,2.034,2.0357,2.0384,2.0384,2.0477,1.5659,1.5586,1.5307,1.558,1.6097,1.5605,1.5304,1.5113,1.4445,1.3911,1.3464,1.2909,1.2253,1.1496,1.1416,1.1229,1.0998,1.114,1.0979,1.0555,1.0687,1.0654,1.0437,1.0465,1.0465,1.0429,1.0277,1.0127,0.9961,0.9766,0.9621,0.9524,0.9452,0.9542,0.9778,0.9785,0.9733,0.9659,0.9802,1.0026,1.029,1.056,1.073,1.0904,1.0952,1.1076,1.1199,1.1073,1.0933,1.0775,1.0783,1.0601,1.019,0.9969,0.0,0.0,0.0,0.0,0.0,0.0,0.0,0.0,0.0,0.9736,1.0122,0.0,1.1018,0.0,1.1701,1.2069,1.2124,1.2684,0.0,0.0,1.3528,1.3991,1.4526,1.4591,1.4893,1.568,1.5777,1.6002,1.6576,1.6954,1.7303,1.7768,1.84,1.8901,1.9088,1.9399,1.963,1.9808,1.9827,1.9871,1.9852,2.0049,2.0157,2.031,2.0455,2.0633,2.0697,2.0709,2.0722,2.0786,2.0864,2.0956,2.1032,2.1317,2.145,2.1208,2.1382,2.1563,2.1563,2.155,2.1577,1.5123,1.5123,1.5123,1.5395,1.5772,1.5502,1.5345,1.5211,1.454,1.4004,1.3499,1.248,1.1783,1.1352,1.1092,1.0867,1.0707,1.081,1.0679,1.0374,1.0465,1.0445,1.0308,1.0308,1.0308,1.0301,1.0183,1.0008,0.9807,0.9684,0.9588,0.9435,0.9363,0.9343,0.9489,0.9496,0.9439,0.9314,0.9408,0.9538,0.9682,0.9979,1.0212,1.0361,1.0531,1.0702,1.0859,1.0726,1.0673,1.0671,1.0621,1.0511,1.0377,1.0061,0.9764,0.0,0.0,0.0,0.0,0.0,0.0,0.0,0.0,0.0,0.0,0.0,1.1455,1.174,1.202,1.2237,1.2254,1.2679,1.3016,1.3116,1.3427,1.3847,1.4308,1.4329,1.457,1.5195,1.5256,1.5482,1.6019,1.6357,1.6656,1.6934,1.7551,1.8143,1.8538,1.8811,1.8998,1.9144,1.9277,1.9411,1.9475,1.9653,1.975,1.9763,1.9872,1.9969,1.9969,2.0102,2.0239,2.0349,2.0621,2.0894,2.1007,2.1336,2.1572,2.1639,2.1874,2.2071,2.2011,2.2024,2.2024,1.4852,1.4842,1.4824,1.4805,1.481,1.5052,1.5148,1.5128,1.4471,1.3942,1.3419,1.1942,1.1245,1.1158,1.0638,1.0368,1.0339,1.0317,1.028,1.0222,1.0251,1.0222,1.0244,1.0222,1.0244,1.0251,1.0229,1.0048,0.9757,0.9765,0.968,0.9575,0.9391,0.9285,0.9233,0.9285,0.9255,0.9201,0.922,0.9227,0.9253,0.9569,0.973,0.9724,1.0054,1.0266,1.0314,1.0277,1.0386,1.0687,1.0374,1.0311,1.0508,0.9985,0.9657,0.0,0.937,0.0,0.0,0.0,0.0,0.0,0.0,0.0,0.0,1.1428,1.173,1.2077,1.2118,1.2185,1.2302,1.2441,1.2644,1.2809,1.3011,1.3287,1.3717,1.3803,1.4054,1.4487,1.4534,1.477,1.5283,1.5532,1.5815,1.6092,1.6547,1.7074,1.7554,1.7856,1.8029,1.7974,1.8123,1.8437,1.8618,1.8676,1.8743,1.8788,1.8901,1.8822,1.8992,1.9216,1.9443,1.9722,2.0191,2.0696,2.0997,2.1333,2.1644,2.1653,2.1949,2.2162,2.2104,2.2151,2.2131,1.4503,1.4485,1.4383,1.4321,1.4336,1.4226,1.423,1.4308,1.3925,1.3291,1.2543,1.1947,1.151,1.1184,1.0957,1.0713,1.0469,1.0333,1.0155,0.9891,0.9891,0.9914,0.9884,0.9891,0.9884,0.9877,0.9804,0.9683,0.9623,0.953,0.9454,0.9427,0.9393,0.9365,0.9367,0.0,0.0,0.0,0.8879,0.8965,0.8991,0.925,0.9342,0.9239,0.9302,0.0,0.9731,0.9599,0.974,1.0195,1.0171,0.0,0.0,0.0,0.0,0.0,0.0,0.0,0.0,0.0,0.0,0.0,1.0781,1.1029,1.1453,1.1893,1.2139,1.2183,1.2165,1.2246,1.2356,1.2325,1.2337,1.2496,1.2675,1.2881,1.3135,1.3456,1.3831,1.4214,1.4259,1.4372,1.4576,1.4869,1.5082,1.5217,1.5526,1.5822,1.5991,1.6959,1.7605,1.7683,1.7693,1.7759,1.7802,1.802,1.8242,1.8538,1.8842,1.9035,1.9277,1.9416,1.9531,1.9611,1.975,1.9958,2.0272,2.0631,2.0977,2.1254,2.1622,2.1975,2.2214,2.2481,2.2733,1.3608,1.36,1.3339,1.323,0.0,1.3043,1.3013,1.3087,1.3167,1.2726,1.1883,1.1488,1.1197,1.0975,1.0762,1.0538,1.0412,1.0329,1.0232,1.0046,1.0046,1.0053,1.0046,0.9971,0.99,0.99,0.9751,0.9713,0.9713,0.9639,0.9564,0.9496,0.9496,0.9456,0.941,0.941,0.922,0.8845,0.8886,0.8905,0.8898,0.9115,0.9169,0.9081,0.9164,0.0,0.0,0.0,0.0,0.0,0.0,0.0,0.0,0.9765,0.0,0.9611,0.9503,0.9476,0.955,0.9608,0.9843,1.0326,1.0662,1.1084,1.1657,1.1942,1.2016,1.1956,1.1875,1.1806,1.1797,1.1756,1.1782,1.1949,1.2052,1.2234,1.248,1.27,1.2904,1.3165,1.34,1.3577,1.3805,1.4276,1.4595,1.4777,1.5074,1.5232,1.5327,1.5986,1.6628,1.6943,1.7008,1.7118,1.7403,1.7531,1.7684,1.7924,1.8068,1.8236,1.8422,1.8633,1.8808,1.8947,1.9168,1.9401,1.975,2.004,2.0284,2.0596,2.0977,2.1358,2.1691,2.2207,2.2619,1.2801,1.2766,1.239,1.2271,1.2229,1.2108,1.1985,1.1948,0.0,0.0,0.0,1.1048,1.0838,1.0767,1.0458,1.0349,1.0349,1.0322,1.0308,1.0308,1.0308,1.0308,1.0301,1.0123,1.0055,1.0055,0.9964,0.9859,0.9832,0.9832,0.9758,0.9659,0.9646,0.9585,0.9492,0.9435,0.939,0.926,0.9089,0.8973,0.8974,0.9044,0.9082,0.9033,0.9145,0.9138,0.9079,0.9046,0.9114,0.9212,0.9147,0.9247,0.9447,0.9414,0.9405,0.9411,0.9436,0.9421,0.9494,0.9613,0.9769,0.9965,1.0509,1.1069,1.1591,1.1661,1.1673,1.1614,1.1472,1.1338,1.1251,1.117,1.1236,1.1423,1.1467,1.1633,1.1884,1.1992,1.2161,1.2276,1.2589,1.2881,1.3197,1.3622,1.4062,1.429,1.4391,1.4652,1.476,1.5129,1.565,1.6025,1.6132,1.6329,1.6721,1.683,1.6921,1.6936,1.6981,1.7026,1.7203,1.7439,1.7791,1.8153,1.8468,1.8819,1.9262,1.9367,1.9541,1.9936,2.0249,2.0608,2.1026,2.1628,2.2091,1.2793,1.2778,1.2537,1.2485,1.247,1.2264,1.1952,1.1576,1.1818,1.1703,1.1245,1.119,1.0986,1.0715,1.0553,1.0466,1.0453,1.0337,1.0308,1.0308,1.0308,1.0308,1.0276,1.0256,1.0281,1.0243,1.0222,1.0148,1.0001,0.9988,0.9913,0.9778,0.9765,0.9744,0.9717,0.9639,0.9564,0.9544,0.9395,0.9281,0.9152,0.9187,0.905,0.8777,0.8777,0.8821,0.8917,0.8929,0.9052,0.9265,0.9265,0.9283,0.9335,0.9343,0.9369,0.947,0.9485,0.962,0.987,0.9922,1.0159,1.0606,1.0837,1.0973,1.0959,1.1148,1.1258,1.1256,1.1247,1.129,1.1406,1.1203,1.1073,1.123,1.1407,1.1514,1.1571,1.1918,1.2195,1.2392,1.252,1.2642,1.2846,1.2978,1.31,1.3108,1.3302,1.3289,1.3674,1.4397,1.5017,1.5177,1.5186,1.523,1.5461,1.5363,1.5576,1.5789,1.5886,1.6108,1.6593,1.677,1.6981,1.7414,1.752,1.7836,1.8433,1.8573,1.8876,1.9435,1.9726,1.9959,2.0497,2.1016,2.1496,1.2474,1.2431,1.2151,1.2009,1.2002,1.1846,1.1614,1.1371,1.143,1.127,1.0956,1.0916,1.085,1.0677,1.0649,1.0616,1.0609,1.0548,1.0521,1.0521,1.0521,1.0521,1.0514,1.0432,1.0431,1.0392,1.0349,1.0274,1.015,1.0175,1.0141,1.0066,0.9961,0.9873,0.9792,0.9724,0.9697,0.969,0.9496,0.9376,0.9308,0.9301,0.9199,0.8981,0.8981,0.89,0.8781,0.8801,0.8812,0.8853,0.8996,0.9081,0.9088,0.9243,0.9391,0.9426,0.9433,0.9497,0.9674,0.9807,1.0026,1.0353,1.0594,1.0707,1.0629,1.0916,1.1066,1.1105,1.0984,1.0965,1.1068,1.0911,1.0908,1.1027,1.1117,1.1254,1.1441,1.1622,1.1839,1.1981,1.2194,1.2365,1.2466,1.2653,1.2789,1.2789,1.2789,1.286,1.3003,1.3432,1.4047,1.4581,1.4724,1.4803,1.4946,1.5017,1.5079,1.5257,1.5292,1.5399,1.5753,1.5789,1.6072,1.6567,1.6709,1.6991,1.7671,1.7905,1.8312,1.8946,1.928,1.958,2.0184,2.0814,2.1474,1.2171,1.2064,1.1775,1.1611,1.1577,1.1491,1.1355,1.1254,1.1247,1.1063,1.0839,1.0752,1.0738,1.0738,1.0704,1.0717,1.0717,1.0717,1.0717,1.0717,1.0717,1.0717,1.0711,1.0595,1.0541,1.0527,1.0432,1.0365,1.0331,1.0363,1.031,1.0301,1.013,1.0008,0.993,0.9859,0.9839,0.9825,0.9612,0.9499,0.9435,0.9435,0.939,0.9247,0.9262,0.9124,0.8879,0.8859,0.8811,0.8736,0.8913,0.9014,0.9021,0.9252,0.9424,0.9458,0.9464,0.9462,0.9537,0.9774,0.9992,1.0103,1.0358,1.0507,1.0567,1.0769,1.0932,1.0913,1.0774,1.0711,1.0717,1.0751,1.0786,1.0901,1.0982,1.1145,1.1348,1.1423,1.1484,1.1635,1.1871,1.2079,1.2122,1.233,1.2466,1.2466,1.251,1.2538,1.2617,1.2653,1.3118,1.3797,1.4118,1.4154,1.4474,1.4439,1.4474,1.4581,1.4632,1.4765,1.4881,1.4997,1.5256,1.5919,1.6196,1.6501,1.7063,1.7412,1.7837,1.8443,1.8766,1.9242,2.0084,2.0775,2.1481,1.2012,1.186,1.1809,1.1735,1.159,1.1606,1.1511,1.1382,1.1369,1.128,1.1152,1.0955,1.0894,1.0874,1.0752,1.0731,1.0724,1.0724,1.0717,1.0717,1.0717,1.0717,1.0717,1.0704,1.0664,1.069,1.067,1.0588,1.0473,1.0473,1.0405,1.0297,1.0263,1.0281,1.0215,1.0062,0.9994,0.9994,0.9832,0.969,0.9598,0.9591,0.9517,0.9396,0.939,0.9376,0.9293,0.9349,0.9335,0.9328,0.9313,0.9369,0.9369,0.9367,0.9449,0.9585,0.9591,0.967,0.9927,1.0109,1.029,1.0432,1.0473,1.0555,1.0677,1.0723,1.073,1.073,1.0711,1.0717,1.0731,1.0806,1.0894,1.0955,1.1151,1.1369,1.1409,1.1518,1.1606,1.1577,1.1655,1.1655,1.1727,1.1763,1.1756,1.1828,1.1864,1.1943,1.2194,1.2266,1.2373,1.2824,1.2968,1.3003,1.3146,1.3003,1.3289,1.3519,1.3646,1.4035,1.4458,1.4829,1.5157,1.553,1.5884,1.6278,1.6698,1.7131,1.7524,1.7909,1.8362,1.889,1.9867,2.0608,2.1224,1.2064,1.1965,1.1972,1.1884,1.1719,1.1705,1.166,1.1531,1.1525,1.1491,1.1416,1.1274,1.1158,1.107,1.0887,1.0819,1.0813,1.0732,1.0717,1.0717,1.0717,1.0717,1.0717,1.0717,1.0717,1.0717,1.0717,1.069,1.0636,1.0629,1.0548,1.0419,1.0405,1.0365,1.0283,1.0215,1.0188,1.0188,1.0127,1.0066,0.9992,0.9798,0.9666,0.9537,0.9517,0.9499,0.9395,0.941,0.941,0.9417,0.9469,0.9517,0.9517,0.965,0.9771,0.9839,0.9958,1.009,1.0175,1.0324,1.0432,1.0493,1.0575,1.0656,1.0677,1.0717,1.0717,1.0717,1.0717,1.0718,1.0813,1.0874,1.0982,1.1179,1.1321,1.1423,1.1518,1.1579,1.1584,1.1584,1.1584,1.1584,1.1584,1.1584,1.1584,1.1584,1.1584,1.1691,1.1835,1.1835,1.1907,1.2043,1.2079,1.233,1.2653,1.2789,1.286,1.3034,1.3365,1.38,1.3978,1.442,1.4765,1.5189,1.5465,1.5724,1.5974,1.6555,1.6982,1.74,1.8123,1.8775,1.9431,1.9967,2.0493,1.2193,1.2159,1.2118,1.1999,1.1898,1.1898,1.1809,1.1687,1.1638,1.1617,1.1606,1.1504,1.1396,1.1308,1.109,1.0975,1.0961,1.0853,1.0819,1.0752,1.0752,1.0725,1.0724,1.0717,1.0717,1.0717,1.0717,1.0717,1.0717,1.0717,1.0663,1.0568,1.0555,1.0507,1.0405,1.0365,1.0369,1.0331,1.0304,1.0308,1.0274,1.0059,0.9846,0.971,0.9686,0.9582,0.9539,0.9544,0.9564,0.9571,0.9713,0.9795,0.9802,0.9967,1.0082,1.0096,1.0256,1.0369,1.0337,1.0473,1.0555,1.0561,1.0663,1.0717,1.0717,1.0717,1.0704,1.0752,1.0752,1.0806,1.086,1.0988,1.1137,1.1362,1.1416,1.1504,1.1599,1.1584,1.1584,1.1584,1.1584,1.1584,1.1584,1.1584,1.1584,1.1584,1.1584,1.1584,1.1584,1.1619,1.1619,1.1584,1.1619,1.1828,1.2366,1.2402,1.2502,1.2741,1.3033,1.3382,1.361,1.4128,1.4549,1.5023,1.506,1.5268,1.5711,1.6137,1.6625,1.718,1.7832,1.8509,1.8991,1.939,1.9768,1.2406,1.2264,1.2128,1.2111,1.2091,1.2091,1.1965,1.1823,1.1786,1.1748,1.1604,1.1619,1.157,1.1565,1.1287,1.1193,1.1186,1.1166,1.105,1.0914,1.0907,1.0826,1.0724,1.0717,1.0724,1.0724,1.0717,1.0717,1.0717,1.0717,1.0717,1.0704,1.0697,1.0697,1.0663,1.0548,1.0487,1.0473,1.0371,1.0329,1.0322,1.027,1.0181,1.0001,0.9859,0.9815,0.9785,0.9913,0.9981,0.9981,1.0141,1.0261,1.0274,1.0288,1.027,1.029,1.0405,1.0487,1.05,1.0616,1.0697,1.0671,1.0677,1.0724,1.0744,1.0744,1.0765,1.0894,1.0914,1.0934,1.0968,1.1192,1.1341,1.1402,1.1525,1.1599,1.1613,1.1584,1.1584,1.1584,1.1584,1.1584,1.1584,1.1584,1.1584,1.1584,1.1584,1.1584,1.1584,1.1584,1.1584,1.1584,1.1584,1.1619,1.1655,1.1828,1.1979,1.2208,1.2619,1.303,1.3649,1.4186,1.4547,1.4911,1.5176,1.5404,1.5616,1.6015,1.6503,1.7036,1.7483,1.8063,1.8529,1.8936,1.9277,1.2474,1.242,1.2366,1.2298,1.2247,1.221,1.2121,1.1986,1.1979,1.1891,1.1739,1.1719,1.1665,1.1577,1.1504,1.1402,1.1342,1.124,1.1166,1.109,1.109,1.1009,1.0846,1.0833,1.0772,1.0731,1.0717,1.0717,1.0717,1.0717,1.0717,1.0717,1.0717,1.0717,1.0711,1.0637,1.0636,1.0636,1.0582,1.0561,1.0548,1.0466,1.0385,1.0331,1.0195,1.0114,1.0114,1.0168,1.0202,1.0195,1.0249,1.0308,1.0322,1.0365,1.046,1.0555,1.0609,1.0636,1.0643,1.069,1.0717,1.0717,1.0717,1.0738,1.0813,1.0833,1.0894,1.1063,1.1179,1.1191,1.1246,1.1335,1.143,1.1525,1.1543,1.1584,1.1584,1.1584,1.1584,1.1584,1.1584,1.1584,1.1584,1.1584,1.1584,1.1584,1.1584,1.1584,1.1584,1.1584,1.1584,1.1584,1.1584,1.1584,1.1584,1.1619,1.1705,1.1925,1.2269,1.2838,1.3431,1.4075,1.4544,1.4897,1.5237,1.5275,1.5382,1.565,1.6195,1.6739,1.7188,1.7645,1.8111,1.8405,1.8671,1.2537,1.2569,1.2522,1.2447,1.2366,1.2359,1.2277,1.2179,1.2173,1.2084,1.1925,1.1904,1.1786,1.1665,1.1651,1.1606,1.1463,1.139,1.1315,1.1274,1.1274,1.1158,1.1036,1.0982,1.0907,1.0806,1.0738,1.0717,1.0717,1.0717,1.0717,1.0717,1.0717,1.0717,1.0717,1.0717,1.0717,1.0717,1.0717,1.0717,1.0704,1.059,1.0561,1.0555,1.0473,1.0371,1.0322,1.0356,1.0351,1.0358,1.0392,1.0426,1.0432,1.0514,1.0609,1.0671,1.0717,1.0717,1.0717,1.0717,1.0711,1.0759,1.0765,1.0826,1.0961,1.0982,1.109,1.1219,1.1321,1.1402,1.1457,1.1463,1.1511,1.1599,1.1584,1.1584,1.1584,1.1584,1.1584,1.1584,1.1584,1.1584,1.1584,1.1584,1.1584,1.1584,1.1584,1.1584,1.1584,1.1584,1.1584,1.1584,1.1584,1.1584,1.1604,1.1667,1.1653,1.1823,1.2288,1.28,1.3342,1.3961,1.4499,1.4853,1.5006,1.5006,1.5122,1.5352,1.5812,1.6348,1.6768,1.7188,1.7569,1.7873,1.8177,1.2693,1.2672,1.2569,1.2515,1.2501,1.2488,1.2413,1.2305,1.2329,1.2241,1.2074,1.2098,1.1979,1.182,1.178,1.1705,1.1597,1.1586,1.1504,1.1402,1.1396,1.1307,1.1206,1.12,1.109,1.0914,1.0765,1.0698,1.0711,1.0698,1.0717,1.0717,1.0717,1.0717,1.0717,1.0717,1.0717,1.0717,1.0717,1.0717,1.0717,1.0704,1.0664,1.0704,1.069,1.0568,1.0349,1.0458,1.0493,1.0507,1.0622,1.0711,1.065,1.0697,1.0717,1.0698,1.0731,1.0731,1.0744,1.0758,1.0833,1.0887,1.0914,1.0975,1.1138,1.12,1.1268,1.1362,1.1409,1.1457,1.1572,1.1599,1.1563,1.1584,1.1584,1.1584,1.1584,1.1584,1.1584,1.1584,1.1584,1.1584,1.1584,1.1584,1.1584,1.1584,1.1584,1.1584,1.159,1.1604,1.1597,1.1604,1.1687,1.1735,1.1728,1.1728,1.1708,1.1801,1.2344,1.2901,1.3349,1.3946,1.4514,1.4891,1.5006,1.5006,1.5045,1.5237,1.5467,1.5927,1.6348,1.6768,1.7111,1.7455,1.7721,1.2888,1.2868,1.2725,1.2618,1.2644,1.2549,1.2474,1.244,1.244,1.2352,1.2237,1.2223,1.2135,1.1993,1.1884,1.1773,1.1762,1.1667,1.1592,1.1558,1.1509,1.1463,1.1383,1.1321,1.1246,1.1097,1.0914,1.084,1.0826,1.0745,1.0717,1.0717,1.0724,1.0717,1.0717,1.0717,1.0717,1.0717,1.0717,1.0717,1.0717,1.0717,1.0717,1.0717,1.0717,1.067,1.0595,1.0629,1.0649,1.0649,1.0657,1.0717,1.0724,1.0717,1.0738,1.0826,1.084,1.0928,1.1009,1.1057,1.107,1.1084,1.1097,1.1172,1.1294,1.1356,1.1382,1.1518,1.1545,1.1579,1.1606,1.1584,1.1584,1.1584,1.1584,1.1584,1.1584,1.1584,1.1584,1.1584,1.1584,1.1584,1.1584,1.159,1.1597,1.1604,1.1604,1.164,1.1604,1.1721,1.1726,1.1732,1.183,1.1921,1.2001,1.2132,1.225,1.236,1.2769,1.3101,1.3514,1.3999,1.4559,1.4853,1.4968,1.5006,1.5045,1.5122,1.5313,1.5505,1.5888,1.6271,1.6692,1.7073,1.7378,1.3077,1.3064,1.2881,1.2813,1.28,1.2651,1.2589,1.2576,1.2522,1.2454,1.2379,1.2372,1.2284,1.2186,1.204,1.1965,1.1904,1.1769,1.1658,1.1687,1.1597,1.1565,1.147,1.1409,1.1348,1.124,1.1097,1.0995,1.1023,1.0934,1.086,1.0786,1.0772,1.0738,1.0724,1.0717,1.0717,1.0717,1.0717,1.0717,1.0717,1.0717,1.0717,1.0717,1.0717,1.0717,1.0717,1.0717,1.0717,1.0698,1.0738,1.0772,1.0779,1.086,1.0928,1.1002,1.1029,1.107,1.1186,1.1179,1.1227,1.1261,1.1281,1.1349,1.1436,1.1477,1.1531,1.1599,1.1577,1.1584,1.1584,1.1584,1.1584,1.1584,1.1584,1.1584,1.1584,1.1584,1.1584,1.1584,1.1584,1.1604,1.1644,1.1665,1.1692,1.1762,1.1782,1.1782,1.1803,1.1864,1.1898,1.1925,1.2002,1.2124,1.2308,1.2536,1.281,1.3012,1.3251,1.3476,1.3824,1.4335,1.4853,1.4891,1.5006,1.5006,1.5045,1.5006,1.516,1.5313,1.5514,1.585,1.6271,1.6692,1.7035,1.3227,1.3207,1.3071,1.3009,1.2996,1.2807,1.2706,1.2718,1.2589,1.2528,1.2515,1.2494,1.242,1.2318,1.2257,1.2213,1.2104,1.1918,1.1786,1.1746,1.1671,1.159,1.1586,1.1484,1.1423,1.1389,1.1281,1.1213,1.1206,1.1166,1.1097,1.0934,1.0921,1.0853,1.0752,1.0738,1.0704,1.0724,1.0717,1.0717,1.0717,1.0717,1.0717,1.0724,1.0738,1.0751,1.0718,1.0778,1.0765,1.0725,1.0853,1.0928,1.0948,1.1125,1.1172,1.12,1.1213,1.1227,1.1227,1.1274,1.128,1.1389,1.1409,1.1457,1.1536,1.1556,1.1556,1.1577,1.1584,1.1584,1.1584,1.1611,1.1617,1.1611,1.1647,1.159,1.1584,1.159,1.1617,1.1617,1.1647,1.1694,1.1793,1.1843,1.1904,1.1979,1.205,1.2043,1.205,1.2057,1.2098,1.2132,1.2196,1.2439,1.2684,1.3204,1.3437,1.3596,1.3809,1.3961,1.4082,1.4543,1.4891,1.4968,1.5006,1.5006,1.5006,1.5006,1.5006,1.5122,1.5313,1.5514,1.5829,1.6298,1.6744,1.3342,1.3322,1.322,1.3159,1.3139,1.2963,1.2901,1.2921,1.2739,1.2632,1.2605,1.2549,1.2488,1.2433,1.2332,1.2264,1.2241,1.2111,1.1925,1.18,1.1766,1.1671,1.1597,1.1543,1.1552,1.1531,1.1402,1.1335,1.1356,1.1268,1.1193,1.1145,1.1104,1.1029,1.0874,1.0853,1.0786,1.0731,1.0724,1.0698,1.0731,1.0731,1.0717,1.0698,1.0799,1.0853,1.0867,1.0995,1.0989,1.0874,1.1029,1.1104,1.1111,1.1193,1.1268,1.1314,1.1335,1.1382,1.1463,1.1484,1.1511,1.1552,1.1552,1.1579,1.157,1.1584,1.1584,1.1584,1.1584,1.159,1.1604,1.1678,1.1809,1.1898,1.1769,1.1647,1.1617,1.1678,1.1739,1.1746,1.187,1.1938,1.1986,1.2043,1.2064,1.2104,1.2125,1.2132,1.2166,1.222,1.223,1.2422,1.2533,1.2786,1.3135,1.3701,1.4061,1.4222,1.4375,1.4474,1.4559,1.4667,1.4891,1.5006,1.5006,1.5006,1.5006,1.5006,1.5006,1.5023,1.5116,1.5286,1.5589,1.5992,1.6444,1.3397,1.3397,1.3308,1.3309,1.3247,1.3112,1.3091,1.3064,1.2935,1.2786,1.2725,1.2598,1.2562,1.2494,1.2413,1.2379,1.2359,1.2223,1.2152,1.202,1.1854,1.1719,1.1611,1.1584,1.1584,1.1577,1.1531,1.1491,1.1477,1.1396,1.1363,1.1302,1.1288,1.1179,1.105,1.1002,1.0995,1.0921,1.0907,1.0907,1.0907,1.0907,1.0907,1.0921,1.0995,1.1036,1.1056,1.1213,1.1192,1.1104,1.1206,1.1295,1.1302,1.1321,1.1396,1.1484,1.1484,1.1531,1.1556,1.1584,1.1584,1.1597,1.1624,1.1665,1.1692,1.1762,1.1803,1.1816,1.1803,1.1803,1.1816,1.1884,1.1965,1.205,1.1941,1.1809,1.1809,1.1884,1.1918,1.1952,1.2043,1.2132,1.2142,1.2193,1.2227,1.2237,1.2277,1.2271,1.2277,1.2338,1.2456,1.263,1.2912,1.3178,1.3538,1.4061,1.4406,1.4576,1.4661,1.4853,1.4877,1.483,1.493,1.5006,1.5006,1.5015,1.5031,1.5047,1.5063,1.5041,1.5057,1.52,1.5499,1.5783,1.6259,1.3397,1.3397,1.3397,1.3397,1.337,1.3254,1.3241,1.3214,1.3084,1.2955,1.2807,1.2706,1.2611,1.2522,1.2501,1.2494,1.2488,1.2366,1.2305,1.2182,1.2013,1.1809,1.1728,1.164,1.1584,1.1584,1.1584,1.1606,1.1586,1.1592,1.1502,1.1443,1.1409,1.1363,1.1254,1.122,1.1213,1.1166,1.1145,1.1138,1.1138,1.1138,1.1138,1.1145,1.12,1.1206,1.1253,1.137,1.1355,1.1254,1.1341,1.1402,1.143,1.1552,1.1563,1.1577,1.1619,1.1611,1.1617,1.1651,1.1687,1.1678,1.1803,1.185,1.1877,1.1952,1.2043,1.2043,1.2091,1.2077,1.2104,1.2125,1.2152,1.2179,1.2152,1.2145,1.2145,1.2132,1.2125,1.2125,1.2132,1.222,1.2295,1.2325,1.2352,1.2366,1.24,1.24,1.2469,1.258,1.2723,1.293,1.3252,1.3575,1.3968,1.4399,1.4661,1.4853,1.4891,1.4976,1.4994,1.4986,1.4984,1.5015,1.5063,1.5088,1.5049,1.5065,1.5122,1.5187,1.526,1.5358,1.5487,1.5749,1.6126,1.3397,1.3397,1.3397,1.3397,1.3397,1.337,1.3349,1.3336,1.3234,1.3139,1.3024,1.284,1.2679,1.2632,1.2556,1.2501,1.2501,1.2454,1.24,1.2264,1.2145,1.2043,1.1948,1.1755,1.1633,1.1626,1.1584,1.1584,1.1584,1.1577,1.1606,1.1572,1.1538,1.1497,1.1397,1.1335,1.1274,1.122,1.1206,1.1227,1.1227,1.1227,1.1227,1.1234,1.1322,1.1402,1.1504,1.1552,1.1552,1.1538,1.1545,1.1565,1.1565,1.1599,1.1597,1.1624,1.1698,1.1753,1.1766,1.1877,1.1959,1.1938,1.1972,1.2013,1.2013,1.2084,1.2111,1.2098,1.2098,1.2173,1.2261,1.2281,1.2277,1.2345,1.2372,1.2379,1.2386,1.2305,1.225,1.2257,1.2325,1.242,1.2447,1.244,1.2467,1.2501,1.2501,1.2501,1.2617,1.2772,1.3042,1.3274,1.3667,1.4022,1.4361,1.4733,1.492,1.5067,1.509,1.5129,1.513,1.5122,1.5145,1.5137,1.5106,1.513,1.5179,1.5285,1.5366,1.5423,1.5463,1.5528,1.5633,1.5819,1.5957,1.3531,1.3512,1.3505,1.3464,1.3403,1.3397,1.3397,1.3383,1.3322,1.3234,1.3139,1.2929,1.28,1.2679,1.2576,1.2501,1.2501,1.2501,1.2461,1.2366,1.2281,1.2213,1.2166,1.1952,1.1803,1.1742,1.1685,1.1651,1.1604,1.1584,1.1584,1.1584,1.1584,1.1579,1.1511,1.1491,1.1463,1.1409,1.1375,1.1375,1.1375,1.1375,1.1375,1.1382,1.1457,1.1545,1.1606,1.1577,1.1577,1.1633,1.1644,1.1644,1.1647,1.1681,1.1678,1.1705,1.1857,1.1932,1.1972,1.2043,1.2091,1.2104,1.2166,1.22,1.2227,1.2261,1.2302,1.2309,1.2315,1.2311,1.2379,1.2386,1.244,1.2474,1.2501,1.2501,1.2488,1.2433,1.2393,1.24,1.2447,1.2474,1.2501,1.2522,1.2522,1.2528,1.256,1.256,1.2849,1.3004,1.3397,1.3706,1.4091,1.4438,1.4726,1.5,1.5175,1.5301,1.5317,1.5317,1.535,1.5309,1.526,1.5268,1.5285,1.5333,1.5351,1.5456,1.5577,1.5618,1.565,1.5683,1.5748,1.5918,1.5967,1.3727,1.3619,1.3599,1.3511,1.3444,1.341,1.3397,1.3397,1.3397,1.3322,1.3241,1.3098,1.2915,1.2766,1.2617,1.2535,1.2501,1.2501,1.2481,1.2461,1.2372,1.2325,1.2284,1.2182,1.206,1.1874,1.184,1.1766,1.1658,1.1647,1.1617,1.159,1.1584,1.157,1.1613,1.1577,1.1592,1.1565,1.1565,1.1572,1.1543,1.1543,1.1543,1.155,1.155,1.1599,1.1577,1.1584,1.1597,1.1617,1.1726,1.1732,1.1755,1.1782,1.1864,1.187,1.2013,1.2125,1.2145,1.2166,1.2193,1.2173,1.2237,1.2311,1.2345,1.24,1.244,1.2467,1.2461,1.2461,1.2501,1.2481,1.2488,1.2501,1.2501,1.2501,1.2508,1.2515,1.2528,1.2488,1.2494,1.2508,1.2549,1.2576,1.2562,1.2562,1.2601,1.2718,1.3021,1.3346,1.3778,1.4166,1.4594,1.4805,1.5081,1.5199,1.5375,1.5455,1.5488,1.552,1.5497,1.552,1.548,1.5472,1.5488,1.5528,1.5545,1.5626,1.574,1.5788,1.5821,1.5853,1.5885,1.5991,1.6032,1.3781,1.3754,1.3632,1.3572,1.3531,1.3458,1.3403,1.3397,1.3397,1.339,1.3336,1.3241,1.3084,1.2901,1.2759,1.263,1.2528,1.2501,1.2501,1.2501,1.2461,1.2447,1.2427,1.2393,1.2318,1.2216,1.2101,1.1965,1.1793,1.1759,1.1755,1.1653,1.1597,1.1597,1.1597,1.1584,1.1584,1.1584,1.1584,1.1584,1.1584,1.1584,1.1584,1.1584,1.1584,1.1626,1.1633,1.1633,1.1674,1.1746,1.178,1.1891,1.1959,1.205,1.207,1.2091,1.2162,1.225,1.2295,1.2352,1.2406,1.2433,1.2433,1.2454,1.2467,1.2481,1.2501,1.2501,1.2501,1.2501,1.2501,1.2501,1.2501,1.2501,1.2515,1.2528,1.2549,1.261,1.2651,1.2589,1.2556,1.2562,1.2644,1.2705,1.2718,1.2824,1.2924,1.3128,1.3444,1.3828,1.4268,1.4694,1.513,1.5297,1.544,1.5448,1.5536,1.5561,1.5601,1.5658,1.5683,1.5723,1.5715,1.5683,1.5683,1.5723,1.578,1.5796,1.5845,1.5885,1.5926,1.5966,1.5983,1.6007,1.6007,1.4034,1.3953,1.3885,1.377,1.3592,1.3553,1.3471,1.3403,1.3397,1.3397,1.3356,1.3241,1.3132,1.2989,1.28,1.2605,1.2535,1.2501,1.2501,1.2501,1.2501,1.2501,1.2501,1.2501,1.2467,1.2393,1.2311,1.2155,1.1965,1.1952,1.1904,1.185,1.1775,1.1692,1.1671,1.1653,1.1597,1.159,1.159,1.159,1.159,1.159,1.1626,1.1619,1.1597,1.1617,1.1721,1.1728,1.1803,1.1932,1.2026,1.2101,1.2169,1.223,1.2288,1.2223,1.2311,1.2393,1.24,1.2467,1.2488,1.2494,1.2501,1.2501,1.2501,1.2501,1.2515,1.2508,1.2501,1.2501,1.2501,1.2515,1.2535,1.2603,1.2623,1.2657,1.2725,1.2807,1.2779,1.2732,1.2773,1.2846,1.286,1.2907,1.2928,1.3042,1.3203,1.3538,1.3905,1.4281,1.4704,1.5073,1.5449,1.553,1.5666,1.5699,1.5659,1.5675,1.5691,1.5748,1.5829,1.5869,1.5878,1.5829,1.5845,1.5886,1.5877,1.5918,1.5975,1.6007,1.6007,1.6007,1.5999,1.6007,1.6047,1.4231,1.4159,1.4125,1.3933,1.3729,1.3648,1.3559,1.3458,1.341,1.3397,1.3383,1.3275,1.3186,1.303,1.2813,1.2644,1.2508,1.2501,1.2501,1.2501,1.2501,1.2501,1.2501,1.2501,1.2494,1.2481,1.2467,1.2366,1.2155,1.2145,1.2132,1.205,1.1918,1.1877,1.1857,1.1796,1.1714,1.1708,1.1708,1.1708,1.1708,1.1708,1.1708,1.1708,1.1708,1.1775,1.1864,1.1877,1.1959,1.2088,1.2203,1.2336,1.2338,1.244,1.244,1.2372,1.2447,1.2488,1.2494,1.2494,1.2522,1.2562,1.2556,1.2562,1.261,1.2644,1.2617,1.2596,1.261,1.2623,1.2644,1.261,1.2664,1.2732,1.2786,1.2813,1.2941,1.3003,1.303,1.3023,1.3064,1.3064,1.305,1.3097,1.3118,1.3443,1.3647,1.408,1.4412,1.4713,1.5085,1.5441,1.5715,1.5772,1.5853,1.5869,1.5869,1.5869,1.5877,1.5902,1.5934,1.5975,1.5966,1.595,1.595,1.595,1.5991,1.6007,1.6007,1.6015,1.6031,1.6064,1.6104,1.6169,1.6276,1.4292,1.4258,1.4173,1.4091,1.3973,1.3743,1.3585,1.3545,1.3458,1.3403,1.3397,1.337,1.3275,1.3091,1.284,1.2651,1.2542,1.2501,1.2501,1.2501,1.2501,1.2501,1.2501,1.2501,1.2501,1.2501,1.2501,1.2413,1.2291,1.2302,1.2234,1.2145,1.2111,1.207,1.2026,1.2002,1.205,1.2036,1.2036,1.203,1.1986,1.2016,1.2016,1.2023,1.2023,1.203,1.202,1.204,1.2108,1.2237,1.2277,1.2352,1.2447,1.2488,1.2494,1.2481,1.2494,1.2501,1.2515,1.2528,1.2589,1.2671,1.2659,1.2773,1.2813,1.2894,1.2894,1.2908,1.2928,1.2907,1.2887,1.2921,1.2955,1.2962,1.2975,1.2982,1.3043,1.3159,1.3146,1.3173,1.3193,1.3186,1.3173,1.3261,1.3356,1.3733,1.4126,1.4515,1.4903,1.5192,1.538,1.5707,1.5829,1.5877,1.5902,1.5966,1.5999,1.6007,1.6015,1.6023,1.6056,1.6072,1.6056,1.6047,1.6056,1.608,1.612,1.6104,1.6039,1.608,1.6185,1.6259,1.6276,1.6357,1.6438,1.4299,1.4292,1.4268,1.415,1.4048,1.3838,1.366,1.3565,1.3471,1.3397,1.3397,1.3397,1.3275,1.3091,1.282,1.2651,1.2528,1.2501,1.2501,1.2501,1.2501,1.2501,1.2501,1.2501,1.2501,1.2501,1.2501,1.2488,1.2413,1.24,1.2366,1.2305,1.223,1.2189,1.222,1.2139,1.2104,1.2091,1.2091,1.2098,1.2098,1.2098,1.2104,1.2104,1.2104,1.2152,1.2213,1.2196,1.2264,1.2379,1.2406,1.2433,1.2481,1.2501,1.2501,1.2508,1.2589,1.263,1.2637,1.263,1.2718,1.2813,1.2861,1.2928,1.2989,1.3009,1.3009,1.2996,1.2996,1.3009,1.3016,1.3003,1.3057,1.3091,1.3125,1.3173,1.3166,1.3241,1.3308,1.3336,1.3342,1.335,1.337,1.3418,1.3617,1.3988,1.4368,1.4766,1.5177,1.554,1.5745,1.5884,1.5966,1.5975,1.5975,1.5999,1.6015,1.6031,1.6031,1.6064,1.6186,1.6211,1.6177,1.625,1.6373,1.6373,1.6332,1.6276,1.6235,1.6316,1.6414,1.6438,1.6462,1.6479,1.6568,1.4299,1.4299,1.4299,1.4231,1.4116,1.3966,1.3774,1.3626,1.3526,1.3437,1.3403,1.339,1.3254,1.3071,1.2868,1.2725,1.2523,1.2522,1.2501,1.2501,1.2501,1.2501,1.2501,1.2501,1.2501,1.2501,1.2501,1.2494,1.2494,1.2488,1.2481,1.2494,1.2386,1.2345,1.2311,1.2302,1.2247,1.2247,1.2241,1.2241,1.2234,1.2227,1.2227,1.222,1.222,1.2261,1.2325,1.2345,1.2413,1.2461,1.2488,1.2488,1.2501,1.2501,1.2535,1.2576,1.2671,1.2726,1.28,1.284,1.2881,1.2969,1.3105,1.3139,1.3091,1.3071,1.3111,1.3146,1.3146,1.3132,1.3111,1.3125,1.3186,1.3248,1.3234,1.3308,1.3363,1.3363,1.3363,1.337,1.3418,1.3549,1.3535,1.359,1.3845,1.4217,1.4638,1.5058,1.5446,1.5874,1.5949,1.6039,1.6031,1.6047,1.6104,1.6088,1.608,1.6096,1.6104,1.6169,1.6332,1.6381,1.6405,1.6503,1.66,1.66,1.6509,1.647,1.6405,1.647,1.6535,1.6617,1.6649,1.6665,1.6714,1.4299,1.4299,1.4299,1.4292,1.4265,1.4166,1.3966,1.3754,1.3661,1.3526,1.341,1.339,1.3308,1.3186,1.2996,1.2861,1.2712,1.2569,1.2556,1.2542,1.2508,1.2549,1.2562,1.2562,1.2542,1.2542,1.2542,1.2528,1.2501,1.2508,1.2508,1.2494,1.2461,1.2481,1.2467,1.2413,1.2438,1.2438,1.2406,1.242,1.242,1.2427,1.2433,1.244,1.2454,1.2474,1.2488,1.2467,1.2467,1.2501,1.2501,1.2501,1.2501,1.2528,1.2583,1.2664,1.2766,1.2888,1.2996,1.3003,1.303,1.3186,1.3247,1.3308,1.3288,1.3342,1.3356,1.3322,1.3281,1.3308,1.3329,1.3363,1.3322,1.3322,1.3322,1.3349,1.3383,1.339,1.339,1.3397,1.3486,1.3576,1.3915,1.4006,1.4345,1.4719,1.5196,1.5669,1.5796,1.6095,1.6055,1.608,1.6064,1.6112,1.6276,1.6292,1.6308,1.6357,1.6389,1.6454,1.6544,1.6576,1.6584,1.6649,1.673,1.6755,1.6728,1.6706,1.6657,1.6633,1.6674,1.6779,1.6852,1.6877,1.6942,1.4299,1.4299,1.4299,1.4299,1.4285,1.4136,1.398,1.3788,1.3646,1.3504,1.3397,1.339,1.3315,1.3193,1.3166,1.305,1.2921,1.2867,1.2819,1.2826,1.2786,1.2779,1.2819,1.2766,1.2826,1.2752,1.2698,1.2644,1.2605,1.2583,1.2515,1.2501,1.2528,1.2501,1.2501,1.2501,1.2501,1.2501,1.2501,1.2501,1.2501,1.2501,1.2501,1.2501,1.2501,1.2501,1.2501,1.2501,1.2501,1.2501,1.2501,1.2508,1.2535,1.2589,1.2632,1.2766,1.2881,1.3044,1.3173,1.318,1.3166,1.3281,1.3363,1.3397,1.3397,1.3397,1.3397,1.3397,1.3397,1.3397,1.3397,1.339,1.3383,1.3397,1.3397,1.3397,1.341,1.341,1.3431,1.3451,1.3527,1.361,1.4034,1.4467,1.4843,1.5268,1.5764,1.6147,1.624,1.6308,1.6292,1.6284,1.6276,1.6324,1.6446,1.6487,1.6503,1.656,1.6625,1.6674,1.673,1.6747,1.6728,1.682,1.6877,1.6917,1.6942,1.6933,1.6901,1.686,1.6901,1.699,1.7047,1.702,1.7044,1.4299,1.4299,1.4299,1.4299,1.4285,1.4183,1.4021,1.3802,1.37,1.3573,1.3403,1.3397,1.3349,1.3295,1.322,1.3166,1.3064,1.3009,1.2996,1.2982,1.2975,1.3003,1.3003,1.2989,1.2955,1.2969,1.2874,1.28,1.2793,1.2684,1.2678,1.2671,1.263,1.2617,1.2501,1.2501,1.2501,1.2501,1.2501,1.2501,1.2501,1.2501,1.2501,1.2501,1.2501,1.2501,1.2501,1.2501,1.2501,1.2501,1.2508,1.2528,1.2589,1.2671,1.2726,1.2901,1.303,1.3227,1.3227,1.3254,1.3288,1.337,1.339,1.3397,1.3397,1.3397,1.3397,1.3397,1.3397,1.3397,1.3397,1.3397,1.3397,1.3397,1.3397,1.3403,1.3431,1.3451,1.3478,1.3498,1.3693,1.407,1.4632,1.517,1.5601,1.5881,1.6084,1.6394,1.6436,1.6479,1.6495,1.6495,1.6503,1.6568,1.6649,1.6665,1.669,1.6812,1.686,1.686,1.6858,1.6866,1.689,1.693,1.7031,1.7096,1.708,1.7031,1.7055,1.708,1.7096,1.708,1.7088,1.7044,1.7052,1.4299,1.4299,1.4299,1.4299,1.4299,1.4292,1.4122,1.3829,1.3768,1.3648,1.3417,1.3397,1.3397,1.3349,1.3254,1.3241,1.32,1.3098,1.305,1.3071,1.3091,1.3043,1.3043,1.3057,1.3091,1.3016,1.2996,1.2989,1.2996,1.2928,1.2935,1.2935,1.2887,1.2805,1.2528,1.2501,1.2501,1.2501,1.2501,1.2501,1.2501,1.2501,1.2501,1.2501,1.2501,1.2501,1.2501,1.2501,1.2515,1.2549,1.2542,1.2603,1.2725,1.2759,1.2888,1.3146,1.3152,1.3254,1.3363,1.3383,1.339,1.3397,1.3397,1.3397,1.3397,1.3397,1.3397,1.3397,1.3397,1.3397,1.3397,1.341,1.3424,1.3444,1.3451,1.3492,1.3532,1.3559,1.3558,1.3663,1.4203,1.4743,1.535,1.591,1.6347,1.658,1.6558,1.66,1.6641,1.6682,1.6722,1.673,1.6738,1.6771,1.6828,1.6793,1.6849,1.7015,1.7055,1.7023,1.6979,1.6987,1.702,1.7112,1.7112,1.7112,1.7112,1.7104,1.7112,1.7112,1.7112,1.7104,1.7112,1.7112,1.7112,1.4299,1.4299,1.4299,1.4299,1.4299,1.4299,1.4177,1.398,1.379,1.3545,1.3431,1.3397,1.3397,1.3376,1.3356,1.3315,1.3302,1.3302,1.3254,1.3241,1.3227,1.3254,1.3247,1.3261,1.3275,1.322,1.3214,1.3139,1.3146,1.3084,1.3016,1.2996,1.3016,1.2847,1.2678,1.2576,1.2501,1.2501,1.2501,1.2501,1.2508,1.2515,1.2515,1.2522,1.2528,1.2528,1.2535,1.2542,1.2576,1.2644,1.2611,1.2732,1.2874,1.2929,1.3057,1.3234,1.3241,1.3342,1.339,1.3397,1.3397,1.3403,1.3403,1.3403,1.3403,1.3397,1.3397,1.3417,1.3444,1.3437,1.3397,1.3512,1.3518,1.3551,1.3578,1.3653,1.3693,1.3707,1.3727,1.3897,1.4272,1.5102,1.5823,1.629,1.6703,1.6858,1.6844,1.6868,1.6909,1.6942,1.6982,1.6974,1.6982,1.699,1.6955,1.693,1.693,1.7055,1.7096,1.7088,1.7096,1.7112,1.7112,1.7112,1.7112,1.7112,1.7112,1.7112,1.7112,1.7112,1.7112,1.7112,1.7112,1.7112,1.7112,1.4299,1.4299,1.4299,1.4299,1.4299,1.4299,1.419,1.3973,1.3736,1.3539,1.3424,1.3397,1.3397,1.3397,1.3397,1.3397,1.3397,1.3397,1.3397,1.3397,1.3397,1.3376,1.3383,1.3397,1.3363,1.337,1.3322,1.3295,1.3295,1.32,1.318,1.3173,1.3098,1.3037,1.2868,1.2773,1.2724,1.2698,1.2705,1.273,1.2691,1.2684,1.2678,1.2678,1.2678,1.2678,1.2664,1.2671,1.2698,1.2779,1.2827,1.2881,1.3064,1.3152,1.3241,1.3268,1.3329,1.3397,1.3397,1.3397,1.3424,1.3492,1.3437,1.3431,1.3464,1.3492,1.3539,1.3553,1.3539,1.3546,1.3566,1.3639,1.366,1.3693,1.3727,1.3795,1.3815,1.3822,1.3926,1.4055,1.4585,1.5444,1.6242,1.659,1.7003,1.708,1.7096,1.7112,1.7112,1.7112,1.7112,1.7104,1.7096,1.7071,1.7071,1.7028,1.7036,1.7104,1.7112,1.7112,1.7112,1.7112,1.7112,1.7112,1.7112,1.7112,1.7112,1.7112,1.7112,1.7112,1.7112,1.7112,1.7112,1.7112,1.7112,1.4299,1.4299,1.4299,1.4299,1.4299,1.4299,1.4129,1.3802,1.366,1.3553,1.3403,1.3397,1.3397,1.3397,1.3397,1.3397,1.3397,1.3397,1.3397,1.3397,1.3397,1.3397,1.3397,1.3397,1.3397,1.3397,1.3376,1.3349,1.339,1.3336,1.3336,1.3336,1.3268,1.3173,1.3105,1.3084,1.2982,1.2935,1.2907,1.2901,1.2901,1.2935,1.2914,1.2914,1.2914,1.2921,1.2921,1.2935,1.2962,1.2996,1.3009,1.3098,1.3173,1.3214,1.3275,1.3349,1.339,1.3397,1.3403,1.3403,1.3485,1.3518,1.3519,1.3532,1.3587,1.3634,1.3626,1.368,1.37,1.3734,1.3774,1.3788,1.3808,1.3829,1.3842,1.3869,1.3889,1.393,1.4055,1.4414,1.5053,1.5857,1.6602,1.706,1.7112,1.7112,1.7112,1.7112,1.7112,1.7112,1.7112,1.7112,1.7104,1.7112,1.7112,1.7112,1.7112,1.7112,1.7112,1.7112,1.7112,1.7112,1.7112,1.7112,1.7112,1.7112,1.7112,1.7112,1.7112,1.7112,1.7112,1.7112,1.7112,1.7112,1.7112,1.4299,1.4299,1.4299,1.4299,1.4299,1.4299,1.4122,1.3808,1.3747,1.3648,1.3397,1.3397,1.3397,1.3397,1.3397,1.3397,1.3397,1.3397,1.3397,1.3397,1.3397,1.3397,1.3397,1.3397,1.3397,1.3397,1.3397,1.3397,1.3397,1.3397,1.3397,1.3376,1.3342,1.3322,1.3308,1.3288,1.3186,1.3077,1.3043,1.3043,1.3037,1.3043,1.3037,1.3043,1.3043,1.3043,1.3043,1.3037,1.3064,1.3139,1.3146,1.322,1.3315,1.3336,1.3376,1.3383,1.3397,1.3403,1.3417,1.3498,1.3593,1.3668,1.3675,1.3687,1.3727,1.3747,1.3774,1.3829,1.3862,1.3876,1.3903,1.3966,1.3987,1.4014,1.4041,1.4089,1.4102,1.4122,1.4234,1.4643,1.5337,1.6042,1.6805,1.7112,1.7112,1.7112,1.7112,1.7112,1.7112,1.7112,1.7112,1.7112,1.7112,1.7112,1.7112,1.7112,1.7112,1.7112,1.7112,1.7112,1.7112,1.7112,1.7112,1.7112,1.7112,1.7112,1.7112,1.7112,1.7112,1.7112,1.7112,1.7112,1.7112,1.7112,1.7112,1.4299,1.4299,1.4299,1.4299,1.4299,1.4299,1.4156,1.3946,1.3829,1.366,1.3457,1.3424,1.3397,1.3397,1.3397,1.3397,1.3397,1.3397,1.3397,1.3397,1.3397,1.3397,1.3397,1.3397,1.3397,1.3397,1.3397,1.3397,1.3397,1.3397,1.3397,1.3397,1.3397,1.3397,1.339,1.3363,1.3302,1.3207,1.3146,1.3173,1.3166,1.3125,1.3173,1.3159,1.3159,1.3159,1.3159,1.3159,1.322,1.3295,1.3302,1.3336,1.3397,1.3397,1.3397,1.3397,1.3397,1.3444,1.3498,1.3573,1.3682,1.379,1.3878,1.3953,1.3973,1.3994,1.4014,1.4041,1.3991,1.3998,1.4068,1.4095,1.4129,1.4163,1.4224,1.4278,1.4285,1.4285,1.4557,1.4903,1.5484,1.6145,1.6629,1.6892,1.7112,1.7112,1.7112,1.7112,1.7112,1.7112,1.7112,1.7112,1.7112,1.7112,1.7068,1.7024,1.7024,1.7024,1.7112,1.7112,1.7068,1.7128,1.7136,1.7128,1.7112,1.712,1.7136,1.712,1.7112,1.7112,1.7112,1.7112,1.7112,1.7112,1.7112,1.4299,1.4299,1.4299,1.4299,1.4299,1.4299,1.4217,1.4075,1.3919,1.3714,1.3565,1.3464,1.3397,1.3397,1.3397,1.3397,1.3397,1.3397,1.3397,1.3397,1.3397,1.3397,1.3397,1.3397,1.3397,1.3397,1.3397,1.3397,1.3397,1.3397,1.3397,1.3397,1.3397,1.3397,1.3397,1.3397,1.3363,1.3336,1.3322,1.3329,1.3349,1.3376,1.3397,1.3376,1.337,1.337,1.3376,1.339,1.3397,1.3397,1.3397,1.339,1.3397,1.3397,1.3397,1.3424,1.3431,1.3463,1.3593,1.3682,1.3831,1.396,1.4082,1.4136,1.415,1.4136,1.4143,1.417,1.417,1.4177,1.4197,1.4204,1.4224,1.4238,1.4272,1.4299,1.4299,1.4387,1.4564,1.4955,1.544,1.6101,1.6629,1.6892,1.7068,1.7112,1.7112,1.7112,1.7068,1.7068,1.7024,1.7024,1.7068,1.7024,1.6892,1.6849,1.6841,1.6884,1.6892,1.6985,1.6936,1.7017,1.7169,1.7218,1.7222,1.7193,1.7177,1.7153,1.7128,1.7112,1.7112,1.7112,1.7112,1.7112,1.7112,1.4299,1.4299,1.4299,1.4299,1.4299,1.4299,1.4278,1.4217,1.3953,1.3727,1.3578,1.3485,1.3397,1.3397,1.3397,1.3397,1.3397,1.3397,1.3397,1.3397,1.3397,1.3397,1.3397,1.3397,1.3397,1.3397,1.3397,1.3397,1.3397,1.3397,1.3397,1.3397,1.3397,1.3397,1.3397,1.3397,1.3397,1.3397,1.3397,1.3397,1.3397,1.3397,1.3397,1.3397,1.3397,1.3397,1.3397,1.3397,1.3397,1.3397,1.3397,1.3397,1.3397,1.3403,1.3403,1.3417,1.3519,1.3558,1.3653,1.3824,1.4016,1.4068,1.4163,1.4238,1.4272,1.4258,1.4258,1.4285,1.4299,1.4299,1.4299,1.4299,1.4299,1.4299,1.4299,1.4299,1.4299,1.4431,1.4608,1.4999,1.5484,1.5969,1.6497,1.6805,1.7024,1.7112,1.7112,1.7068,1.7024,1.7024,1.6892,1.6892,1.7024,1.698,1.6761,1.6541,1.6489,1.6336,1.6264,1.6458,1.6714,1.6991,1.721,1.7339,1.7408,1.7356,1.725,1.7177,1.7153,1.7128,1.7112,1.7112,1.7112,1.7112,1.7112,1.4299,1.4299,1.4299,1.4299,1.4299,1.4299,1.4299,1.4251,1.4048,1.3815,1.3653,1.3512,1.3397,1.3403,1.3397,1.3397,1.3397,1.3397,1.3397,1.3397,1.3397,1.3397,1.3397,1.3397,1.3397,1.3397,1.3397,1.3397,1.3397,1.3397,1.3397,1.3397,1.3397,1.3397,1.3397,1.3403,1.3403,1.3397,1.341,1.3417,1.3417,1.341,1.3403,1.3397,1.3403,1.341,1.3397,1.3397,1.3397,1.3397,1.3397,1.3397,1.3424,1.3478,1.3457,1.3504,1.3592,1.3756,1.3844,1.396,1.4153,1.4177,1.4224,1.4292,1.4292,1.4278,1.4278,1.4299,1.4299,1.4299,1.4299,1.4299,1.4299,1.4299,1.4299,1.4299,1.4299,1.4387,1.4608,1.4999,1.5352,1.5704,1.6181,1.6533,1.6797,1.7112,1.7112,1.6849,1.6841,1.6753,1.6673,1.6629,1.6629,1.6541,1.6189,1.6057,1.6057,1.5852,1.5624,1.6032,1.6422,1.692,1.7262,1.7307,1.7403,1.7478,1.738,1.7291,1.7177,1.7128,1.712,1.7112,1.7112,1.7112,1.7128,1.4299,1.4299,1.4299,1.4299,1.4299,1.4299,1.4299,1.4272,1.4173,1.398,1.3768,1.3553,1.3437,1.3403,1.3397,1.3397,1.3397,1.3397,1.3397,1.3397,1.3397,1.3397,1.3397,1.3397,1.3397,1.3397,1.3397,1.3397,1.3397,1.3397,1.3397,1.3397,1.3397,1.3397,1.3403,1.3431,1.3451,1.3471,1.3485,1.3485,1.3458,1.3437,1.3444,1.3444,1.3451,1.3458,1.3458,1.3458,1.3464,1.3478,1.3505,1.3512,1.3532,1.3607,1.3592,1.3646,1.379,1.3912,1.4014,1.4082,1.4183,1.4258,1.4285,1.4299,1.4299,1.4299,1.4299,1.4299,1.4299,1.4299,1.4299,1.4299,1.4299,1.4299,1.4299,1.4299,1.4299,1.4299,1.4601,1.4911,1.5175,1.5433,1.5785,1.6181,1.6489,1.6849,1.6849,1.6665,1.6445,1.6269,1.6189,1.6005,1.5917,1.5785,1.5616,1.5572,1.5572,1.5351,1.5225,1.5688,1.6136,1.6666,1.6995,1.7139,1.7258,1.7406,1.7481,1.7429,1.7307,1.7185,1.712,1.7112,1.7112,1.712,1.7145,1.4299,1.4299,1.4299,1.4299,1.4299,1.4299,1.4299,1.4272,1.4187,1.3987,1.3788,1.3632,1.3532,1.3397,1.3397,1.3397,1.3397,1.3397,1.3397,1.3397,1.3397,1.3397,1.3397,1.3397,1.3397,1.3397,1.3397,1.3397,1.3397,1.3397,1.3403,1.3417,1.341,1.3417,1.3437,1.3492,1.3545,1.3558,1.3626,1.366,1.3695,1.3619,1.3551,1.3585,1.3695,1.3693,1.3714,1.3714,1.3714,1.3714,1.3693,1.368,1.3693,1.3714,1.3754,1.3795,1.3939,1.4027,1.4116,1.4183,1.4265,1.4278,1.4299,1.4299,1.4299,1.4299,1.4299,1.4299,1.4299,1.4299,1.4299,1.4299,1.4299,1.4299,1.4299,1.4299,1.4299,1.4299,1.4431,1.4646,1.4822,1.5043,1.5256,1.5609,1.5881,1.6145,1.6189,1.6013,1.5925,1.5793,1.566,1.5484,1.53,1.5212,1.5124,1.5131,1.505,1.4834,1.4857,1.5314,1.5833,1.6378,1.6686,1.6803,1.7126,1.7385,1.7403,1.7493,1.7437,1.7307,1.7177,1.712,1.7112,1.7153,1.7201]},{"header":{"parameterUnit":"m.s-1","parameterCategory":1,"la1":31.0,"la2":29.5877,"lo1":-88.7671,"lo2":-86.6584,"dy":0.0162,"dx":0.0185,"nx":115,"ny":88,"refTime":"2023-09-25T12:00:00:Z","depth":0,"parameterNumber":3,"parameterNumberName":"V-component_of_WINDS"},"data":[0.0,0.0,0.0,0.0,0.0,0.0,0.0,0.0,0.0,0.0,0.0,0.0,0.0,0.0,0.0,0.0,0.0,0.0,0.0,0.0,0.0,0.0,0.0,0.0,0.0,0.0,0.0,0.0,0.0,0.0,0.0,0.0,0.0,0.0,0.0,0.0,0.0,0.0,0.0,0.0,0.0,0.0,0.0,0.0,0.0,0.0,0.0,0.0,0.0,0.0,0.0,0.0,0.0,0.0,0.0,0.0,0.0,0.0,0.0,0.0,0.0,0.0,0.0,0.0,0.0,0.0,0.0,0.0,0.0,0.0,0.0,0.0,0.0,0.0,0.0,0.0,0.0,0.0,0.0,0.0,0.0,0.0,0.0,0.0,0.0,0.0,0.0,0.0,0.0,0.0,0.0,0.0,0.0,0.0,0.0,0.0,0.0,0.0,0.0,0.0,0.0,0.0,0.0,0.0,0.0,0.0,0.0,0.0,0.0,0.0,0.0,0.0,0.0,0.0,0.0,0.0,0.0,0.0,0.0,0.0,0.0,0.0,0.0,0.0,0.0,0.0,0.0,0.0,0.0,0.0,0.0,0.0,0.0,0.0,0.0,0.0,0.0,0.0,0.0,0.0,0.0,0.0,0.0,0.0,0.0,0.0,0.0,0.0,0.0,0.0,0.0,0.0,0.0,0.0,0.0,0.0,0.0,0.0,0.0,0.0,0.0,0.0,0.0,0.0,0.0,0.0,0.0,0.0,0.0,0.0,0.0,0.0,0.0,0.0,0.0,0.0,0.0,0.0,0.0,0.0,0.0,0.0,0.0,0.0,0.0,0.0,0.0,0.0,0.0,0.0,0.0,0.0,0.0,0.0,0.0,0.0,0.0,0.0,0.0,0.0,0.0,0.0,0.0,0.0,0.0,0.0,0.0,0.0,0.0,0.0,0.0,0.0,0.0,0.0,0.0,0.0,0.0,0.0,0.0,0.0,0.0,0.0,0.0,0.0,0.0,0.0,0.0,0.0,0.0,0.0,0.0,0.0,0.0,0.0,0.0,0.0,0.0,0.0,0.0,0.0,0.0,0.0,0.0,0.0,0.0,0.0,0.0,0.0,0.0,0.0,0.0,0.0,0.0,0.0,0.0,0.0,0.0,0.0,0.0,0.0,0.0,0.0,0.0,0.0,0.0,0.0,0.0,0.0,0.0,0.0,0.0,0.0,0.0,0.0,0.0,0.0,0.0,0.0,0.0,0.0,0.0,0.0,0.0,0.0,0.0,0.0,0.0,0.0,0.0,0.0,0.0,0.0,0.0,0.0,0.0,0.0,0.0,0.0,0.0,0.0,0.0,0.0,0.0,0.0,0.0,0.0,0.0,0.0,0.0,0.0,0.0,0.0,0.0,0.0,0.0,0.0,0.0,0.0,0.0,0.0,0.0,0.0,0.0,0.0,0.0,0.0,0.0,0.0,0.0,0.0,0.0,0.0,0.0,0.0,0.0,0.0,0.0,0.0,0.0,0.0,0.0,0.0,0.0,0.0,0.0,0.0,0.0,0.0,0.0,0.0,0.0,0.0,0.0,0.0,0.0,0.0,0.0,0.0,0.0,0.0,0.0,0.0,0.0,0.0,0.0,0.0,0.0,0.0,0.0,0.0,0.0,0.0,0.0,0.0,0.0,0.0,0.0,0.0,0.0,0.0,0.0,0.0,0.0,0.0,0.0,0.0,0.0,0.0,0.0,0.0,0.0,0.0,0.0,0.0,0.0,0.0,0.0,0.0,0.0,0.0,0.0,0.0,0.0,0.0,0.0,0.0,0.0,0.0,0.0,0.0,0.0,0.0,0.0,0.0,0.0,0.0,0.0,0.0,0.0,0.0,0.0,0.0,0.0,0.0,0.0,0.0,0.0,0.0,0.0,0.0,0.0,0.0,0.0,0.0,0.0,0.0,0.0,0.0,0.0,0.0,0.0,0.0,0.0,0.0,0.0,0.0,0.0,0.0,0.0,0.0,0.0,0.0,0.0,0.0,0.0,0.0,0.0,0.0,0.0,0.0,0.0,0.0,0.0,0.0,0.0,0.0,0.0,0.0,0.0,0.0,0.0,0.0,0.0,0.0,0.0,0.0,0.0,0.0,0.0,0.0,0.0,0.0,0.0,0.0,0.0,0.0,0.0,0.0,0.0,0.0,0.0,0.0,0.0,0.0,0.0,0.0,0.0,0.0,0.0,0.0,0.0,0.0,0.0,0.0,0.0,0.0,0.0,0.0,0.0,0.0,0.0,0.0,0.0,0.0,0.0,0.0,0.0,0.0,0.0,0.0,0.0,0.0,0.0,0.0,0.0,0.0,0.0,0.0,0.0,0.0,0.0,0.0,0.0,0.0,0.0,0.0,0.0,0.0,0.0,0.0,0.0,0.0,0.0,0.0,0.0,0.0,0.0,0.0,0.0,0.0,0.0,0.0,0.0,0.0,0.0,0.0,0.0,0.0,0.0,0.0,0.0,0.0,0.0,0.0,0.0,0.0,0.0,0.0,0.0,0.0,0.0,0.0,0.0,0.0,0.0,0.0,0.0,0.0,0.0,0.0,0.0,0.0,0.0,0.0,0.0,0.0,0.0,0.0,0.0,0.0,0.0,0.0,0.0,0.0,0.0,0.0,0.0,0.0,0.0,0.0,0.0,0.0,0.0,0.0,0.0,0.0,0.0,0.0,0.0,0.0,0.0,0.0,0.0,0.0,0.0,0.0,0.0,0.0,0.0,0.0,0.0,0.0,0.0,0.0,0.0,0.0,0.0,0.0,0.0,0.0,0.0,0.0,0.0,0.0,0.0,0.0,0.0,0.0,0.0,0.0,0.0,0.0,0.0,0.0,0.0,0.0,0.0,0.0,0.0,0.0,0.0,0.0,0.0,0.0,0.0,0.0,0.0,0.0,0.0,0.0,0.0,0.0,0.0,0.0,0.0,0.0,0.0,0.0,0.0,0.0,0.0,0.0,0.0,0.0,0.0,0.0,0.0,0.0,0.0,0.0,0.0,0.0,0.0,0.0,0.0,0.0,0.0,0.0,0.0,0.0,0.0,0.0,0.0,0.0,0.0,0.0,0.0,0.0,0.0,0.0,0.0,0.0,0.0,0.0,0.0,0.0,0.0,0.0,0.0,0.0,0.0,0.0,0.0,0.0,0.0,0.0,0.0,0.0,0.0,0.0,0.0,0.0,0.0,0.0,0.0,0.0,0.0,0.0,0.0,0.0,0.0,0.0,0.0,0.0,0.0,0.0,0.0,0.0,0.0,0.0,0.0,0.0,0.0,0.0,0.0,0.0,0.0,0.0,0.0,0.0,0.0,0.0,0.0,0.0,0.0,0.0,0.0,0.0,0.0,0.0,0.0,0.0,0.0,0.0,0.0,0.0,0.0,0.0,0.0,0.0,0.0,0.0,0.0,0.0,0.0,0.0,0.0,0.0,0.0,0.0,0.0,0.0,0.0,0.0,0.0,0.0,0.0,0.0,0.0,0.0,0.0,0.0,0.0,0.0,0.0,0.0,0.0,0.0,0.0,0.0,0.0,0.0,0.0,0.0,0.0,0.0,0.0,0.0,0.0,0.0,0.0,0.0,0.0,0.0,0.0,0.0,0.0,0.0,0.0,0.0,0.0,0.0,0.0,0.0,0.0,0.0,0.0,0.0,0.0,0.0,0.0,0.0,0.0,0.0,0.0,0.0,0.0,0.0,0.0,0.0,0.0,0.0,0.0,0.0,0.0,0.0,0.0,0.0,0.0,0.0,0.0,0.0,0.0,0.0,0.0,0.0,0.0,0.0,0.0,0.0,0.0,0.0,0.0,0.0,0.0,0.0,0.0,0.0,0.0,0.0,0.0,0.0,0.0,0.0,0.0,0.0,0.0,0.0,0.0,0.0,0.0,0.0,0.0,0.0,0.0,0.0,0.0,0.0,0.0,0.0,0.0,0.0,0.0,0.0,0.0,0.0,0.0,0.0,0.0,0.0,0.0,0.0,0.0,0.0,0.0,0.0,0.0,0.0,0.0,0.0,0.0,0.0,0.0,0.0,0.0,0.0,0.0,0.0,0.0,0.0,0.0,0.0,0.0,0.0,0.0,0.0,0.0,0.0,0.0,0.0,0.0,0.0,0.0,0.0,0.0,0.0,0.0,0.0,0.0,0.0,0.0,0.0,0.0,0.0,0.0,0.0,0.0,0.0,0.0,0.0,0.0,0.0,0.0,0.0,0.0,0.0,0.0,0.0,0.0,0.0,0.0,0.0,0.0,0.0,0.0,0.0,1.1927,0.0,0.0,0.0,0.0,0.0,0.0,0.0,0.0,0.0,0.0,0.0,0.0,0.0,0.0,0.0,0.0,0.0,0.0,0.0,0.0,0.0,0.0,0.0,0.0,0.0,0.0,0.0,0.0,0.0,0.0,0.0,0.0,0.0,0.0,0.0,0.0,0.0,0.0,0.0,0.0,0.0,0.0,0.0,0.0,0.0,0.0,0.0,0.0,0.0,0.0,0.0,0.0,0.0,0.0,0.0,0.0,0.0,0.0,0.0,0.0,0.0,0.0,0.0,0.0,0.0,0.0,0.0,0.0,0.0,0.0,0.0,0.0,0.0,0.0,0.0,0.0,0.0,0.0,0.0,0.0,0.0,0.0,0.0,0.0,0.0,0.0,0.0,0.0,0.0,0.0,0.0,0.0,0.0,0.0,0.0,0.0,0.0,0.0,0.0,0.0,0.0,0.0,0.0,0.0,0.0,0.0,0.0,0.0,0.0,0.0,1.3768,1.3398,1.2997,1.2747,1.2706,0.0,0.0,0.0,0.0,0.0,0.0,0.0,0.0,0.0,0.0,0.0,0.0,0.0,0.0,0.0,0.0,0.0,0.0,0.0,0.0,0.0,0.0,0.0,0.0,0.0,0.0,0.0,0.0,0.0,0.0,0.0,0.0,0.0,0.0,0.0,0.0,0.0,0.0,0.0,0.0,0.0,0.0,0.0,0.0,0.0,0.0,0.0,0.0,0.0,0.0,0.0,0.0,0.0,0.0,0.0,0.0,0.0,0.0,0.0,0.0,0.0,0.0,0.0,0.0,0.0,0.0,0.0,0.0,0.0,0.0,0.0,0.0,0.0,0.0,0.0,0.0,0.0,0.0,0.0,0.0,0.0,0.0,0.0,0.0,0.0,0.0,0.0,0.0,0.0,0.0,0.0,0.0,0.0,0.0,0.0,0.0,0.0,0.0,0.0,0.0,0.0,0.0,0.0,0.0,0.0,0.0,0.0,0.0,0.0,0.0,0.0,0.0,1.4177,1.3663,1.3301,0.0,0.0,0.0,0.0,0.0,0.0,0.0,0.0,0.0,0.0,0.0,0.0,0.0,0.0,0.0,0.0,0.0,0.0,0.0,0.0,0.0,0.0,0.0,0.0,0.0,0.0,0.0,0.0,0.0,0.0,0.0,0.0,0.0,0.0,0.0,0.0,0.0,0.0,0.0,0.0,0.0,0.0,0.0,0.0,0.0,0.0,0.0,0.0,0.0,0.0,0.0,0.0,0.0,0.0,0.0,0.0,0.0,0.0,0.0,0.0,0.0,0.0,0.0,0.0,0.0,0.0,0.0,0.0,0.0,0.0,0.0,0.0,0.0,0.0,0.0,0.0,0.0,0.0,0.0,0.0,0.0,0.0,0.0,0.0,0.0,0.0,0.0,0.0,0.0,0.0,0.0,0.0,0.0,0.0,0.0,0.0,0.0,0.0,0.0,0.0,0.0,0.0,0.0,0.0,0.0,0.0,0.0,0.0,0.0,0.0,1.5603,1.5607,1.5496,0.0,1.3372,0.0,0.0,0.0,0.0,0.0,0.0,0.0,0.0,0.0,0.0,0.0,0.0,0.0,0.0,0.0,0.0,0.0,0.0,0.0,0.0,0.0,0.0,0.0,0.0,0.0,0.0,0.0,0.0,0.0,0.0,0.0,0.0,0.0,0.0,0.0,0.0,0.0,0.0,0.0,0.0,0.0,0.0,0.0,0.0,0.0,0.0,0.0,0.0,0.0,0.0,0.0,0.0,0.0,0.0,0.0,0.0,0.0,0.0,0.0,0.0,0.0,0.0,0.0,0.0,0.0,0.0,0.0,0.0,0.0,0.0,0.0,0.0,0.0,0.0,0.0,0.0,0.0,0.0,0.0,0.0,0.0,0.0,0.0,0.0,0.0,0.0,0.0,0.0,0.0,0.0,0.0,0.0,0.0,0.0,0.0,0.0,0.0,0.0,0.0,0.0,0.0,0.0,0.0,0.0,0.0,0.0,0.0,0.0,0.0,0.0,1.5931,1.6401,1.5967,1.5389,0.0,0.0,0.0,0.0,0.0,0.0,0.0,0.0,0.0,0.0,0.0,0.0,0.0,0.0,0.0,0.0,0.0,0.0,0.0,0.0,0.0,0.0,0.0,0.0,0.0,0.0,0.0,0.0,0.0,0.0,0.0,0.0,0.0,0.0,0.0,0.0,0.0,0.0,0.0,0.0,0.0,0.0,0.0,0.0,0.0,0.0,0.0,0.0,0.0,0.0,0.0,0.0,0.0,0.0,0.0,0.0,0.0,0.0,0.0,0.0,0.0,0.0,0.0,0.0,0.0,0.0,0.0,0.0,0.0,0.0,0.0,0.0,0.0,0.0,0.0,0.0,0.0,0.0,0.0,0.0,0.0,0.0,0.0,0.0,0.0,0.0,0.0,0.0,0.0,0.0,0.0,0.0,0.0,0.0,0.0,0.0,0.0,0.0,0.0,0.0,0.0,0.0,0.0,0.0,0.0,0.0,0.0,0.0,0.0,0.0,1.6117,1.6625,1.7168,1.6445,1.5934,1.5714,0.0,0.0,0.0,0.0,0.0,0.0,0.0,0.0,0.0,0.0,0.0,0.0,0.0,0.0,0.0,0.0,0.0,0.0,0.0,0.0,0.0,0.0,0.0,0.0,0.0,0.0,0.0,0.0,0.0,0.0,0.0,0.0,0.0,0.0,0.0,0.0,0.0,0.0,0.0,0.0,0.0,0.0,0.0,0.0,0.0,0.0,0.0,0.0,0.0,0.0,0.0,0.0,0.0,0.0,0.0,0.0,0.0,0.0,0.0,0.0,0.0,0.0,0.0,0.0,0.0,0.0,0.0,0.0,0.0,0.0,0.0,0.0,0.0,0.0,0.0,0.0,0.0,0.0,0.0,0.0,0.0,0.0,0.0,0.0,0.0,0.0,0.0,0.0,0.0,0.0,0.0,0.0,0.0,0.0,0.0,0.0,0.0,0.0,0.0,0.0,0.0,0.0,0.0,0.0,0.0,0.0,0.0,0.0,1.575,1.7179,1.8023,1.8016,1.7275,1.6508,0.0,0.0,0.0,0.0,0.0,0.0,0.0,0.0,0.0,0.0,0.0,0.0,0.0,0.0,0.0,0.0,0.0,0.0,0.0,0.0,0.0,0.0,0.0,0.0,0.0,0.0,0.0,0.0,0.0,0.0,0.0,0.0,0.0,0.0,0.0,0.0,0.0,0.0,0.0,0.0,0.0,0.0,0.0,0.0,0.0,0.0,0.0,0.0,0.0,0.0,0.0,0.0,0.0,0.0,0.0,0.0,0.0,0.0,0.0,0.0,0.0,0.0,0.0,0.0,0.0,0.0,0.0,0.0,0.0,0.0,0.0,0.0,0.0,0.0,0.0,0.0,0.0,0.0,0.0,0.0,0.0,0.0,0.0,0.0,0.0,0.0,0.0,0.0,0.0,0.0,0.0,0.0,0.0,0.0,0.0,0.0,0.0,0.0,0.0,0.0,0.0,0.0,0.0,0.0,0.0,0.0,0.0,0.0,0.0,1.6508,1.806,1.8871,1.8831,1.8093,1.7282,0.0,0.0,0.0,0.0,0.0,0.0,0.0,0.0,0.0,0.0,0.0,0.0,0.0,0.0,0.0,0.0,0.0,0.0,0.0,0.0,0.0,0.0,0.0,0.0,0.0,0.0,0.0,0.0,0.0,0.0,0.0,0.0,0.0,0.0,0.0,0.0,0.0,0.0,0.0,0.0,0.0,0.0,0.0,0.0,0.0,0.0,0.0,0.0,0.0,0.0,0.0,0.0,0.0,0.0,0.0,0.0,0.0,0.0,0.0,0.0,0.0,0.0,0.0,0.0,0.0,0.0,0.0,0.0,0.0,0.0,0.0,0.0,0.0,0.0,0.0,0.0,0.0,0.0,0.0,0.0,0.0,0.0,0.0,0.0,0.0,0.0,0.0,0.0,0.0,0.0,0.0,0.0,0.0,0.0,0.0,0.0,0.0,0.0,0.0,0.0,0.0,0.0,0.0,0.0,0.0,0.0,0.0,0.0,0.0,1.8049,0.0,1.9679,1.9679,1.8904,1.8019,0.0,0.0,0.0,0.0,0.0,0.0,0.0,0.0,0.0,0.0,0.0,0.0,0.0,0.0,0.0,0.0,0.0,0.0,0.0,0.0,0.0,0.0,0.0,0.0,0.0,0.0,0.0,0.0,0.0,0.0,0.0,0.0,0.0,0.0,0.0,0.0,0.0,0.0,0.0,0.0,0.0,0.0,0.0,0.0,0.0,0.0,0.0,0.0,0.0,0.0,0.0,0.0,0.0,0.0,0.0,0.0,0.0,0.0,0.0,0.0,0.0,0.0,0.0,0.0,0.0,0.0,0.0,0.0,0.0,0.0,0.0,0.0,0.0,0.0,0.0,0.0,0.0,0.0,0.0,0.0,0.0,0.0,0.0,0.0,0.0,0.0,0.0,0.0,0.0,0.0,0.0,0.0,0.0,0.0,0.0,0.0,0.0,0.0,0.0,0.0,0.0,0.0,0.0,0.0,0.0,0.0,0.0,0.0,1.8082,2.036,2.0474,2.0511,2.0511,1.9711,1.857,0.0,0.0,0.0,0.0,0.0,0.0,0.0,0.0,0.0,0.0,0.0,0.0,0.0,0.0,0.0,0.0,0.0,0.0,0.0,0.0,0.0,0.0,0.0,0.0,0.0,0.0,0.0,0.0,0.0,0.0,0.0,0.0,0.0,0.0,0.0,0.0,0.0,0.0,0.0,0.0,0.0,0.0,0.0,0.0,0.0,0.0,0.0,0.0,0.0,0.0,0.0,0.0,0.0,0.0,0.0,0.0,0.0,0.0,0.0,0.0,0.0,0.0,0.0,0.0,0.0,0.0,0.0,0.0,0.0,0.0,0.0,0.0,0.0,0.0,0.0,0.0,0.0,0.0,0.0,0.0,0.0,0.0,0.0,0.0,0.0,0.0,0.0,0.0,0.0,0.0,0.0,0.0,0.0,0.0,0.0,0.0,0.0,0.0,0.0,0.0,0.0,0.0,0.0,0.0,0.0,0.0,0.0,0.0,0.0,2.047,2.107,2.14,2.1368,2.0588,1.9373,0.0,0.0,0.0,0.0,0.0,0.0,0.0,0.0,0.0,0.0,0.0,0.0,0.0,0.0,0.0,0.0,0.0,0.0,0.0,0.0,0.0,0.0,0.0,0.0,0.0,0.0,0.0,0.0,0.0,0.0,0.0,0.0,0.0,0.0,0.0,0.0,0.0,0.0,0.0,0.0,0.0,0.0,0.0,0.0,0.0,0.0,0.0,0.0,0.0,0.0,0.0,0.0,0.0,0.0,0.0,0.0,0.0,0.0,0.0,0.0,0.0,0.0,0.0,0.0,0.0,0.0,0.0,0.0,0.0,0.0,0.0,0.0,0.0,0.0,0.0,0.0,0.0,0.0,0.0,0.0,0.0,0.0,0.0,0.0,0.0,0.0,0.0,0.0,0.0,0.0,0.0,0.0,0.0,0.0,0.0,0.0,0.0,0.0,0.0,0.0,0.0,0.0,0.0,0.0,0.0,0.0,0.0,0.0,0.0,2.1873,2.2134,2.2244,2.2249,2.1726,2.0511,1.8647,0.0,0.0,0.0,0.0,0.0,0.0,0.0,0.0,0.0,0.0,0.0,0.0,0.0,0.0,0.0,0.0,0.0,0.0,0.0,0.0,0.0,0.0,0.0,0.0,0.0,0.0,0.0,0.0,0.0,0.0,0.0,0.0,0.0,0.0,0.0,0.0,0.0,0.0,0.0,0.0,0.0,0.0,0.0,0.0,0.0,0.0,0.0,0.0,0.0,0.0,0.0,0.0,0.0,0.0,0.0,0.0,0.0,0.0,0.0,0.0,0.0,0.0,0.0,0.0,0.0,0.0,0.0,0.0,0.0,0.0,0.0,0.0,0.0,0.0,0.0,0.0,0.0,0.0,0.0,0.0,0.0,0.0,0.0,0.0,0.0,0.0,0.0,0.0,0.0,0.0,0.0,0.0,0.0,0.0,0.0,0.0,0.0,0.0,0.0,0.0,0.0,0.0,0.0,0.0,0.0,0.0,0.0,0.0,2.4263,2.3561,2.3226,2.3221,2.3121,2.1914,0.0,0.0,0.0,0.0,0.0,0.0,0.0,0.0,0.0,0.0,0.0,0.0,0.0,0.0,0.0,0.0,0.0,0.0,0.0,0.0,0.0,0.0,0.0,0.0,0.0,0.0,0.0,0.0,0.0,0.0,0.0,0.0,0.0,0.0,0.0,0.0,0.0,0.0,0.0,0.0,0.0,0.0,0.0,0.0,0.0,0.0,0.0,0.0,0.0,0.0,0.0,0.0,0.0,0.0,0.0,0.0,0.0,0.0,0.0,0.0,0.0,0.0,0.0,0.0,0.0,0.0,0.0,0.0,0.0,0.0,0.0,0.0,0.0,0.0,0.0,0.0,0.0,0.0,0.0,0.0,0.0,0.0,0.0,0.0,0.0,0.0,0.0,0.0,0.0,0.0,0.0,0.0,0.0,0.0,0.0,0.0,0.0,0.0,0.0,0.0,0.0,0.0,0.0,0.0,0.0,0.0,0.0,0.0,0.0,2.5044,2.5438,2.5648,2.5616,2.4515,2.302,0.0,0.0,0.0,0.0,0.0,0.0,0.0,0.0,0.0,0.0,0.0,0.0,0.0,0.0,0.0,0.0,0.0,0.0,0.0,0.0,0.0,0.0,0.0,0.0,0.0,0.0,0.0,0.0,0.0,0.0,0.0,0.0,0.0,0.0,0.0,0.0,0.0,0.0,0.0,0.0,0.0,0.0,0.0,0.0,0.0,0.0,0.0,0.0,0.0,0.0,0.0,0.0,0.0,0.0,0.0,0.0,0.0,0.0,0.0,0.0,0.0,0.0,0.0,0.0,0.0,0.0,0.0,0.0,0.0,0.0,0.0,0.0,0.0,0.0,0.0,0.0,0.0,0.0,0.0,0.0,0.0,0.0,0.0,0.0,0.0,0.0,0.0,0.0,0.0,0.0,0.0,0.0,0.0,0.0,0.0,0.0,0.0,0.0,0.0,0.0,0.0,0.0,0.0,0.0,0.0,0.0,0.0,0.0,2.5406,2.6869,2.7708,2.8117,2.8112,2.592,2.3974,0.0,0.0,0.0,0.0,0.0,0.0,0.0,0.0,0.0,0.0,0.0,0.0,0.0,0.0,0.0,0.0,0.0,0.0,0.0,0.0,0.0,0.0,0.0,0.0,0.0,0.0,0.0,0.0,0.0,0.0,0.0,0.0,0.0,0.0,0.0,0.0,0.0,0.0,0.0,0.0,0.0,0.0,0.0,0.0,0.0,0.0,0.0,0.0,0.0,0.0,0.0,0.0,0.0,0.0,0.0,0.0,0.0,0.0,0.0,0.0,0.0,0.0,0.0,0.0,0.0,0.0,0.0,0.0,0.0,0.0,0.0,0.0,0.0,0.0,0.0,0.0,0.0,0.0,0.0,0.0,0.0,0.0,0.0,0.0,0.0,0.0,0.0,0.0,0.0,0.0,0.0,0.0,0.0,0.0,0.0,0.0,0.0,0.0,0.0,0.0,0.0,0.0,0.0,0.0,0.0,0.0,0.0,0.0,2.6728,2.895,2.9873,3.032,3.024,2.7389,2.4965,0.0,0.0,0.0,0.0,0.0,0.0,0.0,0.0,0.0,0.0,0.0,0.0,0.0,0.0,0.0,0.0,0.0,0.0,0.0,0.0,0.0,0.0,0.0,0.0,0.0,0.0,0.0,0.0,0.0,0.0,0.0,0.0,0.0,0.0,0.0,0.0,0.0,0.0,0.0,0.0,0.0,0.0,0.0,0.0,0.0,0.0,0.0,0.0,0.0,0.0,0.0,0.0,0.0,0.0,0.0,0.0,0.0,0.0,0.0,0.0,0.0,0.0,0.0,0.0,0.0,0.0,0.0,0.0,0.0,0.0,0.0,0.0,0.0,0.0,0.0,0.0,0.0,0.0,0.0,0.0,0.0,0.0,0.0,0.0,0.0,0.0,0.0,0.0,0.0,0.0,0.0,0.0,0.0,0.0,0.0,0.0,0.0,0.0,0.0,0.0,0.0,0.0,0.0,0.0,0.0,0.0,0.0,0.0,2.786,2.8981,3.0393,3.1127,3.1133,2.9249,2.7163,0.0,0.0,0.0,0.0,0.0,0.0,0.0,0.0,0.0,0.0,0.0,0.0,0.0,0.0,0.0,0.0,0.0,0.0,0.0,0.0,0.0,0.0,0.0,0.0,0.0,0.0,0.0,0.0,0.0,0.0,0.0,0.0,0.0,0.0,0.0,0.0,0.0,0.0,0.0,0.0,0.0,0.0,0.0,0.0,0.0,0.0,0.0,0.0,2.0785,0.0,0.0,0.0,0.0,0.0,0.0,0.0,0.0,0.0,0.0,0.0,0.0,0.0,0.0,0.0,0.0,0.0,0.0,0.0,0.0,0.0,0.0,0.0,0.0,0.0,0.0,0.0,0.0,0.0,0.0,0.0,0.0,0.0,0.0,0.0,0.0,0.0,0.0,0.0,0.0,0.0,0.0,0.0,0.0,0.0,0.0,0.0,0.0,0.0,0.0,0.0,0.0,0.0,0.0,0.0,0.0,0.0,0.0,0.0,2.8925,3.0093,3.1311,3.1971,3.1935,3.0754,2.8815,0.0,0.0,0.0,0.0,0.0,0.0,0.0,0.0,0.0,0.0,0.0,0.0,0.0,0.0,0.0,0.0,0.0,0.0,0.0,0.0,0.0,0.0,0.0,0.0,0.0,0.0,0.0,0.0,0.0,0.0,0.0,0.0,0.0,0.0,0.0,0.0,0.0,0.0,0.0,0.0,0.0,0.0,0.0,0.0,0.0,0.0,0.0,0.0,0.0,0.0,0.0,0.0,0.0,0.0,0.0,0.0,0.0,0.0,0.0,0.0,0.0,0.0,0.0,0.0,0.0,0.0,0.0,0.0,0.0,0.0,0.0,0.0,0.0,0.0,0.0,0.0,0.0,0.0,0.0,0.0,0.0,0.0,0.0,0.0,0.0,0.0,0.0,0.0,0.0,0.0,0.0,0.0,0.0,0.0,0.0,0.0,0.0,0.0,0.0,0.0,0.0,0.0,0.0,0.0,0.0,0.0,0.0,2.7897,2.991,3.1354,3.2302,3.2766,3.2773,3.1898,2.9989,2.7084,0.0,0.0,0.0,0.0,0.0,0.0,0.0,0.0,0.0,0.0,0.0,0.0,0.0,0.0,0.0,0.0,0.0,0.0,0.0,0.0,0.0,0.0,0.0,0.0,0.0,0.0,0.0,0.0,0.0,0.0,0.0,0.0,0.0,0.0,0.0,0.0,0.0,0.0,1.9419,2.2052,0.0,0.0,0.0,0.0,0.0,0.0,0.0,0.0,2.5004,0.0,0.0,0.0,0.0,0.0,0.0,0.0,0.0,0.0,0.0,0.0,0.0,0.0,0.0,0.0,0.0,0.0,0.0,0.0,0.0,0.0,0.0,0.0,0.0,0.0,0.0,0.0,0.0,0.0,0.0,0.0,0.0,0.0,0.0,0.0,0.0,0.0,0.0,0.0,0.0,0.0,0.0,0.0,0.0,0.0,0.0,0.0,0.0,0.0,0.0,0.0,0.0,0.0,0.0,0.0,0.0,2.5411,2.8448,3.0473,3.139,3.2852,3.3623,3.3543,3.2161,3.0503,2.862,0.0,0.0,0.0,0.0,0.0,0.0,0.0,0.0,0.0,0.0,0.0,0.0,0.0,0.0,0.0,0.0,0.0,0.0,0.0,0.0,0.0,0.0,0.0,0.0,0.0,0.0,0.0,0.0,0.0,0.0,0.0,0.0,0.0,0.0,0.0,0.0,0.0,0.0,0.0,2.3959,2.4977,0.0,0.0,0.0,0.0,0.0,0.0,0.0,0.0,2.5322,0.0,0.0,0.0,0.0,0.0,0.0,0.0,0.0,0.0,0.0,0.0,0.0,0.0,0.0,0.0,0.0,0.0,0.0,0.0,0.0,0.0,0.0,0.0,0.0,0.0,0.0,0.0,0.0,0.0,0.0,0.0,0.0,0.0,0.0,0.0,0.0,0.0,0.0,0.0,0.0,0.0,0.0,0.0,0.0,0.0,0.0,0.0,0.0,0.0,0.0,0.0,0.0,0.0,0.0,0.0,2.6691,2.9414,3.1201,3.2008,3.3183,3.3807,3.377,3.2235,3.065,0.0,0.0,0.0,0.0,0.0,0.0,0.0,0.0,0.0,0.0,0.0,0.0,0.0,0.0,0.0,0.0,0.0,0.0,0.0,0.0,0.0,0.0,0.0,0.0,0.0,0.0,0.0,0.0,0.0,0.0,0.0,0.0,0.0,0.0,0.0,0.0,0.0,0.0,0.0,0.0,2.5509,2.6935,2.7332,0.0,0.0,0.0,0.0,0.0,0.0,2.7645,2.7017,0.0,0.0,0.0,0.0,0.0,0.0,0.0,0.0,0.0,0.0,0.0,0.0,0.0,0.0,0.0,0.0,0.0,0.0,0.0,0.0,0.0,0.0,0.0,0.0,0.0,0.0,0.0,0.0,0.0,0.0,0.0,0.0,0.0,0.0,0.0,0.0,0.0,0.0,0.0,0.0,0.0,0.0,0.0,0.0,0.0,0.0,0.0,0.0,0.0,0.0,0.0,0.0,0.0,0.0,0.0,2.7825,3.0215,3.1899,3.2829,3.3496,3.3894,3.399,3.2351,3.065,0.0,0.0,0.0,0.0,0.0,0.0,0.0,0.0,0.0,0.0,0.0,0.0,0.0,0.0,0.0,0.0,0.0,0.0,0.0,0.0,0.0,0.0,0.0,0.0,0.0,0.0,0.0,0.0,0.0,0.0,0.0,0.0,0.0,0.0,0.0,0.0,0.0,0.0,0.0,0.0,0.0,2.8734,2.906,3.0156,0.0,0.0,0.0,0.0,3.0842,2.9706,0.0,0.0,0.0,0.0,0.0,0.0,0.0,0.0,0.0,0.0,0.0,0.0,0.0,0.0,0.0,0.0,0.0,0.0,0.0,0.0,0.0,0.0,0.0,0.0,0.0,0.0,0.0,0.0,0.0,0.0,0.0,0.0,0.0,0.0,0.0,0.0,0.0,0.0,0.0,0.0,0.0,0.0,0.0,0.0,0.0,0.0,0.0,0.0,0.0,0.0,0.0,0.0,0.0,0.0,0.0,0.0,2.7949,3.0337,3.2262,3.3649,3.3826,3.4204,3.4821,3.2632,3.0656,0.0,0.0,0.0,0.0,0.0,0.0,0.0,0.0,0.0,0.0,0.0,0.0,0.0,0.0,0.0,0.0,0.0,0.0,0.0,0.0,0.0,0.0,0.0,0.0,0.0,0.0,0.0,0.0,0.0,0.0,0.0,0.0,0.0,0.0,0.0,0.0,0.0,0.0,0.0,0.0,0.0,2.9215,3.0602,3.1018,3.1167,0.0,0.0,3.1134,3.1068,3.0849,0.0,0.0,0.0,0.0,0.0,0.0,0.0,0.0,0.0,0.0,0.0,0.0,0.0,0.0,0.0,0.0,0.0,0.0,0.0,0.0,0.0,0.0,0.0,0.0,0.0,0.0,0.0,0.0,0.0,0.0,0.0,0.0,0.0,0.0,0.0,0.0,0.0,0.0,0.0,0.0,0.0,0.0,0.0,0.0,0.0,0.0,0.0,0.0,0.0,0.0,0.0,0.0,0.0,0.0,0.0,2.5743,2.864,3.1062,3.3081,3.4642,3.5128,3.5293,3.5185,3.3239,3.1225,0.0,0.0,0.0,0.0,0.0,0.0,0.0,0.0,0.0,0.0,0.0,0.0,0.0,0.0,0.0,0.0,0.0,0.0,0.0,0.0,0.0,0.0,0.0,0.0,0.0,0.0,0.0,0.0,0.0,0.0,0.0,0.0,0.0,0.0,0.0,0.0,0.0,0.0,0.0,0.0,0.0,0.0,3.2415,3.3325,0.0,0.0,0.0,3.3922,3.3887,0.0,0.0,0.0,0.0,0.0,0.0,0.0,0.0,0.0,0.0,0.0,0.0,0.0,0.0,0.0,0.0,0.0,0.0,0.0,0.0,0.0,0.0,0.0,0.0,0.0,0.0,0.0,0.0,0.0,0.0,0.0,0.0,0.0,0.0,0.0,0.0,0.0,0.0,0.0,0.0,0.0,0.0,0.0,0.0,0.0,0.0,0.0,0.0,0.0,0.0,0.0,0.0,0.0,0.0,0.0,0.0,0.0,2.9491,3.17,3.3765,3.5564,3.6206,3.6229,3.5611,3.3979,0.0,0.0,0.0,0.0,0.0,0.0,0.0,0.0,0.0,0.0,0.0,0.0,0.0,0.0,0.0,0.0,0.0,0.0,0.0,0.0,0.0,0.0,0.0,0.0,0.0,0.0,0.0,1.5751,0.0,0.0,0.0,0.0,0.0,0.0,0.0,0.0,0.0,0.0,0.0,0.0,0.0,0.0,3.387,3.4462,3.5615,3.6427,0.0,0.0,3.6609,3.6398,3.5352,3.4381,0.0,0.0,0.0,0.0,0.0,0.0,0.0,0.0,0.0,0.0,0.0,0.0,0.0,0.0,0.0,0.0,0.0,0.0,0.0,0.0,0.0,0.0,0.0,0.0,0.0,0.0,0.0,0.0,0.0,0.0,0.0,0.0,0.0,0.0,0.0,0.0,0.0,0.0,0.0,0.0,0.0,0.0,0.0,0.0,0.0,0.0,0.0,0.0,0.0,0.0,0.0,0.0,0.0,0.0,2.7231,3.0426,3.213,3.4136,3.6401,3.6562,3.6535,3.641,3.4872,3.2847,0.0,0.0,0.0,0.0,0.0,0.0,0.0,0.0,0.0,0.0,0.0,0.0,0.0,0.0,0.0,0.0,0.0,0.0,0.0,0.0,0.0,0.0,0.0,0.0,0.0,0.0,0.0,0.0,0.0,0.0,0.0,0.0,0.0,0.0,0.0,0.0,0.0,0.0,0.0,0.0,0.0,3.4533,3.6823,3.7286,3.7654,0.0,3.8519,3.827,3.7507,3.7234,3.664,3.5139,0.0,0.0,0.0,0.0,0.0,0.0,0.0,0.0,0.0,0.0,0.0,0.0,0.0,0.0,0.0,0.0,0.0,0.0,0.0,0.0,0.0,0.0,0.0,0.0,0.0,0.0,0.0,0.0,0.0,0.0,0.0,0.0,0.0,0.0,0.0,0.0,0.0,0.0,0.0,0.0,0.0,0.0,0.0,0.0,0.0,0.0,0.0,0.0,0.0,0.0,0.0,0.0,0.0,2.8059,3.1292,3.3447,3.5472,3.7334,3.789,3.7877,3.7367,3.5817,3.3771,0.0,0.0,0.0,0.0,0.0,0.0,0.0,0.0,0.0,0.0,0.0,0.0,0.0,0.0,0.0,0.0,0.0,0.0,0.0,0.0,0.0,0.0,0.0,0.0,0.0,0.0,0.0,0.0,2.1017,2.1725,2.3065,0.0,0.0,0.0,0.0,0.0,0.0,0.0,0.0,0.0,0.0,3.7323,3.8731,3.9371,0.0,0.0,4.0186,4.0076,3.9753,3.9297,3.8731,3.8108,3.7572,0.0,0.0,0.0,0.0,0.0,0.0,0.0,0.0,0.0,0.0,0.0,0.0,0.0,0.0,0.0,0.0,0.0,0.0,0.0,0.0,0.0,0.0,0.0,0.0,0.0,0.0,0.0,0.0,0.0,0.0,0.0,0.0,0.0,0.0,0.0,0.0,0.0,0.0,0.0,0.0,0.0,0.0,0.0,0.0,0.0,0.0,0.0,0.0,0.0,0.0,0.0,0.0,2.9131,3.2147,3.4376,3.6377,3.8228,3.8822,3.8822,3.8228,3.6934,3.5021,0.0,0.0,0.0,0.0,0.0,0.0,0.0,0.0,0.0,0.0,0.0,0.0,0.0,0.0,0.0,0.0,0.0,0.0,0.0,0.0,0.0,0.0,0.0,0.0,0.0,0.0,0.0,0.0,2.2891,2.3643,2.4809,0.0,0.0,0.0,0.0,0.0,0.0,0.0,0.0,0.0,0.0,3.979,4.0826,4.1662,4.2241,4.2498,4.2535,4.2461,4.2204,4.169,4.1258,4.1009,0.0,0.0,0.0,0.0,0.0,0.0,0.0,0.0,0.0,0.0,0.0,0.0,0.0,0.0,0.0,0.0,0.0,0.0,0.0,0.0,0.0,0.0,0.0,0.0,0.0,0.0,0.0,2.1791,0.0,0.0,2.0611,0.0,0.0,0.0,0.0,0.0,0.0,0.0,0.0,0.0,0.0,0.0,0.0,0.0,0.0,0.0,0.0,0.0,0.0,0.0,0.0,0.0,0.0,3.0554,3.2964,3.4717,3.6711,3.9015,3.912,3.9126,3.9052,3.8272,3.6668,3.4179,0.0,0.0,0.0,0.0,0.0,0.0,0.0,0.0,0.0,0.0,0.0,0.0,0.0,0.0,0.0,0.0,0.0,0.0,0.0,0.0,0.0,0.0,0.0,0.0,0.0,0.0,2.419,2.5574,2.6497,0.0,0.0,0.0,0.0,0.0,0.0,0.0,0.0,0.0,0.0,4.0039,4.1654,4.3212,4.4121,4.4847,4.5626,4.5773,4.5516,4.4737,4.4626,4.4342,0.0,0.0,0.0,0.0,0.0,0.0,0.0,0.0,0.0,0.0,0.0,0.0,0.0,0.0,0.0,0.0,0.0,0.0,0.0,0.0,0.0,0.0,0.0,0.0,0.0,0.0,0.0,2.7478,2.6711,0.0,0.0,0.0,0.0,0.0,0.0,0.0,0.0,0.0,0.0,0.0,3.3526,3.3563,0.0,0.0,0.0,0.0,0.0,0.0,0.0,0.0,0.0,0.0,0.0,0.0,3.2866,3.48,3.6963,3.8754,4.0052,4.0619,4.0598,4.0065,3.9253,3.7365,3.4296,0.0,0.0,0.0,0.0,0.0,0.0,0.0,0.0,0.0,0.0,0.0,0.0,0.0,0.0,0.0,0.0,0.0,0.0,0.0,0.0,0.0,0.0,0.0,0.0,0.0,2.602,0.0,0.0,0.0,0.0,0.0,0.0,0.0,0.0,0.0,0.0,0.0,3.8946,4.0855,4.2498,4.3892,4.4966,4.5801,4.6379,0.0,0.0,0.0,0.0,0.0,0.0,0.0,0.0,0.0,0.0,0.0,0.0,0.0,0.0,4.3758,4.1119,3.9975,3.9425,3.9433,0.0,0.0,0.0,0.0,0.0,0.0,0.0,0.0,0.0,0.0,0.0,0.0,0.0,0.0,3.2158,0.0,3.0601,0.0,0.0,0.0,0.0,0.0,0.0,0.0,0.0,3.4618,3.5754,3.701,3.7048,3.7054,0.0,3.7072,3.4967,0.0,0.0,0.0,0.0,0.0,0.0,0.0,0.0,3.4603,3.6502,3.8414,4.0052,4.1366,4.1665,4.1689,4.1334,4.0035,3.8039,3.5231,3.3085,3.1139,0.0,0.0,0.0,0.0,0.0,0.0,0.0,0.0,0.0,0.0,0.0,0.0,0.0,0.0,0.0,0.0,0.0,0.0,0.0,0.0,0.0,0.0,0.0,2.8342,0.0,0.0,0.0,0.0,0.0,0.0,0.0,0.0,0.0,3.8036,4.0092,4.2066,4.3387,4.5186,4.6581,4.7095,0.0,0.0,0.0,0.0,0.0,0.0,0.0,4.9187,4.9177,4.9407,4.9701,4.9948,4.9985,5.0021,4.9985,0.0,0.0,4.5076,4.3966,4.3599,4.3599,4.3564,4.3693,4.4234,4.4263,4.4739,0.0,0.0,0.0,0.0,0.0,0.0,0.0,0.0,3.695,3.6572,0.0,3.504,0.0,0.0,0.0,0.0,0.0,3.5209,0.0,0.0,3.8148,3.9036,3.9782,3.9864,3.982,3.9826,3.9912,3.9415,3.8284,3.4368,0.0,0.0,0.0,0.0,0.0,0.0,3.5773,3.8097,3.9106,4.0677,4.2875,4.2284,4.2247,4.2906,4.0738,3.872,3.7038,3.5403,3.3727,3.2024,2.9544,0.0,0.0,0.0,0.0,0.0,0.0,0.0,0.0,0.0,0.0,0.0,0.0,0.0,0.0,0.0,0.0,0.0,0.0,0.0,0.0,2.9638,0.0,0.0,0.0,0.0,0.0,0.0,0.0,0.0,0.0,0.0,4.1548,4.3387,4.5076,4.5929,0.0,0.0,0.0,0.0,5.0875,5.0912,5.0949,5.0949,5.0986,5.0975,5.0986,5.0986,0.0,0.0,5.3104,5.3251,5.3214,5.3251,5.3177,5.226,4.914,4.8443,4.837,4.837,4.8333,4.8406,4.8453,4.836,4.8847,4.3997,0.0,0.0,0.0,0.0,4.0856,4.1138,4.1152,4.1236,4.1166,4.0867,3.9532,0.0,0.0,0.0,0.0,0.0,0.0,4.0587,4.0936,4.2308,4.3435,4.431,4.4316,4.4316,4.431,4.4328,4.3577,4.2139,4.0331,3.7775,3.4549,0.0,0.0,0.0,0.0,3.8589,3.9373,4.1299,4.2648,4.3363,4.3695,4.3642,4.324,4.1894,4.0386,3.8757,3.7611,3.5993,3.379,3.1832,0.0,0.0,0.0,0.0,0.0,0.0,0.0,0.0,0.0,0.0,0.0,0.0,0.0,0.0,0.0,0.0,0.0,0.0,0.0,3.1355,3.3451,3.4959,0.0,0.0,0.0,0.0,0.0,0.0,0.0,0.0,0.0,4.8006,4.7224,4.7059,0.0,0.0,5.0655,5.1253,5.1977,5.27,5.3298,5.3849,0.0,5.4226,5.4226,5.4226,5.4216,5.441,5.463,5.4887,5.4913,5.4913,5.4913,5.4924,5.4557,5.3702,5.2564,5.1856,5.182,5.1783,5.1783,5.1783,5.182,5.2076,4.9931,4.7156,4.536,4.4623,4.4668,4.5154,4.5401,4.5416,4.5574,4.5289,4.4577,4.3683,4.2923,4.2316,4.1932,0.0,0.0,0.0,4.3911,4.4022,4.5292,4.6227,4.6757,4.6763,4.6763,4.6763,4.6757,4.6244,4.5279,4.4454,4.2721,4.0154,0.0,0.0,3.8094,3.9607,4.0698,4.1379,4.2804,4.3749,4.4046,4.4499,4.4334,4.3434,4.2848,4.1893,4.0565,3.9352,3.8009,3.6512,3.4186,3.2088,0.0,0.0,0.0,0.0,0.0,0.0,0.0,0.0,0.0,0.0,0.0,2.4926,2.5754,0.0,0.0,0.0,3.163,3.3664,3.5306,3.7076,0.0,0.0,0.0,0.0,0.0,0.0,0.0,4.7359,4.8501,5.0052,5.2419,5.1417,5.0749,5.1566,5.2334,5.3003,5.3481,0.0,5.4428,5.4954,5.5395,5.5727,5.5727,5.5727,5.5837,5.6205,5.6231,5.6389,5.6647,5.6721,5.6831,5.7089,5.7129,5.7206,5.7537,5.6757,5.5563,5.4399,5.4142,5.4142,5.4142,5.4132,5.4399,5.5042,5.407,5.1087,4.9724,4.9587,4.9596,4.9566,4.9545,4.9721,4.8905,4.7446,4.7469,4.6679,4.5243,4.5286,0.0,4.5366,4.6282,4.6736,4.6742,4.7633,4.8005,4.8005,4.8049,4.8049,4.8011,4.7973,4.7926,4.7896,4.7105,4.6686,4.6489,4.2618,4.0897,4.1374,4.1407,4.2166,4.3678,4.3792,4.4204,4.49,4.4871,4.4461,4.3748,4.3655,4.3196,4.2309,4.0697,3.9758,3.9526,3.6486,3.4315,3.3424,0.0,0.0,0.0,0.0,0.0,0.0,0.0,0.0,0.0,0.0,0.0,0.0,0.0,0.0,3.2402,3.5376,0.0,3.9544,4.0547,0.0,0.0,0.0,4.4542,4.6936,4.719,4.8424,5.1639,0.0,0.0,5.5323,5.5511,5.534,5.5081,5.5564,5.595,5.5987,5.5966,5.604,5.6103,5.6114,5.6114,5.624,5.6314,5.6646,5.7337,5.7433,5.7791,5.8419,5.8567,5.891,5.9427,5.9559,5.9638,6.046,6.0207,5.9477,5.6562,5.6073,5.6025,5.6099,5.6099,5.6356,5.6584,5.6321,5.5547,5.4334,5.2959,5.3106,5.2828,5.2273,5.2421,5.1918,5.1027,5.0485,4.9723,4.8821,4.884,4.8883,4.8976,4.9864,5.03,5.047,5.1241,5.1647,5.1731,5.1725,5.1725,5.1693,5.1086,5.0479,4.9795,4.8957,4.8229,4.7611,4.659,4.5135,4.3324,4.3243,4.3454,4.3911,4.4559,4.499,4.5131,4.5068,4.4908,4.4665,4.4653,4.422,4.3302,4.2245,4.107,3.9777,3.8235,3.6743,3.5317,3.3387,0.0,0.0,0.0,0.0,0.0,0.0,0.0,0.0,0.0,3.1416,3.2851,0.0,3.5967,0.0,3.9189,4.1239,4.228,4.4233,0.0,0.0,4.7079,4.8694,5.045,5.0676,5.1727,5.4346,5.4683,5.535,5.7218,5.7351,5.7492,5.8004,5.6945,5.6286,5.6841,5.6943,5.7111,5.7628,5.7787,5.7813,5.7861,5.833,5.8747,5.8984,5.9512,6.0029,6.0214,6.0251,6.0288,6.0473,6.0487,6.0538,6.0759,6.0619,6.0364,5.958,5.9352,5.9245,5.9245,5.9208,5.9281,5.8345,5.8345,5.8345,5.7708,5.6634,5.5898,5.5333,5.4965,5.5106,5.4519,5.3398,5.2361,5.1681,5.1338,5.1355,5.1403,5.1476,5.1973,5.22,5.2301,5.2761,5.2964,5.3031,5.3031,5.3031,5.2992,5.2538,5.2094,5.1655,5.1162,5.0504,4.9698,4.9314,4.8204,4.6383,4.5903,4.5755,4.5781,4.624,4.6492,4.6423,4.596,4.5709,4.5675,4.5276,4.4794,4.4274,4.3421,4.2509,4.1542,3.99,3.8554,3.7659,3.5598,3.4261,0.0,0.0,0.0,0.0,0.0,0.0,0.0,0.0,0.0,0.0,0.0,4.0115,4.2064,4.3527,4.4885,4.6135,4.784,4.9004,4.9381,5.0552,5.2017,5.3632,5.3828,5.4613,5.671,5.6937,5.7402,5.8632,5.9106,5.9429,5.9919,5.9252,5.8542,5.8131,5.8002,5.8147,5.8592,5.9001,5.9409,5.9717,6.0152,6.0449,6.0486,6.082,6.1117,6.1117,6.1074,6.1152,6.1486,6.1519,6.155,6.1883,6.1853,6.1771,6.1748,6.1665,6.1263,6.0578,6.0407,6.0407,6.0267,6.0229,6.0153,6.0078,5.9956,5.8202,5.741,5.7334,5.7504,5.671,5.5229,5.4008,5.3479,5.3497,5.3483,5.3497,5.3502,5.3387,5.3354,5.3366,5.336,5.3366,5.3322,5.3366,5.3322,5.336,5.3245,5.324,5.3294,5.3173,5.2712,5.1977,5.1296,5.0561,4.9816,4.9051,4.846,4.8033,4.7989,4.8028,4.8023,4.7164,4.6652,4.6494,4.5704,4.5256,4.5125,4.4292,4.3785,4.3672,4.1416,4.0142,4.0091,3.7926,3.668,0.0,3.5907,0.0,0.0,0.0,0.0,0.0,0.0,0.0,0.0,4.219,4.4455,4.7553,4.7824,4.8533,5.0274,5.1205,5.2041,5.2845,5.368,5.4819,5.6322,5.6543,5.7165,5.8788,5.8978,5.9241,6.0038,6.0741,6.1152,6.112,6.1484,6.1178,5.9862,5.9446,5.9435,5.937,5.9978,6.0658,6.1256,6.1566,6.1667,6.1695,6.1823,6.1807,6.1877,6.1767,6.1901,6.255,6.2606,6.2646,6.3328,6.3299,6.3193,6.3107,6.2963,6.2475,6.1251,6.086,6.0701,6.2199,6.2123,6.1384,6.1118,6.1034,5.9976,5.9132,5.847,5.8562,5.8149,5.7315,5.7123,5.7053,5.7039,5.6367,5.6095,5.6142,5.5412,5.5127,5.5215,5.5215,5.5171,5.5176,5.5215,5.5176,5.5138,5.4556,5.422,5.4231,5.3533,5.311,5.2956,5.2764,5.261,5.2451,0.0,0.0,0.0,4.8054,4.8077,4.8073,4.7864,4.7369,4.6712,4.65,0.0,4.5295,4.4444,4.3933,4.383,4.2672,0.0,0.0,0.0,0.0,0.0,0.0,0.0,0.0,0.0,0.0,0.0,4.5899,4.572,4.5937,4.7478,4.9027,5.0384,5.0549,5.1253,5.2992,5.3922,5.48,5.5645,5.6446,5.736,5.8344,5.8431,5.9026,6.0661,6.0852,6.1186,6.1901,6.2233,6.2222,6.2189,6.2273,6.2158,6.1833,6.1412,6.1271,6.1289,6.1449,6.1552,6.1702,6.233,6.2713,6.2708,6.3229,6.3497,6.3424,6.3382,6.3387,6.3649,6.3606,6.3541,6.3687,6.3613,6.35,6.3407,6.3242,6.3037,6.2622,6.2402,6.2352,6.284,6.2802,6.2419,6.2242,0.0,6.1363,6.0731,6.0275,5.9858,5.9234,5.8572,5.8253,5.8111,5.8153,5.7716,5.7559,5.7582,5.712,5.6939,5.6973,5.6973,5.7011,5.6973,5.6549,5.6324,5.6324,5.5478,5.5088,5.5088,5.4664,5.4241,5.3857,5.3857,5.3626,5.3197,5.3197,5.212,5.0005,4.9601,4.9399,4.9361,4.8884,4.8437,4.7976,4.7563,0.0,0.0,0.0,0.0,0.0,0.0,0.0,0.0,4.3487,0.0,4.3242,4.2865,4.3191,4.4454,4.4961,4.6309,4.8842,5.0568,5.0917,4.9505,5.0963,5.2309,5.3244,5.3703,5.4517,5.5798,5.6365,5.6958,5.7761,5.8259,5.8979,6.0164,6.0398,6.0874,6.1936,6.2206,6.2367,6.2757,6.3092,6.322,6.3218,6.3549,6.3752,6.3689,6.2802,6.219,6.255,6.2654,6.2786,6.3154,6.3483,6.3765,6.382,6.4063,6.4259,6.4247,6.4186,6.4135,6.4094,6.4069,6.3958,6.3851,6.3802,6.3725,6.3624,6.35,6.3373,6.3218,6.3039,6.2892,6.3448,6.3455,6.337,6.3314,6.3282,6.247,6.2017,6.1825,0.0,0.0,0.0,5.8894,5.8655,5.8629,5.8566,5.8506,5.8506,5.8352,5.8275,5.8275,5.8275,5.8275,5.8236,5.7594,5.7209,5.7209,5.6511,5.6093,5.5939,5.5939,5.5516,5.478,5.4703,5.4357,5.3659,5.351,5.3082,5.2351,5.1548,5.1053,5.0894,5.0168,4.9605,4.9336,4.86,4.7846,4.6982,4.6949,4.6617,4.5921,4.5854,4.5834,4.5793,4.576,4.5842,4.6,4.5995,4.6437,4.7458,4.8191,4.9395,5.1267,5.4066,5.4712,5.2285,5.3709,5.5065,5.5836,5.6543,5.7327,5.822,5.8315,5.866,5.9459,5.969,6.0374,6.1678,6.2055,6.238,6.3154,6.3291,6.3312,6.3447,6.3916,6.426,6.429,6.4748,6.525,6.5065,6.3937,6.3208,6.3679,6.3813,6.4004,6.4509,6.4642,6.4699,6.4614,6.4643,6.4671,6.4624,6.4521,6.4424,6.4364,6.4274,6.4172,6.4,6.3968,6.3915,6.3834,6.3736,6.3661,6.3648,6.3487,6.3369,6.5242,6.5165,6.4496,6.4227,6.4151,6.3275,6.258,6.1895,6.0975,6.0559,6.0487,6.0378,6.0376,6.0385,5.966,5.9358,5.9281,5.8627,5.8275,5.8275,5.8275,5.8275,5.828,5.8165,5.8121,5.8088,5.7973,5.755,5.6901,5.6824,5.6401,5.5631,5.5555,5.5439,5.5285,5.4664,5.4241,5.4126,5.328,5.2467,5.1736,5.161,5.0841,4.9462,4.9303,4.8779,4.7967,4.7885,4.7823,4.7662,4.7662,4.7619,4.7609,4.7647,4.7921,4.8578,4.8654,4.9344,5.0927,5.1196,5.2264,5.4565,5.5913,5.6125,5.5092,5.6528,5.7582,5.7741,5.7862,5.8252,5.9025,5.9183,5.9565,6.041,6.1172,6.1748,6.2055,6.2586,6.3289,6.4126,6.4221,6.4475,6.4953,6.5245,6.53,6.5339,6.5379,6.5501,6.5382,6.5107,6.4886,6.4929,6.4967,6.4997,6.5023,6.5086,6.5036,6.4984,6.492,6.4906,6.4743,6.4698,6.4643,6.4568,6.4539,6.4452,6.4284,6.4244,6.4237,6.407,6.4022,6.4154,6.464,6.4679,6.448,6.5701,6.567,6.5364,6.5192,6.5154,6.4308,6.3438,6.2688,6.224,6.1555,6.0778,6.0746,6.0757,6.0748,6.0396,6.0204,6.0165,5.9819,5.9665,5.9665,5.9665,5.9665,5.9627,5.9165,5.8967,5.8934,5.8506,5.8083,5.7747,5.7703,5.7511,5.7088,5.667,5.617,5.5708,5.5324,5.517,5.5131,5.3857,5.3005,5.262,5.2582,5.2005,5.0774,5.0774,5.0154,4.8866,4.8822,4.8582,4.8058,4.8985,4.9446,4.9485,5.033,5.0978,5.1329,5.1367,5.1713,5.2515,5.3404,5.4595,5.6203,5.7509,5.8123,5.7701,5.8363,5.8812,5.8844,5.9264,5.9705,6.0083,6.0151,6.0509,6.1361,6.1861,6.2431,6.3271,6.3674,6.427,6.5038,6.5197,6.5324,6.5663,6.5667,6.5601,6.5601,6.5601,6.5587,6.5559,6.5472,6.5383,6.5266,6.5234,6.5256,6.5223,6.5207,6.5153,6.5111,6.5103,6.5078,6.4993,6.4984,6.4915,6.479,6.4754,6.468,6.4538,6.4839,6.4928,6.4868,6.5218,6.5577,6.5761,6.6015,6.5968,6.6274,6.6095,6.6147,6.6058,6.5865,6.5166,6.4397,6.3622,6.3583,6.2743,6.1473,6.1172,6.1095,6.1095,6.0902,6.0781,6.0781,6.0781,6.0781,6.0781,6.0781,6.0781,6.0742,6.0089,5.9781,5.9704,5.9165,5.8781,5.8588,5.8583,5.8473,5.8236,5.7632,5.694,5.6319,5.6093,5.5978,5.5901,5.4511,5.3697,5.351,5.351,5.3082,5.2274,5.2192,5.1582,5.0356,5.024,4.9971,4.9389,5.0548,5.1284,5.1323,5.2472,5.3274,5.3467,5.3505,5.3664,5.4087,5.5434,5.6665,5.7478,5.8742,5.9588,5.9737,5.974,5.971,5.9793,6.0334,6.0742,6.0781,6.0973,6.1364,6.2018,6.248,6.3205,6.4359,6.4782,6.5128,6.5776,6.5852,6.5775,6.5807,6.5728,6.5663,6.5663,6.5694,6.5649,6.5674,6.5667,6.5576,6.5436,6.5368,6.536,6.529,6.5298,6.529,6.5266,6.5495,6.5585,6.5599,6.5612,6.5753,6.5676,6.5568,6.5573,6.5388,6.57,6.5991,6.5946,6.6261,6.6694,6.6731,6.7296,6.7361,6.7692,6.7045,6.6974,6.6551,6.5942,6.582,6.5282,6.4551,6.4474,6.3974,6.3045,6.2326,6.1979,6.1864,6.1172,6.0858,6.0819,6.0819,6.0781,6.0781,6.0781,6.0781,6.0781,6.0704,6.0671,6.0627,6.0512,6.005,5.9396,5.9396,5.9011,5.8396,5.8204,5.8121,5.7934,5.7247,5.6863,5.6863,5.5939,5.5131,5.4434,5.4395,5.3972,5.3121,5.3082,5.3005,5.2702,5.2851,5.2774,5.2736,5.2818,5.2967,5.2967,5.3126,5.3587,5.4357,5.4395,5.5016,5.6478,5.7517,5.8357,5.9165,5.9396,5.9858,6.055,6.0621,6.066,6.066,6.0742,6.0781,6.0858,6.1479,6.1979,6.2326,6.3441,6.4474,6.4705,6.532,6.582,6.5865,6.5891,6.5891,6.5878,6.5872,6.5833,6.5821,6.5814,6.584,6.5793,6.578,6.576,6.5594,6.5566,6.5559,6.553,6.5559,6.5501,6.5534,6.6146,6.6384,6.6413,6.6891,6.7499,6.6933,6.7131,6.6996,6.6973,6.7146,6.7004,6.6983,6.7063,6.7119,6.761,6.8204,6.822,6.8199,6.7859,6.7898,6.7398,6.6673,6.6596,6.6128,6.5397,6.5359,6.5166,6.4743,6.3935,6.3281,6.2781,6.1941,6.1556,6.1518,6.1056,6.0781,6.0781,6.0781,6.0781,6.0781,6.0781,6.0781,6.0781,6.0781,6.0627,6.0319,6.0281,5.9819,5.9088,5.9011,5.8781,5.8319,5.7934,5.778,5.778,5.7434,5.7088,5.6665,5.5747,5.4818,5.4087,5.3972,5.3697,5.328,5.3197,5.3197,5.3236,5.3703,5.3972,5.3972,5.49,5.5593,5.5978,5.6472,5.7044,5.7703,5.855,5.9165,5.9511,5.9973,6.0435,6.0748,6.0781,6.0781,6.0781,6.0781,6.0979,6.1518,6.1864,6.248,6.3397,6.4205,6.4782,6.532,6.5667,6.5904,6.5904,6.5904,6.5904,6.5904,6.5904,6.5904,6.5904,6.5904,6.5885,6.5859,6.5859,6.5846,6.5781,6.5775,6.5728,6.5667,6.5601,6.5587,6.5712,6.6243,6.6712,6.6835,6.73,6.7825,6.7812,6.7829,6.777,6.7511,6.7974,6.811,6.8045,6.8381,6.857,6.8752,6.8924,6.8769,6.893,6.8737,6.8507,6.8052,6.7475,6.7475,6.6974,6.6282,6.6211,6.6096,6.582,6.5243,6.4628,6.3929,6.2897,6.2441,6.2364,6.1749,6.1358,6.1172,6.1172,6.1018,6.0819,6.0781,6.0781,6.0781,6.0781,6.0781,6.0781,6.0781,6.0473,5.9935,5.9858,5.9588,5.9011,5.8781,5.8621,5.8588,5.8434,5.8275,5.8083,5.7049,5.6016,5.5247,5.4934,5.4516,5.3928,5.4126,5.4241,5.428,5.5088,5.5549,5.5588,5.6709,5.7363,5.744,5.8165,5.8621,5.8627,5.9396,5.9858,5.9896,6.0473,6.0781,6.0781,6.0781,6.0902,6.1172,6.1172,6.1479,6.1985,6.2518,6.3364,6.4436,6.4743,6.5243,6.5782,6.5904,6.5904,6.5904,6.5904,6.5904,6.5904,6.5904,6.5904,6.5904,6.5904,6.5904,6.5904,6.5897,6.5897,6.5904,6.5897,6.5821,6.5722,6.5715,6.5656,6.5929,6.6469,6.7276,6.727,6.7921,6.8631,6.9009,6.8641,6.8515,6.8735,6.9037,6.9082,6.9067,6.9265,6.9532,6.9361,6.9332,6.9225,7.036,6.9552,6.8783,6.8468,6.8353,6.8353,6.7859,6.7051,6.7058,6.6628,6.6019,6.5897,6.5827,6.559,6.4012,6.3275,6.3237,6.3121,6.2666,6.2095,6.2056,6.1595,6.0819,6.0781,6.0819,6.0819,6.0781,6.0781,6.0781,6.0781,6.0781,6.0704,6.0666,6.0666,6.0473,5.9819,5.9473,5.9396,5.8819,5.839,5.8352,5.8242,5.7742,5.6901,5.6093,5.5665,5.567,5.6401,5.6786,5.6786,5.7511,5.8006,5.8083,5.8159,5.8242,5.8357,5.9011,5.9473,5.955,6.0204,6.0666,6.071,6.0748,6.0819,6.0935,6.0935,6.1248,6.1979,6.2095,6.221,6.2403,6.3474,6.432,6.4666,6.5359,6.5782,6.5859,6.5904,6.5904,6.5904,6.5904,6.5904,6.5904,6.5904,6.5904,6.5904,6.5904,6.5904,6.5904,6.5904,6.5904,6.5904,6.5904,6.5897,6.5891,6.5821,6.5833,6.6069,6.6866,6.8021,6.8616,6.9146,6.9749,7.0151,6.9895,6.9845,7.0078,7.0068,6.9914,6.9786,6.9636,6.9689,6.9607,6.9457,6.9363,7.0744,7.0437,7.0129,6.9744,6.9237,6.9244,6.8744,6.7975,6.7936,6.7436,6.6789,6.6673,6.6365,6.5865,6.5243,6.4666,6.4122,6.3545,6.3121,6.2897,6.2897,6.2435,6.171,6.1633,6.1287,6.0858,6.0781,6.0781,6.0781,6.0781,6.0781,6.0781,6.0781,6.0781,6.0742,6.0517,6.0319,6.0319,6.0012,5.9896,5.9819,5.9358,5.8896,5.8588,5.7819,5.7357,5.7357,5.7665,5.7857,5.7819,5.8127,5.8275,5.8352,5.8781,5.9319,5.9858,6.0165,6.0319,6.0358,6.0627,6.0781,6.0781,6.0781,6.1095,6.1518,6.1633,6.1979,6.2743,6.3397,6.3672,6.3782,6.4282,6.482,6.5359,6.5673,6.5904,6.5904,6.5904,6.5904,6.5904,6.5904,6.5904,6.5904,6.5904,6.5904,6.5904,6.5904,6.5904,6.5904,6.5904,6.5904,6.5904,6.5904,6.5904,6.5904,6.5897,6.5962,6.6359,6.7011,6.7819,6.85,6.9567,7.0308,7.0274,7.0361,7.0353,7.029,7.023,7.0147,7.0059,6.991,6.9796,6.9717,6.96,6.9529,7.1328,7.1283,7.1014,7.0591,7.0129,7.009,6.9629,6.8853,6.8814,6.8314,6.7628,6.7513,6.7058,6.6365,6.6288,6.582,6.5013,6.4391,6.3968,6.3737,6.3737,6.3281,6.2589,6.248,6.2056,6.1281,6.0896,6.0781,6.0781,6.0781,6.0781,6.0781,6.0781,6.0781,6.0781,6.0781,6.0781,6.0781,6.0781,6.0781,6.0704,6.0248,5.9896,5.9858,5.9396,5.8819,5.8352,5.8544,5.8704,5.8742,5.8934,5.9127,5.9165,5.9627,6.0165,6.071,6.0781,6.0781,6.0781,6.0781,6.0941,6.121,6.1248,6.1595,6.2364,6.248,6.2897,6.3628,6.4205,6.4666,6.4974,6.5013,6.5282,6.5782,6.5904,6.5904,6.5904,6.5904,6.5904,6.5904,6.5904,6.5904,6.5904,6.5904,6.5904,6.5904,6.5904,6.5904,6.5904,6.5904,6.5904,6.5904,6.5904,6.5904,6.6019,6.6167,6.609,6.6417,6.7325,6.8025,6.8637,6.9789,7.0477,7.0443,7.0411,7.0411,7.0386,7.0336,7.0234,7.0111,7.0012,6.991,6.9815,6.9738,6.9659,7.2213,7.2098,7.1283,7.0975,7.0898,7.0821,7.0398,6.9783,6.9699,6.9199,6.8475,6.8391,6.7936,6.725,6.7019,6.6596,6.5981,6.5705,6.5243,6.4666,6.4628,6.4128,6.3352,6.3314,6.2897,6.2095,6.1248,6.0864,6.0941,6.0864,6.0781,6.0781,6.0781,6.0781,6.0781,6.0781,6.0781,6.0781,6.0781,6.0781,6.0781,6.0704,6.0671,6.0704,6.0627,5.9935,5.8506,5.9121,5.9511,5.9588,6.0242,6.0742,6.0594,6.0666,6.0781,6.0864,6.0858,6.0858,6.0935,6.1012,6.1435,6.1941,6.2095,6.2441,6.3166,6.3314,6.3698,6.4436,6.4705,6.4974,6.5628,6.5782,6.5788,6.5904,6.5904,6.5904,6.5904,6.5904,6.5904,6.5904,6.5904,6.5904,6.5904,6.5904,6.5904,6.5904,6.5904,6.5904,6.5942,6.6019,6.5981,6.6019,6.6282,6.6551,6.6513,6.6513,6.6397,6.65,6.7633,6.8562,6.8874,6.9712,7.0354,7.0435,7.0411,7.0411,7.0402,7.0361,7.0311,7.0208,7.0111,7.0012,6.9929,6.9844,6.9777,7.3091,7.2976,7.2168,7.179,7.1706,7.1168,7.0744,7.0552,7.0552,7.0052,6.9398,6.9321,6.8821,6.8013,6.7398,6.6981,6.6705,6.6167,6.5743,6.5551,6.548,6.5013,6.4352,6.4205,6.3782,6.2935,6.2095,6.1672,6.1595,6.1133,6.0781,6.0781,6.0819,6.0781,6.0781,6.0781,6.0781,6.0781,6.0781,6.0781,6.0781,6.0781,6.0781,6.0781,6.0781,6.0512,6.0089,6.0281,6.0396,6.0396,6.0633,6.0781,6.0819,6.0781,6.1095,6.1595,6.1672,6.1973,6.2435,6.2506,6.2583,6.2858,6.2935,6.3358,6.4051,6.4199,6.4551,6.532,6.5474,6.5667,6.582,6.5904,6.5904,6.5904,6.5904,6.5904,6.5904,6.5904,6.5904,6.5904,6.5904,6.5904,6.5904,6.5942,6.5981,6.6019,6.6019,6.6013,6.6019,6.6474,6.6712,6.675,6.709,6.7391,6.7417,6.7512,6.7531,6.7511,6.8269,6.8803,6.9121,6.9582,7.0185,7.0443,7.0419,7.0411,7.0402,7.0386,7.0344,7.0302,7.0217,7.0129,7.003,6.9938,6.9863,7.393,7.3853,7.3053,7.2668,7.2591,7.1745,7.1398,7.1321,7.1014,7.0629,7.0206,7.0167,6.9667,6.8891,6.8282,6.7859,6.7513,6.6744,6.6327,6.6282,6.5981,6.559,6.5051,6.4705,6.4359,6.3743,6.2935,6.2557,6.2512,6.2012,6.1589,6.1364,6.1287,6.1095,6.0819,6.0781,6.0781,6.0781,6.0781,6.0781,6.0781,6.0781,6.0781,6.0781,6.0781,6.0781,6.0781,6.0781,6.0781,6.0864,6.1095,6.1287,6.1325,6.1589,6.1973,6.2397,6.2551,6.2781,6.3237,6.3198,6.3468,6.366,6.3775,6.416,6.4859,6.5089,6.5397,6.5782,6.5865,6.5904,6.5904,6.5904,6.5904,6.5904,6.5904,6.5904,6.5904,6.5904,6.5904,6.5904,6.5904,6.6019,6.625,6.6365,6.6519,6.6705,6.6821,6.6821,6.6936,6.7282,6.7475,6.7628,6.7853,6.8109,6.8274,6.8471,6.8699,6.874,6.8973,6.9128,6.9299,6.9873,7.0443,7.0435,7.0411,7.0411,7.0402,7.0411,7.0378,7.0344,7.0341,7.0226,7.0129,7.003,6.9948,7.4776,7.4661,7.3892,7.3546,7.3469,7.2629,7.229,7.2129,7.1398,7.1052,7.0975,7.086,7.0437,6.986,6.9513,6.9045,6.843,6.759,6.7058,6.6827,6.6404,6.5942,6.5705,6.5128,6.4782,6.4589,6.3775,6.3391,6.3352,6.3121,6.2935,6.221,6.2133,6.1749,6.1172,6.0896,6.0902,6.0819,6.0781,6.0781,6.0781,6.0781,6.0781,6.0819,6.0896,6.0973,6.0979,6.1127,6.105,6.1018,6.1749,6.2172,6.2287,6.2891,6.316,6.3314,6.3391,6.3468,6.3468,6.3737,6.3974,6.4589,6.4705,6.4974,6.5634,6.575,6.575,6.5865,6.5904,6.5904,6.5904,6.6058,6.6096,6.6058,6.6051,6.5942,6.5904,6.5942,6.6096,6.6096,6.6051,6.632,6.7096,6.7167,6.7513,6.7936,6.8122,6.8084,6.8122,6.816,6.8391,6.8584,6.8731,6.9005,6.9278,6.934,6.9534,6.9543,6.962,6.959,6.9605,7.0109,7.0435,7.0419,7.0411,7.0411,7.0411,7.0411,7.0411,7.0386,7.0344,7.0341,7.031,7.0243,7.0419,7.5668,7.5553,7.4738,7.4392,7.4276,7.3514,7.3168,7.3046,7.2245,7.1867,7.1713,7.1168,7.0821,7.0514,6.9937,6.9552,6.9199,6.8468,6.7628,6.7135,6.6942,6.6404,6.5981,6.5673,6.5513,6.5397,6.4666,6.4282,6.4199,6.3698,6.3275,6.3006,6.2974,6.2551,6.1864,6.1749,6.1364,6.0858,6.0819,6.0864,6.0858,6.0858,6.0781,6.0864,6.1441,6.1749,6.1826,6.2358,6.232,6.1864,6.2551,6.2974,6.3012,6.3275,6.3698,6.4166,6.4282,6.4551,6.5013,6.5128,6.5282,6.5513,6.5513,6.5667,6.5827,6.5904,6.5904,6.5904,6.5904,6.5942,6.6019,6.6442,6.6974,6.7475,6.6744,6.6051,6.6096,6.6442,6.6789,6.6827,6.7321,6.7705,6.7975,6.8084,6.8199,6.843,6.8545,6.8584,6.8776,6.9084,6.936,6.9563,6.9742,7.0053,7.0227,7.0278,7.0287,7.0294,7.0263,7.0163,7.0185,7.0322,7.0435,7.0411,7.0411,7.0411,7.0411,7.0411,7.0411,7.0487,7.0547,7.059,7.0684,7.0674,7.1051,7.5976,7.5976,7.5476,7.5238,7.513,7.4361,7.4007,7.3853,7.3122,7.2514,7.2168,7.1675,7.1245,7.086,7.0398,7.0206,7.009,6.9321,6.8699,6.8167,6.7443,6.6673,6.6058,6.5904,6.5904,6.5865,6.5397,6.5166,6.5089,6.4628,6.4237,6.3891,6.3814,6.3397,6.2666,6.2595,6.2358,6.1935,6.1858,6.1858,6.1858,6.1858,6.1858,6.1935,6.2358,6.2589,6.2704,6.3391,6.3474,6.2974,6.3352,6.3852,6.3891,6.4205,6.4628,6.5128,6.5128,6.5397,6.575,6.5904,6.5904,6.5981,6.6134,6.6365,6.6519,6.6705,6.6936,6.7013,6.6936,6.6936,6.7013,6.7398,6.7859,6.8122,6.7507,6.6974,6.6974,6.7398,6.759,6.7782,6.8084,6.8584,6.8859,6.893,6.9122,6.9398,6.9629,6.959,6.9629,6.9975,7.0192,7.028,7.0308,7.0458,7.0469,7.0486,7.0416,7.0461,7.0483,7.0443,7.0558,7.0528,7.0427,7.0411,7.0411,7.0449,7.0525,7.0602,7.0678,7.0763,7.0839,7.1128,7.1384,7.1561,7.1855,7.5976,7.5976,7.5976,7.5976,7.5822,7.5168,7.4853,7.47,7.3969,7.3238,7.2629,7.229,7.1752,7.1014,7.0898,7.086,7.0821,7.0129,6.9783,6.909,6.8129,6.6974,6.6513,6.6013,6.5904,6.5904,6.5904,6.582,6.5705,6.5743,6.5442,6.4897,6.4705,6.4237,6.3622,6.3429,6.3391,6.3121,6.3006,6.2968,6.2968,6.2968,6.2968,6.3006,6.3314,6.3551,6.382,6.4275,6.4397,6.3622,6.432,6.4666,6.482,6.5513,6.5788,6.5865,6.5897,6.6058,6.6096,6.6288,6.6282,6.6442,6.6936,6.7205,6.7359,6.7782,6.8084,6.8084,6.8353,6.8276,6.843,6.8545,6.8699,6.8853,6.8699,6.866,6.866,6.8584,6.8545,6.8545,6.8584,6.9084,6.9507,6.9898,7.0052,7.0129,7.0321,7.0321,7.0269,7.0448,7.0581,7.0623,7.0643,7.0661,7.0624,7.0577,7.0483,7.0443,7.0435,7.0457,7.0733,7.0694,7.0495,7.0449,7.0678,7.0793,7.0801,7.0877,7.1145,7.145,7.1794,7.2253,7.2665,7.2728,7.2926,7.5976,7.5976,7.5976,7.5976,7.5976,7.5822,7.5707,7.563,7.4815,7.4276,7.386,7.2822,7.2136,7.1867,7.1206,7.0898,7.0898,7.0629,7.0321,6.9552,6.866,6.8084,6.7545,6.6667,6.5974,6.5936,6.5904,6.5904,6.5904,6.5865,6.582,6.5628,6.5436,6.5205,6.4429,6.4282,6.3935,6.3429,6.3352,6.3468,6.3468,6.3468,6.3468,6.3506,6.4006,6.4666,6.5243,6.5513,6.5513,6.5436,6.5474,6.559,6.559,6.5782,6.5981,6.6134,6.6558,6.6865,6.6942,6.7359,6.7821,6.7705,6.7898,6.8129,6.8129,6.8314,6.8468,6.8391,6.8391,6.8814,6.9314,6.943,6.9629,7.0014,7.0167,7.0206,7.0244,6.9783,6.9475,6.9513,6.9898,7.0437,7.0591,7.0552,7.0706,7.0898,7.0898,7.0898,7.0878,7.085,7.0801,7.0758,7.0723,7.0693,7.0984,7.1027,7.1148,7.1077,7.0992,7.0984,7.1183,7.1145,7.106,7.1022,7.1068,7.1183,7.1412,7.1909,7.2291,7.2559,7.275,7.3055,7.3352,7.3632,7.3882,7.6984,7.663,7.6592,7.6361,7.6015,7.5976,7.5976,7.5899,7.5553,7.5053,7.4514,7.3322,7.2591,7.2136,7.1321,7.0898,7.0898,7.0898,7.0667,7.0129,6.943,6.9045,6.8776,6.7782,6.6936,6.659,6.6481,6.6288,6.6019,6.5904,6.5904,6.5904,6.5904,6.5667,6.5282,6.5166,6.5013,6.4705,6.4512,6.4512,6.4512,6.4512,6.4512,6.4551,6.4974,6.5474,6.582,6.5865,6.5865,6.5974,6.625,6.625,6.6051,6.6244,6.6442,6.6596,6.7244,6.7667,6.7898,6.8084,6.8353,6.843,6.8776,6.8968,6.9122,6.9314,6.9545,6.9584,6.9622,6.9821,7.0206,7.0244,7.0552,7.0744,7.0898,7.0898,7.0821,7.0514,7.0283,7.0321,7.0591,7.0744,7.0898,7.1014,7.1014,7.1052,7.1007,7.1007,7.0836,7.0808,7.0774,7.0715,7.0639,7.0769,7.1188,7.153,7.1972,7.1985,7.2062,7.2062,7.2215,7.2024,7.1794,7.1833,7.1909,7.2138,7.2414,7.2911,7.3284,7.3476,7.3628,7.3781,7.4087,7.449,7.4719,7.8099,7.7484,7.7369,7.6868,7.6245,7.6053,7.5976,7.5976,7.5976,7.5553,7.4853,7.4046,7.3245,7.2399,7.1552,7.1091,7.0898,7.0898,7.0783,7.0667,7.0167,6.9898,6.9667,6.909,6.8398,6.7558,6.7366,6.6942,6.6327,6.6051,6.6096,6.5942,6.5904,6.5827,6.5859,6.5865,6.5743,6.559,6.559,6.5628,6.5673,6.5673,6.5673,6.5711,6.5711,6.5782,6.5865,6.5904,6.5981,6.6096,6.6712,6.675,6.6667,6.6821,6.7282,6.7321,6.8129,6.8545,6.866,6.8776,6.893,6.8814,6.9398,6.9821,7.0014,7.0321,7.0552,7.0706,7.0667,7.0667,7.0898,7.0783,7.0821,7.0898,7.0898,7.0898,7.0937,7.0975,7.1052,7.0821,7.086,7.0937,7.1168,7.1321,7.1245,7.1245,7.1238,7.1217,7.1122,7.1142,7.1298,7.1421,7.1534,7.157,7.1912,7.2087,7.2529,7.2711,7.2864,7.3017,7.3102,7.3017,7.2826,7.2788,7.2864,7.3055,7.3331,7.3713,7.4049,7.4278,7.4431,7.4584,7.4936,7.5433,7.5424,7.8407,7.8253,7.7561,7.7215,7.6984,7.6322,7.6015,7.5976,7.5976,7.5938,7.563,7.4853,7.3969,7.3168,7.236,7.1629,7.1052,7.0898,7.0898,7.0898,7.0667,7.0591,7.0475,7.0283,6.986,6.9283,6.8629,6.7859,6.7096,6.6904,6.6667,6.609,6.5981,6.5981,6.5981,6.5904,6.5904,6.5904,6.5904,6.5904,6.5904,6.5904,6.5904,6.5904,6.5904,6.5936,6.5974,6.5974,6.6205,6.6827,6.7019,6.7436,6.7821,6.8122,6.8237,6.8353,6.8975,6.9475,6.9507,7.0052,7.036,7.0514,7.0514,7.0629,7.0706,7.0783,7.0898,7.0898,7.0898,7.0898,7.0898,7.0898,7.0898,7.0898,7.0975,7.1052,7.1168,7.1514,7.1745,7.1398,7.1206,7.1245,7.1706,7.2052,7.2129,7.2269,7.2371,7.2373,7.2316,7.2402,7.2556,7.263,7.274,7.2745,7.2834,7.2873,7.3093,7.3208,7.3399,7.3667,7.3781,7.3972,7.3934,7.3781,7.3781,7.3972,7.424,7.4516,7.4745,7.4936,7.5127,7.5318,7.5395,7.5509,7.5509,7.9592,7.9131,7.8746,7.8092,7.733,7.6861,7.6399,7.6015,7.5976,7.5976,7.5745,7.5091,7.4238,7.343,7.2591,7.1713,7.1091,7.0898,7.0898,7.0898,7.0898,7.0898,7.0898,7.0898,7.0706,7.0283,6.9821,6.8936,6.7859,6.7782,6.7513,6.7205,6.6782,6.6519,6.6404,6.609,6.5981,6.5942,6.5942,6.5942,6.5942,6.5942,6.5936,6.5897,6.5981,6.6096,6.6474,6.6513,6.6936,6.7667,6.8205,6.8629,6.9013,6.936,6.9468,6.9321,6.9821,7.0283,7.0321,7.0706,7.0821,7.086,7.0898,7.0898,7.0898,7.0898,7.0975,7.0937,7.0898,7.0898,7.0898,7.0975,7.1091,7.1475,7.1591,7.1783,7.2168,7.2629,7.2476,7.2206,7.2437,7.2622,7.2699,7.2969,7.3084,7.3262,7.3471,7.349,7.3461,7.3468,7.3504,7.347,7.3471,7.3654,7.3705,7.3858,7.3866,7.3943,7.4019,7.4287,7.4469,7.466,7.4698,7.4669,7.4745,7.4736,7.4898,7.5089,7.5356,7.5509,7.5509,7.5509,7.5471,7.5509,7.57,8.0708,8.0046,7.9854,7.9015,7.7861,7.74,7.6899,7.6322,7.6053,7.5976,7.5899,7.5284,7.4546,7.3661,7.2668,7.1706,7.0937,7.0898,7.0898,7.0898,7.0898,7.0898,7.0898,7.0898,7.086,7.0783,7.0706,7.0129,6.8936,6.866,6.8584,6.8122,6.759,6.7359,6.7244,6.6898,6.6436,6.6397,6.6397,6.6397,6.6397,6.6397,6.6397,6.6397,6.6397,6.6782,6.7282,6.7359,6.7821,6.8552,6.9206,6.9738,6.9975,7.0552,7.0552,7.0167,7.0591,7.0821,7.086,7.086,7.1014,7.1245,7.1206,7.1245,7.1514,7.1706,7.1552,7.1437,7.1514,7.1591,7.1706,7.1514,7.1822,7.2206,7.2514,7.2668,7.3161,7.3507,7.3661,7.3623,7.3853,7.3853,7.3776,7.3808,7.3923,7.4341,7.4542,7.4382,7.4358,7.418,7.4145,7.4032,7.4134,7.4401,7.4584,7.486,7.486,7.486,7.4898,7.5013,7.5165,7.5356,7.5318,7.5242,7.5242,7.5242,7.5433,7.5509,7.5509,7.5548,7.5624,7.5777,7.5968,7.6274,7.657,8.1054,8.0862,8.0123,7.9662,7.9246,7.7938,7.7292,7.7061,7.6322,7.6015,7.5976,7.5822,7.5284,7.4245,7.2822,7.1745,7.1129,7.0898,7.0898,7.0898,7.0898,7.0898,7.0898,7.0898,7.0898,7.0898,7.0898,7.0398,6.9706,6.9545,6.9161,6.866,6.8468,6.8237,6.8205,6.7853,6.8122,6.8045,6.8045,6.8007,6.7975,6.793,6.793,6.7968,6.7968,6.8007,6.8167,6.8282,6.8667,6.9398,6.9629,7.0052,7.0591,7.0821,7.086,7.0783,7.086,7.0898,7.0975,7.1052,7.1398,7.186,7.2021,7.2437,7.2668,7.2892,7.2892,7.3206,7.3084,7.2969,7.2853,7.3046,7.3238,7.3276,7.3353,7.3392,7.3738,7.4392,7.4553,7.4707,7.4822,7.4784,7.4707,7.4731,7.4793,7.5241,7.5526,7.5333,7.5138,7.488,7.4762,7.4694,7.4669,7.4898,7.5013,7.5318,7.5471,7.5509,7.5548,7.5586,7.5739,7.5815,7.5739,7.57,7.5739,7.5853,7.6044,7.5968,7.5662,7.5853,7.635,7.6494,7.657,7.6953,7.7335,8.1093,8.1054,8.0662,8.0246,7.9669,7.8477,7.7715,7.7176,7.6399,7.5976,7.5976,7.5976,7.5284,7.4007,7.2706,7.1745,7.1052,7.0898,7.0898,7.0898,7.0898,7.0898,7.0898,7.0898,7.0898,7.0898,7.0898,7.0821,7.0398,7.0321,7.0129,6.9783,6.936,6.9129,6.9084,6.8622,6.843,6.8353,6.8353,6.8391,6.8391,6.8391,6.843,6.843,6.843,6.8699,6.9045,6.9167,6.9552,7.0206,7.036,7.0514,7.0783,7.0898,7.0898,7.0937,7.1398,7.1629,7.1668,7.1629,7.2129,7.2668,7.2937,7.3084,7.343,7.3546,7.3546,7.3469,7.3469,7.3546,7.3584,7.3507,7.3815,7.4007,7.4199,7.4469,7.4668,7.5091,7.5476,7.563,7.5668,7.5469,7.5346,7.5377,7.5302,7.5472,7.5679,7.5523,7.5441,7.5328,7.5285,7.5336,7.5318,7.5356,7.5356,7.5471,7.5548,7.5624,7.5624,7.5777,7.615,7.6265,7.6312,7.6656,7.7029,7.7029,7.6838,7.657,7.6379,7.6761,7.722,7.7335,7.7449,7.7526,7.7946,8.1093,8.1093,8.1093,8.0708,8.0054,7.9208,7.8369,7.7522,7.6707,7.6207,7.6015,7.5938,7.5168,7.3892,7.2976,7.2168,7.1251,7.1014,7.0898,7.0898,7.0898,7.0898,7.0898,7.0898,7.0898,7.0898,7.0898,7.086,7.086,7.0821,7.0783,7.086,7.0244,7.0014,6.9821,6.9545,6.9237,6.9237,6.9199,6.9199,6.9161,6.9122,6.9122,6.9084,6.9084,6.9314,6.9898,7.0014,7.0398,7.0667,7.0821,7.0821,7.0898,7.0898,7.1091,7.1321,7.186,7.2406,7.2591,7.2822,7.3053,7.3553,7.4084,7.4276,7.4245,7.413,7.4123,7.4315,7.4315,7.4238,7.4123,7.4199,7.4546,7.4892,7.5053,7.5476,7.5784,7.5784,7.5784,7.5822,7.5853,7.587,7.5793,7.5862,7.5856,7.5787,7.5747,7.5704,7.5706,7.5697,7.5641,7.5662,7.5624,7.57,7.5968,7.5891,7.5853,7.593,7.5968,7.6274,7.6838,7.7067,7.7182,7.764,7.8099,7.8099,7.7879,7.7487,7.7182,7.7487,7.7793,7.8175,7.8328,7.8404,7.8634,8.1093,8.1093,8.1093,8.1054,8.09,8.0085,7.9208,7.8253,7.7476,7.6707,7.6053,7.5938,7.5476,7.4546,7.3707,7.2937,7.2091,7.1283,7.1206,7.1129,7.0937,7.1168,7.1245,7.1245,7.1129,7.1129,7.1129,7.1052,7.0898,7.0937,7.0937,7.086,7.0667,7.0783,7.0706,7.0398,7.0314,7.0314,7.036,7.0437,7.0437,7.0475,7.0514,7.0552,7.0629,7.0744,7.0821,7.0706,7.0706,7.0898,7.0898,7.0898,7.0898,7.1052,7.136,7.1822,7.2399,7.3091,7.3707,7.3745,7.3899,7.4546,7.513,7.5476,7.5361,7.5668,7.5745,7.5553,7.5322,7.5476,7.5592,7.5784,7.5553,7.5553,7.5553,7.5707,7.5899,7.5938,7.5938,7.5976,7.6,7.6024,7.624,7.6264,7.624,7.6169,7.6394,7.6378,7.6152,7.613,7.5938,7.5853,7.5777,7.6006,7.657,7.6647,7.6723,7.6953,7.7105,7.7411,7.7831,7.7984,7.8022,7.8328,7.871,7.8825,7.891,7.8596,7.8366,7.8252,7.8443,7.8939,7.9283,7.9398,7.9704,8.1093,8.1093,8.1093,8.1093,8.1016,8.0169,7.9285,7.8446,7.7638,7.683,7.5976,7.5938,7.5515,7.4822,7.443,7.3776,7.3046,7.2738,7.2469,7.2507,7.2514,7.2476,7.2469,7.2399,7.2507,7.2322,7.2014,7.1706,7.1713,7.136,7.0975,7.0898,7.1052,7.0898,7.0898,7.0898,7.0898,7.0898,7.0898,7.0898,7.0898,7.0898,7.0898,7.0898,7.0898,7.0898,7.0898,7.0898,7.0898,7.0898,7.0898,7.0937,7.1091,7.1398,7.1867,7.2399,7.3053,7.3976,7.4469,7.4507,7.4668,7.5322,7.5784,7.5976,7.5976,7.5976,7.5976,7.5976,7.5976,7.5976,7.5976,7.5938,7.5899,7.5976,7.5976,7.5976,7.6053,7.6053,7.6169,7.6284,7.6231,7.6216,7.6417,7.6654,7.6583,7.6539,7.6837,7.6997,7.6817,7.6723,7.6647,7.6609,7.657,7.68,7.7373,7.7564,7.764,7.7908,7.8213,7.8443,7.871,7.8787,7.891,7.913,7.9398,7.9589,7.9704,7.9665,7.9513,7.9321,7.9513,7.9933,8.02,8.0286,8.0401,8.1093,8.1093,8.1093,8.1093,8.1016,8.0439,7.9515,7.8523,7.7946,7.6976,7.6015,7.5976,7.5707,7.5161,7.4738,7.443,7.3853,7.3546,7.3469,7.3392,7.3353,7.3507,7.3507,7.343,7.3238,7.3315,7.3014,7.2591,7.2552,7.1937,7.1898,7.186,7.1629,7.1552,7.0898,7.0898,7.0898,7.0898,7.0898,7.0898,7.0898,7.0898,7.0898,7.0898,7.0898,7.0898,7.0898,7.0898,7.0898,7.0898,7.0937,7.1052,7.1398,7.186,7.2406,7.3168,7.3899,7.4776,7.5014,7.5168,7.5361,7.5822,7.5938,7.5976,7.5976,7.5976,7.5976,7.5976,7.5976,7.5976,7.5976,7.5976,7.5976,7.5976,7.5976,7.6015,7.6169,7.6284,7.6438,7.6553,7.6677,7.7086,7.7299,7.7593,7.7548,7.7411,7.7329,7.7544,7.7535,7.7526,7.7602,7.7602,7.764,7.7946,7.8328,7.8404,7.8519,7.9092,7.9321,7.9321,7.9522,7.956,7.9675,7.9866,8.0124,8.043,8.0353,8.0124,8.0238,8.0353,8.043,8.0353,8.0391,8.0401,8.0439,8.1093,8.1093,8.1093,8.1093,8.1093,8.1054,8.0092,7.8677,7.833,7.74,7.6092,7.5976,7.5976,7.5707,7.5168,7.4853,7.4623,7.4046,7.3776,7.3892,7.4007,7.3738,7.3738,7.3815,7.4007,7.3584,7.3469,7.343,7.3469,7.3084,7.3122,7.3122,7.2853,7.2392,7.1052,7.0898,7.0898,7.0898,7.0898,7.0898,7.0898,7.0898,7.0898,7.0898,7.0898,7.0898,7.0898,7.0898,7.0975,7.1168,7.1129,7.1475,7.2168,7.236,7.3091,7.4315,7.4591,7.5168,7.5784,7.5899,7.5938,7.5976,7.5976,7.5976,7.5976,7.5976,7.5976,7.5976,7.5976,7.5976,7.5976,7.6053,7.613,7.6245,7.6284,7.6515,7.6746,7.6899,7.7138,7.7238,7.7816,7.8351,7.8513,7.8641,7.8591,7.8423,7.8108,7.8099,7.829,7.8481,7.8672,7.871,7.8748,7.8901,7.9169,7.9216,7.9484,8.0047,8.0238,8.0086,8.0095,8.0133,8.0286,8.0506,8.0506,8.0506,8.0506,8.0468,8.0506,8.0506,8.0506,8.0468,8.0506,8.0506,8.0506,8.1093,8.1093,8.1093,8.1093,8.1093,8.1093,8.04,7.9285,7.8207,7.7061,7.6169,7.5976,7.5976,7.5861,7.5745,7.5515,7.5438,7.5438,7.5168,7.5091,7.5014,7.5168,7.513,7.4969,7.5046,7.4976,7.47,7.4276,7.4315,7.3969,7.3584,7.3469,7.3584,7.286,7.1898,7.1321,7.0898,7.0898,7.0898,7.0898,7.0937,7.0975,7.0975,7.1014,7.1052,7.1052,7.1091,7.1129,7.1321,7.1706,7.1752,7.2206,7.3014,7.3322,7.4053,7.4815,7.5091,7.5668,7.5938,7.5976,7.5976,7.6015,7.6015,7.6015,7.6015,7.5976,7.5976,7.6092,7.6245,7.6207,7.5976,7.663,7.6907,7.7099,7.7253,7.7676,7.7907,7.7984,7.8099,7.8069,7.8438,7.884,7.9097,7.9401,7.9435,7.9522,7.9245,7.936,7.9551,7.9704,7.9895,7.9856,7.9895,7.9933,7.998,7.9866,7.9866,8.0238,8.043,8.0391,8.043,8.0506,8.0506,8.0506,8.0506,8.0506,8.0506,8.0506,8.0506,8.0506,8.0506,8.0506,8.0506,8.0506,8.0506,8.1093,8.1093,8.1093,8.1093,8.1093,8.1093,8.0477,7.9246,7.79,7.6784,7.613,7.5976,7.5976,7.5976,7.5976,7.5976,7.5976,7.5976,7.5976,7.5976,7.5976,7.5861,7.5899,7.5976,7.5784,7.5822,7.5553,7.5161,7.5161,7.4623,7.4507,7.4469,7.4046,7.3699,7.2976,7.2437,7.193,7.2014,7.2052,7.1968,7.1975,7.1937,7.1898,7.1898,7.1898,7.1898,7.1822,7.186,7.2014,7.2476,7.2745,7.3053,7.3853,7.4353,7.4853,7.5245,7.5592,7.5976,7.5976,7.5976,7.613,7.6515,7.6207,7.6169,7.6361,7.6515,7.6784,7.6861,7.6784,7.6823,7.6938,7.7599,7.7715,7.7907,7.8099,7.8484,7.86,7.8638,7.8977,7.8954,7.9175,7.945,7.961,7.9977,8.021,8.0353,8.043,8.0506,8.0506,8.0506,8.0506,8.0468,8.043,8.0315,8.0315,8.0324,8.0362,8.0468,8.0506,8.0506,8.0506,8.0506,8.0506,8.0506,8.0506,8.0506,8.0506,8.0506,8.0506,8.0506,8.0506,8.0506,8.0506,8.0506,8.0506,8.1093,8.1093,8.1093,8.1093,8.1093,8.1093,8.0131,7.8523,7.7715,7.6861,7.6015,7.5976,7.5976,7.5976,7.5976,7.5976,7.5976,7.5976,7.5976,7.5976,7.5976,7.5976,7.5976,7.5976,7.5976,7.5976,7.5861,7.5707,7.5938,7.563,7.563,7.563,7.5007,7.4707,7.4322,7.3969,7.3392,7.3122,7.2969,7.293,7.293,7.3122,7.3007,7.3007,7.3007,7.3046,7.3046,7.3122,7.3276,7.3469,7.3546,7.4046,7.4469,7.47,7.5284,7.5707,7.5938,7.5976,7.6015,7.6015,7.6476,7.6907,7.6669,7.6746,7.7053,7.7323,7.7522,7.783,7.7946,7.8138,7.8369,7.8446,7.8561,7.8677,7.8754,7.8907,7.9023,7.9254,7.9708,7.9961,8.0241,8.0404,8.0254,8.0477,8.0506,8.0506,8.0506,8.0506,8.0506,8.0506,8.0506,8.0506,8.0468,8.0506,8.0506,8.0506,8.0506,8.0506,8.0506,8.0506,8.0506,8.0506,8.0506,8.0506,8.0506,8.0506,8.0506,8.0506,8.0506,8.0506,8.0506,8.0506,8.0506,8.0506,8.0506,8.1093,8.1093,8.1093,8.1093,8.1093,8.1093,8.0092,7.8561,7.8215,7.74,7.5976,7.5976,7.5976,7.5976,7.5976,7.5976,7.5976,7.5976,7.5976,7.5976,7.5976,7.5976,7.5976,7.5976,7.5976,7.5976,7.5976,7.5976,7.5976,7.5976,7.5976,7.5861,7.5668,7.5553,7.5476,7.5361,7.4546,7.393,7.3738,7.3738,7.3699,7.3738,7.3699,7.3738,7.3738,7.3738,7.3738,7.3699,7.3853,7.4276,7.4315,7.4738,7.5515,7.563,7.5861,7.5899,7.5976,7.6015,7.6092,7.6553,7.7092,7.7515,7.7553,7.7869,7.8099,7.8215,7.8369,7.8677,7.8869,7.8946,7.91,7.9208,7.9323,7.9477,7.9631,7.99,7.9977,8.0092,8.0469,8.0475,8.0783,8.0646,8.0571,8.0506,8.0506,8.0506,8.0506,8.0506,8.0506,8.0506,8.0506,8.0506,8.0506,8.0506,8.0506,8.0506,8.0506,8.0506,8.0506,8.0506,8.0506,8.0506,8.0506,8.0506,8.0506,8.0506,8.0506,8.0506,8.0506,8.0506,8.0506,8.0506,8.0506,8.0506,8.0506,8.1093,8.1093,8.1093,8.1093,8.1093,8.1093,8.0285,7.9092,7.8677,7.7715,7.6561,7.613,7.5976,7.5976,7.5976,7.5976,7.5976,7.5976,7.5976,7.5976,7.5976,7.5976,7.5976,7.5976,7.5976,7.5976,7.5976,7.5976,7.5976,7.5976,7.5976,7.5976,7.5976,7.5976,7.5938,7.5784,7.5438,7.4899,7.4553,7.4469,7.443,7.4437,7.4469,7.4392,7.4392,7.4392,7.4392,7.4392,7.4738,7.5161,7.52,7.5392,7.5976,7.5976,7.5976,7.5976,7.5976,7.6245,7.6553,7.6976,7.7592,7.8207,7.8707,7.9131,7.9246,7.9361,7.9477,7.9631,7.96,7.9638,7.9785,7.9939,8.0131,8.0323,8.0669,8.0977,8.1016,8.1016,8.1007,8.0904,8.0835,8.0705,8.0607,8.0552,8.0506,8.0506,8.0506,8.0506,8.0506,8.0506,8.0506,8.0506,8.0506,8.0506,8.0515,8.0525,8.0525,8.0525,8.0506,8.0506,8.0515,8.0582,8.0621,8.0582,8.0506,8.0544,8.0621,8.0544,8.0506,8.0506,8.0506,8.0506,8.0506,8.0506,8.0506,8.1093,8.1093,8.1093,8.1093,8.1093,8.1093,8.0631,7.9823,7.8938,7.8023,7.7176,7.6361,7.5976,7.5976,7.5976,7.5976,7.5976,7.5976,7.5976,7.5976,7.5976,7.5976,7.5976,7.5976,7.5976,7.5976,7.5976,7.5976,7.5976,7.5976,7.5976,7.5976,7.5976,7.5976,7.5976,7.5976,7.5784,7.563,7.5553,7.5592,7.5707,7.5861,7.5976,7.5861,7.5822,7.5822,7.5861,7.5938,7.5976,7.5976,7.5976,7.5938,7.5976,7.5976,7.5976,7.613,7.6169,7.6599,7.7092,7.7592,7.8438,7.9169,7.9862,8.0169,8.0246,8.0169,8.0208,8.0362,8.0362,8.04,8.0516,8.0554,8.0669,8.0746,8.0939,8.1093,8.1093,8.1077,8.1045,8.0934,8.0843,8.0714,8.0607,8.0552,8.0515,8.0506,8.0506,8.0506,8.0515,8.0515,8.0525,8.0525,8.0515,8.0525,8.0552,8.0562,8.0523,8.0514,8.0552,8.0772,8.0982,8.0925,8.0773,8.1003,8.1241,8.0888,8.0812,8.0697,8.0582,8.0506,8.0506,8.0506,8.0506,8.0506,8.0506,8.1093,8.1093,8.1093,8.1093,8.1093,8.1093,8.0977,8.0631,7.9131,7.8099,7.7253,7.6476,7.5976,7.5976,7.5976,7.5976,7.5976,7.5976,7.5976,7.5976,7.5976,7.5976,7.5976,7.5976,7.5976,7.5976,7.5976,7.5976,7.5976,7.5976,7.5976,7.5976,7.5976,7.5976,7.5976,7.5976,7.5976,7.5976,7.5976,7.5976,7.5976,7.5976,7.5976,7.5976,7.5976,7.5976,7.5976,7.5976,7.5976,7.5976,7.5976,7.5976,7.5976,7.6015,7.6015,7.6092,7.6669,7.7138,7.7676,7.84,7.9238,7.9785,8.0323,8.0746,8.0939,8.0862,8.0862,8.1016,8.1093,8.1093,8.1093,8.1093,8.1093,8.1093,8.1093,8.1093,8.1093,8.1069,8.1037,8.0926,8.0835,8.0741,8.0634,8.0571,8.0525,8.0506,8.0506,8.0515,8.0525,8.0525,8.0552,8.0552,8.0525,8.0534,8.058,8.0625,8.0596,8.0747,8.0841,8.1121,8.1467,8.1689,8.1843,8.2015,8.212,8.1652,8.1156,8.0812,8.0697,8.0582,8.0506,8.0506,8.0506,8.0506,8.0506,8.1093,8.1093,8.1093,8.1093,8.1093,8.1093,8.1093,8.0823,7.9669,7.86,7.7676,7.663,7.5976,7.6015,7.5976,7.5976,7.5976,7.5976,7.5976,7.5976,7.5976,7.5976,7.5976,7.5976,7.5976,7.5976,7.5976,7.5976,7.5976,7.5976,7.5976,7.5976,7.5976,7.5976,7.5976,7.6015,7.6015,7.5976,7.6053,7.6092,7.6092,7.6053,7.6015,7.5976,7.6015,7.6053,7.5976,7.5976,7.5976,7.5976,7.5976,7.5976,7.613,7.6438,7.6561,7.683,7.733,7.8015,7.8515,7.9169,8.0008,8.04,8.0669,8.1054,8.1054,8.0977,8.0977,8.1093,8.1093,8.1093,8.1093,8.1093,8.1093,8.1093,8.1093,8.1093,8.1093,8.1077,8.1037,8.0926,8.086,8.0792,8.0658,8.0587,8.0532,8.0506,8.0506,8.0562,8.0523,8.0542,8.0598,8.0607,8.0607,8.0625,8.0697,8.0723,8.0723,8.0843,8.1086,8.1763,8.2323,8.2701,8.2989,8.298,8.276,8.2225,8.1767,8.1347,8.0812,8.0582,8.0544,8.0506,8.0506,8.0506,8.0582,8.1093,8.1093,8.1093,8.1093,8.1093,8.1093,8.1093,8.0939,8.0123,7.9285,7.833,7.6861,7.6207,7.6015,7.5976,7.5976,7.5976,7.5976,7.5976,7.5976,7.5976,7.5976,7.5976,7.5976,7.5976,7.5976,7.5976,7.5976,7.5976,7.5976,7.5976,7.5976,7.5976,7.5976,7.6015,7.6169,7.6284,7.6399,7.6476,7.6476,7.6322,7.6207,7.6245,7.6245,7.6284,7.6322,7.6322,7.6322,7.6361,7.6438,7.6592,7.663,7.6746,7.7169,7.733,7.7638,7.8207,7.89,7.9477,7.9862,8.0439,8.0862,8.1016,8.1093,8.1093,8.1093,8.1093,8.1093,8.1093,8.1093,8.1093,8.1093,8.1093,8.1093,8.1093,8.1093,8.1093,8.1093,8.0999,8.0943,8.0893,8.0805,8.0737,8.0658,8.0596,8.0562,8.0562,8.056,8.0605,8.0641,8.0697,8.0693,8.0711,8.0737,8.0809,8.0818,8.0818,8.1099,8.1401,8.2387,8.3255,8.3788,8.4001,8.3772,8.3429,8.2999,8.2464,8.1996,8.1423,8.085,8.0544,8.0506,8.0506,8.0544,8.0659,8.1093,8.1093,8.1093,8.1093,8.1093,8.1093,8.1093,8.0939,8.02,7.9323,7.8446,7.7561,7.6746,7.5976,7.5976,7.5976,7.5976,7.5976,7.5976,7.5976,7.5976,7.5976,7.5976,7.5976,7.5976,7.5976,7.5976,7.5976,7.5976,7.5976,7.6015,7.6092,7.6053,7.6092,7.6207,7.6515,7.7061,7.7138,7.7522,7.7715,7.7669,7.7484,7.7099,7.7292,7.7669,7.7907,7.8023,7.8023,7.8023,7.8023,7.7907,7.783,7.7907,7.8023,7.8253,7.8484,7.9054,7.9554,8.0054,8.0439,8.09,8.0977,8.1093,8.1093,8.1093,8.1093,8.1093,8.1093,8.1093,8.1093,8.1093,8.1093,8.1093,8.1093,8.1093,8.1093,8.1093,8.1093,8.1069,8.0991,8.0959,8.0918,8.0838,8.0771,8.0758,8.0705,8.0697,8.0732,8.0749,8.0775,8.0801,8.0835,8.083,8.0847,8.0863,8.0902,8.0957,8.1274,8.1905,8.3132,8.4148,8.4999,8.5098,8.4717,8.4413,8.4041,8.3439,8.2741,8.2034,8.1423,8.0812,8.0544,8.0506,8.0697,8.0926]}]]